     2.11           OBSERVATION DATA    G (GPS)             RINEX VERSION / TYPE
teqc 2010Oct21 OPUS Account 20111028 17:05:03UTC            PGM / RUN BY / DATE
Q 1527                                                      MARKER NAME
3075                                                        MARKER NUMBER
CSMIDDLETON NGS                                             OBSERVER / AGENCY
4624K01583 TRIMBLE NETR5 4.41                               REC # / TYPE / VERS
60154430 TRM41249.00 NONE                                   ANT # / TYPE
  -714880.4771 -5594498.0162  2968431.2566                  APPROX POSITION XYZ
        2.0000        0.0000        0.0000                  ANTENNA: DELTA H/E/N
     1     1                                                WAVELENGTH FACT L1/2
     5    L1    L2    C1    P1    P2                        # / TYPES OF OBSERV
    15                                                      LEAP SECONDS
  2011     8    25     0     0    0.0000000     GPS         TIME OF FIRST OBS
                                                            END OF HEADER
 11  8 25  0  0  0.0000000  0  9G09G25G02G17G10G12G05G04G30
 124342299.75317  96890166.78154  23661561.031                    23661571.695
 127193682.22817  99112009.27616  24204157.211                    24204169.602
 108520149.35418  84561321.30556  20650660.180                    20650666.000
 121718059.11917  94845347.88716  23162172.453                    23162181.816
 109661512.57618  85450576.23856  20867834.758                    20867843.402
 112960392.91017  88021140.70417  21495641.328                    21495648.793
 115316335.32917  89857062.21317  21943939.633                    21943948.844
 114100897.54018  88909931.53755  21712650.164                    21712659.164
 127207255.22717  99122485.41853  24206715.109                    24206724.813
 11  8 25  0  0 30.0000000  0  9G09G25G02G17G10G12G05G04G30
 124419239.737 7  96950119.90044  23676202.055                    23676213.805
 127093830.015 7  99034202.437 6  24185156.078                    24185167.613
 108519985.023 8  84561193.26946  20650629.109                    20650634.547
 121769407.653 7  94885359.678 7  23171943.781                    23171953.590
 109663333.090 8  85451994.82946  20868181.234                    20868189.707
 112898997.672 7  87973300.288 7  21483958.195                    21483965.914
 115227057.775 7  89787495.414 7  21926950.578                    21926959.758
 114177272.632 8  88969444.58645  21727184.125                    21727192.586
 127105104.718 7  99042887.68743  24187276.813                    24187285.891
 11  8 25  0  1  0.0000000  0  9G09G25G02G17G10G12G05G04G30
 124496346.185 7  97010202.66443  23690873.922                    23690886.965
 126994146.780 6  98956527.272 6  24166186.555                    24166198.879
 108520102.810 8  84561285.06846  20650651.453                    20650656.910
 121820914.399 7  94925494.759 7  23181745.086                    23181755.117
 109665783.821 7  85453904.50046  20868647.406                    20868656.277
 112838026.018 8  87925789.930 7  21472355.508                    21472363.266
 115138089.833 7  89718169.862 7  21910020.477                    21910029.586
 114253777.901 8  89029059.07745  21741742.516                    21741751.430
 127003174.049 6  98963461.28143  24167879.305                    24167889.320
 11  8 25  0  1 30.0000000  0  9G09G25G02G17G10G12G05G04G30
 124573615.734 7  97070412.53744  23705578.977                    23705590.449
 126894635.217 6  98878985.897 6  24147249.477                    24147262.176
 108520501.666 8  84561595.88146  20650727.094                    20650732.980
 121872580.320 7  94965753.871 6  23191576.516                    23191586.391
 109668865.282 7  85456305.65446  20869233.867                    20869242.625
 112777480.582 7  87878611.693 7  21460834.461                    21460841.980
 115049434.420 7  89649087.846 7  21893149.891                    21893159.156
 114330411.365 8  89088773.45545  21756325.750                    21756334.285
 126901466.105 6  98884208.41843  24148524.773                    24148535.309
 11  8 25  0  2  0.0000000  0  9G09G25G02G17G10G12G05G04G30
 124651045.134 7  97130747.07044  23720313.680                    23720324.215
 126795298.070 6  98801580.425 6  24128346.641                    24128358.770
 108521180.810 8  84562125.09946  20650856.266                    20650861.867
 121924405.876 7  95006137.353 7  23201439.234                    23201448.563
 109672577.582 8  85459198.37146  20869940.344                    20869948.637
 112717363.753 8  87831767.440 7  21449394.281                    21449402.078
 114961094.637 7  89580251.763 7  21876338.875                    21876348.590
 114407171.317 8  89148586.39745  21770932.594                    21770941.250
 126799983.663 6  98805131.33043  24129214.070                    24129223.906
 11  8 25  0  2 30.0000000  0  9G09G25G02G17G10G12G05G04G30
 124728630.966 7  97191203.42843  23735076.773                    23735089.328
 126696137.878 6  98724312.820 6  24109476.969                    24109488.578
 108522138.908 8  84562871.68546  20651038.789                    20651044.367
 121976391.531 7  95046645.597 7  23211331.984                    23211341.289
 109676920.519 8  85462582.49946  20870767.039                    20870775.078
 112657677.831 8  87785258.971 7  21438036.664                    21438044.594
 114873073.330 7  89511663.855 7  21859589.195                    21859598.688
 114484055.647 8  89208496.26145  21785563.000                    21785572.023
 126698729.589 6  98726232.15743  24109945.375                    24109955.551
 11  8 25  0  3  0.0000000  0  9G09G25G02G17G10G12G05G04G30
 124806369.925 7  97251779.00944  23749870.906                    23749883.402
 126597157.123 7  98647185.072 6  24090641.578                    24090653.074
 108523374.483 8  84563834.48946  20651273.750                    20651279.477
 122028537.844 7  95087279.031 7  23221254.492                    23221264.324
 109681894.225 8  85466458.13646  20871713.211                    20871721.457
 112598424.810 8  87739087.815 7  21426761.281                    21426768.934
 114785372.942 7  89443326.010 7  21842899.992                    21842909.691
 114561062.168 8  89268501.33845  21800216.570                    21800225.777
 126597706.486 6  98647512.95642  24090721.078                    24090731.480
 11  8 25  0  3 30.0000000  0  9G09G25G02G17G10G12G05G04G30
 124884258.577 7  97312471.28043  23764692.813                    23764704.414
 126498358.635 7  98570199.352 6  24071840.188                    24071852.805
 108524886.689 8  84565012.86046  20651561.406                    20651567.090
 122080845.649 7  95128038.289 6  23231208.523                    23231217.902
 109687499.246 8  85470825.71846  20872780.000                    20872788.230
 112539607.429 7  87693256.121 7  21415568.750                    21415576.176
 114697996.576 7  89375240.647 7  21826272.852                    21826282.508
 114638189.161 8  89328600.27545  21814893.813                    21814902.699
 126496917.368 6  98568976.07842  24071540.734                    24071551.777
 11  8 25  0  4  0.0000000  0  9G09G25G02G17G10G12G05G04G30
 124962293.560 6  97373277.65543  23779542.016                    23779553.398
 126399744.846 7  98493357.548 6  24053075.398                    24053087.207
 108526674.115 8  84566405.69146  20651901.445                    20651907.359
 122133315.158 7  95168923.583 7  23241193.266                    23241203.191
 109693735.141 8  85475684.88446  20873966.469                    20873974.914
 112481227.788 8  87647765.515 7  21404459.219                    21404466.883
 114610946.966 7  89307409.888 7  21809707.852                    21809717.586
 114715434.735 8  89388791.61045  21829593.367                    21829602.184
 126396364.988 6  98490623.64343  24052406.805                    24052416.465
 11  8 25  0  4 30.0000000  0  9G09G25G02G17G10G12G05G04G30
 125040471.406 6  97434195.24943  23794418.914                    23794430.965
 126301318.390 7  98416661.697 6  24034345.320                    24034356.902
 108528735.915 8  84568012.31346  20652293.930                    20652299.918
 122185947.261 7  95209935.582 6  23251208.539                    23251218.172
 109700601.651 8  85481035.43646  20875272.836                    20875281.441
 112423287.856 8  87602617.536 7  21393433.867                    21393441.270
 114524226.962 7  89239835.970 7  21793205.813                    21793214.965
 114792796.758 8  89449073.69045  21844314.953                    21844323.637
 126296052.202 6  98412457.89143  24033317.539                    24033328.180
 11  8 25  0  5  0.0000000  0  9G09G25G02G17G10G12G05G04G30
 125118788.626 7  97495221.43044  23809323.273                    23809334.793
 126203081.732 7  98340113.759 6  24015650.852                    24015662.859
 108531070.456 8  84569831.45946  20652738.359                    20652743.980
 122238742.303 7  95251074.524 6  23261254.852                    23261264.738
 109708098.434 8  85486877.11846  20876699.469                    20876707.977
 112365789.820 8  87557813.907 7  21382491.891                    21382499.566
 114437838.915 7  89172520.718 7  21776766.430                    21776775.770
 114870273.401 8  89509445.07545  21859057.945                    21859066.754
 126195981.513 6  98334480.80643  24014275.289                    24014285.152
 11  8 25  0  5 30.0000000  0  9G09G25G02G17G10G12G05G04G30
 125197242.112 7  97556353.81944  23824252.117                    23824264.570
 126105037.774 7  98263715.970 6  23996993.633                    23997005.262
 108533676.841 8  84571862.43446  20653233.875                    20653239.469
 122291700.903 7  95292340.914 6  23271332.711                    23271342.832
 109716225.970 8  85493210.30346  20878246.125                    20878254.668
 112308736.338 8  87513356.671 7  21371635.227                    21371642.848
 114351786.101 7  89105466.692 7  21760391.250                    21760400.355
 114947862.832 8  89569904.34545  21873822.633                    21873831.957
 126096156.141 6  98256694.84043  23995279.359                    23995289.363
 11  8 25  0  6  0.0000000  0  9G09G25G02G17G10G12G05G04G30
 125275828.404 6  97617589.70543  23839205.508                    23839218.297
 126007189.185 7  98187470.412 6  23978373.906                    23978385.844
 108536553.998 8  84574104.39746  20653781.484                    20653787.109
 122344823.834 7  95333735.357 6  23281441.602                    23281451.457
 109724984.016 8  85500034.78946  20879912.836                    20879920.883
 112252129.776 8  87469247.686 7  21360863.367                    21360870.949
 114266071.371 8  89038676.099 7  21744079.742                    21744089.539
 115025563.114 7  89630449.98745  21888608.703                    21888617.684
 125996578.859 7  98179102.23643  23976330.711                    23976339.781
 11  8 25  0  6 30.0000000  0  9G09G25G02G17G10G12G05G04G30
 125354544.053 6  97678926.37843  23854185.547                    23854197.996
 125909538.309 7  98111378.908 6  23959791.305                    23959803.027
 108539700.284 8  84576556.07546  20654380.383                    20654385.852
 122398111.272 7  95375257.992 6  23291582.297                    23291591.199
 109734372.029 8  85507350.16646  20881699.219                    20881707.438
 112195971.954 8  87425488.360 7  21350176.984                    21350184.633
 114180696.905 7  88972150.648 7  21727833.414                    21727842.910
 115103372.399 8  89691080.56945  21903415.156                    21903424.418
 125897252.344 7  98101704.99143  23957429.102                    23957438.992
 11  8 25  0  7  0.0000000  0  9G09G25G02G17G10G12G05G04G30
 125433385.734 7  97740361.26144  23869189.133                    23869201.625
 125812087.925 7  98035443.621 6  23941247.313                    23941259.105
 108543115.009 8  84579216.92046  20655030.188                    20655035.875
 122451564.113 7  95416909.499 6  23301754.141                    23301764.418
 109744390.445 8  85515156.76946  20883605.445                    20883613.977
 112140265.268 8  87382080.575 7  21339576.047                    21339584.109
 114095666.230 7  88905893.095 7  21711652.727                    21711661.871
 115181288.643 8  89751794.50045  21918242.391                    21918251.086
 125798179.473 6  98024505.45043  23938575.477                    23938586.246
 11  8 25  0  7 30.0000000  0  9G09G25G02G17G10G12G05G04G30
 125512350.318 7  97801891.90744  23884215.492                    23884228.516
 125714840.820 7  97959666.759 6  23922741.797                    23922753.238
 108546796.887 8  84582085.93746  20655730.453                    20655736.359
 122505182.676 7  95458690.173 6  23311956.922                    23311966.910
 109755038.811 8  85523454.23246  20885632.078                    20885640.043
 112085012.057 8  87339026.151 7  21329062.039                    21329069.301
 114010981.941 8  88839905.449 7  21695538.102                    21695546.965
 115259310.377 8  89812590.61445  21933089.109                    21933098.145
 125699363.322 6  97947505.95543  23919771.680                    23919781.855
 11  8 25  0  8  0.0000000  0  9G09G25G02G17G10G12G05G04G30
 125591434.437 6  97863515.65943  23899264.352                    23899277.164
 125617799.621 7  97884050.297 6  23904274.508                    23904286.902
 108550744.884 8  84585162.31246  20656481.891                    20656487.852
 122558967.709 7  95500600.520 6  23322192.320                    23322202.168
 109766317.051 8  85532242.50346  20887778.055                    20887787.035
 112030214.594 8  87296326.846 7  21318634.539                    21318641.539
 113926646.706 8  88774189.782 7  21679489.359                    21679498.906
 115337435.480 8  89873467.28245  21947956.164                    21947965.203
 125600806.470 6  97870708.52743  23901017.117                    23901027.035
 11  8 25  0  8 30.0000000  0  9G09G25G02G17G10G12G05G04G30
 125670634.654 7  97925229.90944  23914336.898                    23914348.840
 125520966.707 7  97808596.132 6  23885848.695                    23885860.504
 108554957.280 8  84588444.71846  20657283.492                    20657288.699
 122612919.577 7  95542640.921 6  23332459.195                    23332469.129
 109778224.627 8  85541521.16546  20890044.234                    20890052.133
 111975874.589 8  87253984.008 7  21308293.547                    21308301.070
 113842663.115 8  88708748.127 7  21663507.578                    21663516.902
 115415662.036 8  89934422.99845  21962841.938                    21962851.672
 125502511.710 6  97794115.33143  23882311.781                    23882321.336
 11  8 25  0  9  0.0000000  0  9G09G25G02G17G10G12G05G04G30
 125749947.704 7  97987032.13744  23929429.516                    23929441.707
 125424345.137 7  97733306.636 6  23867461.867                    23867473.930
 108559433.456 8  84591932.67146  20658135.234                    20658141.051
 122667039.137 7  95584812.010 6  23342757.672                    23342766.871
 109790761.298 8  85551290.01646  20892429.664                    20892438.430
 111921994.761 8  87211999.744 7  21298040.695                    21298048.297
 113759034.065 8  88643582.729 7  21647593.578                    21647602.867
 115493988.532 8  89995456.58845  21977747.141                    21977756.500
 125404482.122 6  97717728.74743  23863657.688                    23863667.738
 11  8 25  0  9 30.0000000  0  9G09G25G02G17G10G12G05G04G30
 125829370.307 7  98048919.69244  23944543.430                    23944556.262
 125327937.371 7  97658183.732 6  23849116.031                    23849127.961
 108564172.427 8  84595625.38946  20659036.906                    20659043.031
 122721326.818 7  95627114.032 6  23353088.117                    23353098.406
 109803926.394 8  85561548.56946  20894935.133                    20894943.195
 111868577.134 8  87170375.648 7  21287875.453                    21287883.191
 113675762.297 8  88578695.733 7  21631747.258                    21631756.703
 115572413.075 8  90056566.58645  21992671.078                    21992679.801
 125306720.503 6  97641550.99343  23845054.000                    23845064.020
 11  8 25  0 10  0.0000000  0  9G09G25G02G17G10G12G05G04G30
 125908898.628 6  98110889.58744  23959676.914                    23959690.324
 125231745.754 7  97583229.267 6  23830811.367                    23830823.500
 108569171.790 8  84599521.01046  20659988.602                    20659994.266
 122775782.798 7  95669547.212 6  23363451.227                    23363460.734
 109817719.660 8  85572296.59346  20897559.523                    20897567.977
 111815623.325 8  87129112.954 7  21277799.188                    21277806.551
 113592850.318 8  88514089.104 7  21615969.500                    21615978.742
 115650933.457 7  90117751.26745  22007612.914                    22007622.004
 125209229.229 6  97565583.88743  23826501.813                    23826511.879
 11  8 25  0 10 30.0000000  0  9G09G25G02G17G10G12G05G04G30
 125988529.600 7  98172939.48343  23974830.555                    23974843.551
 125135773.456 7  97508445.685 6  23812549.055                    23812560.473
 108574431.327 8  84603619.36146  20660989.320                    20660995.234
 122830408.077 7  95712112.280 6  23373846.258                    23373856.098
 109832141.319 8  85583534.26746  20900303.898                    20900312.012
 111763136.041 8  87088213.787 7  21267810.875                    21267818.328
 113510301.114 8  88449765.140 7  21600261.039                    21600270.051
 115729548.456 7  90179009.66845  22022572.703                    22022581.871
 125112011.602 6  97489830.03743  23808001.711                    23808011.418
 11  8 25  0 11  0.0000000  0  9G09G25G02G17G10G12G05G04G30
 126068259.970 7  98235066.90743  23990003.047                    23990015.133
 125040023.073 7  97433835.025 7  23794328.063                    23794339.984
 108579949.684 8  84607919.40246  20662039.273                    20662045.000
 122885202.826 7  95754809.465 6  23384273.172                    23384282.684
 109847190.410 8  85595260.85146  20903167.352                    20903175.844
 111711117.432 8  87047679.829 7  21257911.977                    21257919.492
 113428117.394 8  88385725.986 7  21584621.641                    21584630.426
 115808255.974 8  90240340.17345  22037550.461                    22037559.426
 125015070.447 6  97414291.56843  23789554.773                    23789564.297
 11  8 25  0 11 30.0000000  0  9G09G25G02G17G10G12G05G04G30
 126148086.322 6  98297269.11843  24005192.695                    24005205.020
 124944496.965 7  97359399.137 6  23776149.813                    23776161.691
 108585725.340 8  84612419.92946  20663138.375                    20663143.855
 122940167.529 7  95797639.102 6  23394731.781                    23394741.797
 109862866.305 8  85607475.85046  20906150.656                    20906158.906
 111659569.065 8  87007512.290 7  21248102.555                    21248110.223
 113346301.642 8  88321973.547 7  21569052.820                    21569061.840
 115887054.109 7  90301741.30445  22052545.141                    22052554.156
 124918408.196 6  97338970.46843  23771160.086                    23771169.992
 11  8 25  0 12  0.0000000  0  9G09G25G02G17G10G12G05G04G30
 126228005.495 6  98359543.59843  24020401.500                    24020414.168
 124849197.998 7  97285140.233 6  23758015.055                    23758026.809
 108591757.359 8  84617120.21746  20664286.000                    20664291.891
 122995303.052 7  95840601.758 6  23405224.398                    23405234.738
 109879168.737 8  85620179.05946  20909252.797                    20909261.160
 111608493.638 8  86967713.282 7  21238383.094                    21238390.594
 113264856.749 8  88258510.096 7  21553554.109                    21553562.910
 115965941.165 7  90363211.70945  22067557.008                    22067565.828
 124822027.844 7  97263868.99643  23752819.344                    23752829.426
 11  8 25  0 12 30.0000000  0  9G09G25G02G17G10G12G05G04G30
 126308014.373 6  98421887.94444  24035626.906                    24035639.977
 124754128.980 7  97211060.529 6  23739923.930                    23739935.285
 108598044.822 8  84622019.56146  20665482.781                    20665488.398
 123050609.893 7  95883697.937 6  23415749.516                    23415758.934
 109896097.546 8  85633370.35446  20912474.539                    20912482.676
 111557893.139 8  86928284.345 7  21228754.547                    21228762.180
 113183785.421 8  88195337.731 7  21538127.039                    21538135.746
 116044915.569 7  90424750.19145  22082585.000                    22082594.949
 124725932.519 7  97188989.56643  23734533.438                    23734542.426
 11  8 25  0 13  0.0000000  0  9G09G25G02G17G10G12G05G04G30
 126388109.253 6  98484299.36643  24050868.930                    24050881.684
 124659292.446 7  97137161.978 6  23721877.445                    23721888.914
 108604586.118 8  84627116.68746  20666727.336                    20666732.969
 123106088.279 7  95926927.834 6  23426305.484                    23426316.633
 109913652.010 8  85647049.16846  20915815.086                    20915823.273
 111507769.411 8  86889226.914 7  21219215.906                    21219223.797
 113103090.244 8  88132458.470 7  21522770.859                    21522780.039
 116123975.543 7  90486355.33645  22097629.961                    22097639.164
 124630124.875 7  97114334.29543  23716301.211                    23716310.711
 11  8 25  0 13 30.0000000  0  9G09G25G02G17G10G12G05G04G30
 126468286.907 6  98546775.31743  24066125.727                    24066138.633
 124564691.040 7  97063446.662 6  23703875.289                    23703886.680
 108611380.215 8  84632410.80946  20668020.070                    20668026.172
 123161738.771 7  95970291.821 6  23436896.203                    23436905.922
 109931831.410 8  85661214.94046  20919274.234                    20919282.648
 111458124.387 8  86850542.501 7  21209769.047                    21209776.488
 113022773.763 8  88069874.285 7  21507487.016                    21507495.949
 116203119.178 7  90548025.69045  22112690.188                    22112699.848
 124534607.562 7  97039905.24743  23698125.055                    23698134.305
 11  8 25  0 14  0.0000000  0  9G09G25G02G17G10G12G05G04G30
 126548544.392 6  98609313.48343  24081397.953                    24081411.488
 124470327.507 7  96989916.720 6  23685918.609                    23685929.141
 108618425.825 8  84637900.91046  20669361.109                    20669366.793
 123217561.963 7  96013790.354 6  23447518.625                    23447529.070
 109950635.255 8  85675867.28846  20922852.516                    20922861.094
 111408960.660 8  86812233.134 7  21200413.688                    21200420.801
 112942838.866 8  88007587.438 7  21492276.070                    21492284.930
 116282344.959 7  90609760.04645  22127766.375                    22127775.777
 124439383.654 7  96965704.83544  23680004.781                    23680013.715
 11  8 25  0 14 30.0000000  0  9G09G25G02G17G10G12G05G04G30
 126628878.331 6  98671911.13643  24096685.656                    24096699.305
 124376204.777 7  96916574.408 6  23668007.000                    23668018.461
 108625722.111 8  84643586.35346  20670749.383                    20670755.129
 123273558.461 7  96057423.931 6  23458174.930                    23458185.164
 109970063.294 8  85691006.03246  20926549.586                    20926557.539
 111360280.223 8  86774300.350 7  21191149.813                    21191157.242
 112863288.136 8  87945599.943 7  21477137.953                    21477147.098
 116361651.204 7  90671557.09845  22142857.539                    22142867.227
 124344455.971 7  96891735.22143  23661940.023                    23661950.113
 11  8 25  0 15  0.0000000  0  9G09G25G02G17G10G12G05G04G30
 126709285.273 7  98734565.69344  24111987.133                    24112000.551
 124282325.147 7  96843421.549 6  23650141.789                    23650153.820
 108633267.382 8  84649465.80446  20672185.219                    20672190.766
 123329728.514 7  96101192.729 6  23468863.984                    23468874.363
 109990114.613 8  85706630.44646  20930365.336                    20930373.715
 111312084.919 8  86736745.591 7  21181978.156                    21181985.715
 112784124.468 8  87883914.065 7  21462073.711                    21462082.570
 116441035.966 7  90733415.33945  22157964.414                    22157973.656
 124249827.249 7  96817998.56243  23643933.109                    23643942.664
 11  8 25  0 15 30.0000000  0  9G09G25G02G17G10G12G05G04G30
 126789761.914 7  98797274.56744  24127301.344                    24127314.449
 124188691.240 7  96770460.165 6  23632324.141                    23632335.176
 108641060.365 8  84655538.26946  20673668.328                    20673673.969
 123386072.653 7  96145097.198 6  23479585.852                    23479595.785
 110010788.379 8  85722739.89246  20934298.992                    20934307.379
 111264376.266 8  86699570.044 7  21172899.820                    21172907.500
 112705349.574 8  87822531.113 7  21447083.297                    21447092.141
 116520497.509 8  90795333.41845  22173085.820                    22173094.543
 124155500.245 7  96744497.01844  23625983.539                    23625992.820
 11  8 25  0 16  0.0000000  0  9G09G25G02G17G10G12G05G04G30
 126870304.901 6  98860035.13143  24142627.703                    24142640.934
 124095305.875 7  96697692.470 6  23614553.477                    23614565.172
 108649099.838 8  84661802.81146  20675198.055                    20675203.934
 123442591.296 7  96189137.646 7  23490341.117                    23490351.133
 110032083.966 8  85739333.85846  20938351.703                    20938360.016
 111217156.271 8  86662775.267 7  21163913.695                    21163921.387
 112626966.583 8  87761453.538 7  21432166.984                    21432176.230
 116600034.143 7  90857310.00445  22188221.211                    22188229.992
 124061477.757 7  96671232.76343  23608091.664                    23608100.918
 11  8 25  0 16 30.0000000  0  9G09G25G02G17G10G12G05G04G30
 126950911.254 6  98922845.06643  24157966.836                    24157979.973
 124002171.915 7  96625120.654 6  23596830.875                    23596841.977
 108657385.112 8  84668258.88246  20676774.742                    20676780.578
 123499284.944 7  96233314.445 6  23501129.594                    23501139.945
 110054000.817 8  85756411.92146  20942522.586                    20942531.238
 111170427.358 8  86626363.157 7  21155021.578                    21155029.258
 112548978.361 8  87700683.583 7  21417326.406                    21417334.977
 116679644.455 7  90919344.00045  22203370.180                    22203378.938
 123967762.933 6  96598208.27043  23590257.992                    23590267.352
 11  8 25  0 17  0.0000000  0  9G09G25G02G17G10G12G05G04G30
 127031577.648 6  98985701.83443  24173317.672                    24173330.938
 123909291.836 7  96552746.683 6  23579155.734                    23579167.699
 108665914.665 8  84674905.29846  20678397.711                    20678403.559
 123556154.101 7  96277628.067 6  23511951.148                    23511961.293
 110076538.009 8  85773973.36946  20946810.828                    20946819.070
 111124191.499 8  86590335.242 7  21146223.266                    21146231.004
 112471387.334 8  87640223.119 7  21402561.547                    21402569.961
 116759326.663 7  90981434.00345  22218533.648                    22218542.402
 123874358.363 6  96525425.53344  23572484.008                    23572493.543
 11  8 25  0 17 30.0000000  0  9G09G25G02G17G10G12G05G04G30
 127112300.418 7  99048602.50544  24188679.047                    24188692.691
 123816668.061 7  96480572.415 6  23561530.258                    23561541.703
 108674687.056 8  84681740.93446  20680066.898                    20680072.613
 123613199.543 7  96322079.007 6  23522806.570                    23522816.586
 110099694.552 8  85792017.44146  20951217.547                    20951225.770
 111078450.301 8  86554692.781 7  21137519.203                    21137526.270
 112394195.868 7  87580074.001 7  21387872.570                    21387880.781
 116839078.838 7  91043578.55445  22233709.500                    22233718.727
 123781266.659 6  96452886.61644  23554769.227                    23554778.957
 11  8 25  0 18  0.0000000  0  9G09G25G02G17G10G12G05G04G30
 127193076.869 7  99111544.98944  24204050.016                    24204063.871
 123724303.776 7  96408600.340 7  23543953.773                    23543965.426
 108683701.768 8  84688765.38646  20681782.352                    20681788.215
 123670421.492 7  96366667.494 6  23533695.250                    23533706.117
 110123469.903 8  85810543.69446  20955741.781                    20955750.363
 111033205.921 8  86519437.446 7  21128909.641                    21128916.855
 112317406.554 8  87520238.256 7  21373259.656                    21373268.000
 116918899.723 7  91105776.64145  22248899.188                    22248908.215
 123688491.072 6  96380594.03043  23537114.602                    23537123.984
 11  8 25  0 18 30.0000000  0  9G09G25G02G17G10G12G05G04G30
 127273903.499 6  99174526.51043  24219431.234                    24219444.836
 123632201.409 7  96336832.354 7  23526427.266                    23526439.152
 108692956.792 8  84695977.09846  20683543.375                    20683549.492
 123727820.148 7  96411393.665 6  23544618.258                    23544628.566
 110147863.153 8  85829551.43146  20960383.609                    20960392.098
 110988460.217 8  86484570.696 7  21120394.844                    21120401.977
 112241021.987 8  87460717.902 7  21358724.227                    21358732.637
 116998787.273 7  91168026.66245  22264100.914                    22264110.555
 123596034.171 6  96308549.79143  23519520.297                    23519530.031
 11  8 25  0 19  0.0000000  0  9G09G25G02G17G10G12G05G04G30
 127354777.114 6  99237544.68543  24234821.438                    24234834.816
 123540363.658 7  96265270.557 7  23508951.281                    23508962.766
 108702451.210 8  84703375.35246  20685350.141                    20685356.004
 123785395.929 6  96456257.839 6  23555574.578                    23555584.750
 110172873.005 8  85849039.64346  20965143.008                    20965151.520
 110944215.074 8  86450093.979 7  21111974.914                    21111982.355
 112165044.639 8  87401514.847 7  21344266.156                    21344274.953
 117078740.347 7  91230327.72345  22279315.563                    22279325.027
 123503898.793 6  96236756.06143  23501987.328                    23501997.039
 11  8 25  0 19 30.0000000  0  9G09G25G02G17G10G12G05G04G30
 127435694.515 7  99300597.03943  24250219.797                    24250232.555
 123448793.083 7  96193916.931 7  23491526.055                    23491537.438
 108712183.887 8  84710959.25746  20687202.484                    20687208.266
 123843149.719 7  96501260.759 6  23566565.039                    23566575.688
 110198498.905 8  85869007.88746  20970019.172                    20970027.887
 110900472.521 8  86416008.906 7  21103651.156                    21103658.391
 112089477.271 8  87342631.262 7  21329885.992                    21329894.668
 117158756.919 7  91292678.24845  22294542.141                    22294551.629
 123412087.660 6  96165215.02844  23484516.281                    23484526.055
 11  8 25  0 20  0.0000000  0  9G09G25G02G17G10G12G05G04G30
 127516652.338 7  99363680.87643  24265625.328                    24265638.590
 123357492.404 7  96122773.641 7  23474151.570                    23474163.656
 108722153.483 8  84718727.76646  20689099.453                    20689105.496
 123901081.693 6  96546402.502 6  23577588.781                    23577599.555
 110224739.820 8  85889455.37346  20975012.805                    20975021.395
 110857233.679 8  86382316.338 7  21095423.102                    21095430.555
 112014322.233 8  87284068.970 7  21315584.563                    21315593.035
 117238835.493 7  91355077.09445  22309781.039                    22309790.328
 123320603.461 7  96093928.71644  23467107.633                    23467116.859
 11  8 25  0 20 30.0000000  0  9G09G25G02G17G10G12G05G04G30
 127597647.522 7  99426793.81844  24281038.195                    24281052.309
 123266464.333 7  96051842.758 6  23456829.617                    23456841.277
 108732358.697 8  84726679.87846  20691041.883                    20691047.477
 123959192.267 6  96591683.410 6  23588646.953                    23588657.301
 110251594.877 8  85910381.40946  20980122.914                    20980131.441
 110814500.880 8  86349018.077 7  21087291.234                    21087298.313
 111939581.922 7  87225829.847 7  21301361.797                    21301370.383
 117318974.430 7  91417522.97745  22325031.070                    22325039.816
 123229449.164 7  96022899.48144  23449761.891                    23449770.664
 11  8 25  0 21  0.0000000  0  9G09G25G02G17G10G12G05G04G30
 127678676.757 6  99489933.25144  24296457.078                    24296471.637
 123175711.487 7  95981126.311 6  23439560.148                    23439570.910
 108742798.241 8  84734814.58446  20693028.156                    20693033.801
 124017481.829 6  96637103.804 6  23599739.445                    23599750.012
 110279063.157 7  85931785.28546  20985350.133                    20985358.230
 110772275.984 8  86316115.587 7  21079256.031                    21079263.027
 111865258.969 8  87167915.938 7  21287218.414                    21287226.938
 117399172.075 7  91480014.62345  22340292.250                    22340301.043
 123138627.439 7  95952129.40744  23432478.930                    23432488.043
 11  8 25  0 21 30.0000000  0  9G09G25G02G17G10G12G05G04G30
 127759737.039 6  99553096.84343  24311882.578                    24311896.980
 123085236.777 7  95910626.612 6  23422343.344                    23422354.680
 108753471.352 8  84743131.29646  20695059.250                    20695065.004
 124075950.993 6  96682664.119 6  23610864.867                    23610875.809
 110307143.620 8  85953666.18546  20990693.695                    20990702.047
 110730560.937 8  86283610.386 7  21071317.930                    21071325.234
 111791355.839 8  87110329.155 7  21273155.039                    21273163.402
 117479427.167 7  91542551.03645  22355564.133                    22355573.191
 123048141.258 7  95881620.76243  23415259.008                    23415268.113
 11  8 25  0 22  0.0000000  0  9G09G25G02G17G10G12G05G04G30
 127840825.212 6  99616282.20844  24327314.008                    24327328.230
 122995042.986 7  95840345.806 6  23405179.594                    23405191.352
 108764377.146 8  84751629.32046  20697134.500                    20697140.328
 124134600.262 6  96728364.785 6  23622025.805                    23622035.875
 110335835.547 8  85976023.54646  20996153.414                    20996161.902
 110689357.785 8  86251504.056 7  21063477.016                    21063484.371
 111717875.352 8  87053071.714 7  21259172.133                    21259180.570
 117559738.136 7  91605130.99344  22370846.992                    22370855.492
 122957993.554 7  95811375.89544  23398104.617                    23398113.613
 11  8 25  0 22 30.0000000  0  9G09G25G02G17G10G12G05G04G30
 127921937.819 7  99679486.64243  24342749.492                    24342763.176
 122905132.370 7  95770285.651 6  23388070.117                    23388081.098
 108775513.475 8  84760306.98446  20699253.805                    20699259.031
 124193429.625 6  96774205.789 6  23633221.375                    23633231.344
 110365137.355 8  85998856.15546  21001729.164                    21001737.820
 110648667.380 8  86219797.262 7  21055734.242                    21055741.531
 111644819.237 8  86996144.931 7  21245270.172                    21245278.570
 117640103.253 7  91667753.15645  22386139.633                    22386148.629
 122868186.726 7  95741396.62544  23381015.359                    23381023.992
 11  8 25  0 23  0.0000000  0  9G09G25G02G17G10G12G05G04G30
 128003071.874 6  99742707.76943  24358188.844                    24358202.570
 122815507.778 7  95700448.372 6  23371015.297                    23371026.328
 108786879.507 8  84769163.63246  20701416.461                    20701422.211
 124252439.833 6  96820187.704 6  23644450.742                    23644460.824
 110395048.346 8  86022163.45546  21007421.461                    21007429.430
 110608492.350 8  86188492.068 7  21048089.063                    21048096.473
 111572190.339 7  86939551.060 7  21231449.266                    21231457.664
 117720520.963 7  91730416.27045  22401442.398                    22401452.082
 122778723.675 7  95671685.23444  23363990.906                    23363999.680
 11  8 25  0 23 30.0000000  0  9G09G25G02G17G10G12G05G04G30
 128084224.228 6  99805943.18043  24373632.234                    24373645.617
 122726171.960 7  95630836.127 6  23354015.547                    23354026.555
 108798474.273 8  84778198.52446  20703622.992                    20703628.711
 124311631.136 6  96866310.762 6  23655714.414                    23655723.863
 110425567.251 8  86045944.45046  21013228.508                    21013236.891
 110568834.005 8  86157589.485 7  21040542.344                    21040549.555
 111499991.022 8  86883291.917 7  21217710.227                    21217718.930
 117800989.817 7  91793119.25244  22416754.938                    22416764.629
 122689607.229 7  95602243.94044  23347032.023                    23347041.742
 11  8 25  0 24  0.0000000  0  9G09G25G02G17G10G12G05G04G30
 128165391.188 6  99869189.89943  24389077.156                    24389091.727
 122637127.227 7  95561450.688 6  23337070.484                    23337081.176
 108810295.689 8  84787410.01546  20705872.398                    20705877.879
 124371003.748 6  96912575.064 6  23667012.453                    23667022.953
 110456692.400 8  86070197.84246  21019151.500                    21019159.773
 110529693.477 8  86127090.388 7  21033094.141                    21033100.941
 111428223.335 8  86827369.109 7  21204052.945                    21204061.285
 117881508.052 7  91855860.69545  22432077.531                    22432087.020
 122600839.924 7  95533074.70843  23330140.586                    23330149.477
 11  8 25  0 24 30.0000000  0  9G09G25G02G17G10G12G05G04G30
 128246570.425 6  99932446.17143  24404525.500                    24404539.887
 122548376.777 7  95492294.564 6  23320181.945                    23320192.500
 108822343.481 8  84796797.91046  20708165.367                    20708170.656
 124430558.364 6  96958981.224 6  23678345.508                    23678355.570
 110488423.182 8  86094923.14846  21025189.977                    21025198.027
 110491073.544 8  86096996.941 7  21025744.938                    21025752.020
 111356890.425 8  86771785.090 7  21190478.727                    21190487.266
 117962074.392 7  91918639.63645  22447409.289                    22447418.336
 122512424.875 7  95464179.93844  23313315.281                    23313324.758
 11  8 25  0 25  0.0000000  0  9G09G25G02G17G10G12G05G04G30
 128327758.192 6  99995709.12243  24419975.398                    24419989.734
 122459922.920 7  95423369.563 6  23303349.688                    23303360.652
 108834616.017 8  84806360.93246  20710500.648                    20710506.395
 124490295.289 6  97005529.412 6  23689713.336                    23689722.797
 110520758.248 8  86120119.31746  21031342.953                    21031351.305
 110452975.245 8  86067309.971 7  21018495.000                    21018502.188
 111285994.171 8  86716541.319 7  21176987.617                    21176995.742
 118042687.148 7  91981454.74245  22462749.117                    22462758.180
 122424364.659 7  95395561.66744  23296558.328                    23296567.223
 11  8 25  0 25 30.0000000  0  9G09G25G02G17G10G12G05G04G30
 128408951.756 6 100058976.60143  24435425.445                    24435440.281
 122371768.505 7  95354677.889 6  23286574.000                    23286585.063
 108847112.457 8  84816098.41946  20712878.523                    20712884.586
 124550214.548 6  97052219.691 6  23701115.578                    23701126.160
 110553696.333 8  86145785.38246  21037611.031                    21037619.297
 110415400.156 8  86038030.697 7  21011344.641                    21011351.852
 111215536.800 7  86661639.537 7  21163579.664                    21163588.219
 118123344.874 7  92044304.89245  22478097.672                    22478106.738
 122336661.980 6  95327222.00544  23279868.313                    23279877.801
 11  8 25  0 26  0.0000000  0  9G09G25G02G17G10G12G05G04G30
 128490147.978 6 100122246.12643  24450877.352                    24450891.469
 122283916.071 7  95286221.519 6  23269856.516                    23269867.391
 108859831.284 8  84826009.19846  20715298.773                    20715304.641
 124610316.825 6  97099052.612 5  23712552.188                    23712561.918
 110587236.486 8  86171920.57946  21043993.211                    21044001.680
 110378350.447 8  86009160.804 7  21004294.508                    21004301.547
 111145520.765 8  86607081.653 7  21150256.289                    21150264.887
 118204046.206 7  92107189.01445  22493454.648                    22493463.953
 122249319.672 6  95259163.14644  23263247.938                    23263257.426
 11  8 25  0 26 30.0000000  0  9G09G25G02G17G10G12G05G04G30
 128571343.545 6 100185515.15442  24466327.672                    24466342.430
 122196368.407 7  95218002.615 6  23253196.609                    23253207.566
 108872771.457 8  84836092.45646  20717761.164                    20717766.832
 124670602.638 7  97146028.545 6  23724024.141                    23724035.305
 110621377.218 8  86198523.76746  21050489.977                    21050498.695
 110341827.639 8  85980701.480 7  20997344.422                    20997352.016
 111075948.655 8  86552869.683 7  21137017.352                    21137025.730
 118284789.682 7  92170105.99045  22508819.641                    22508828.762
 122162340.463 6  95191387.23344  23246696.273                    23246705.973
 11  8 25  0 27  0.0000000  0  9G09G25G02G17G10G12G05G04G30
 128652535.114 6 100248781.07243  24481778.305                    24481792.527
 122109127.931 7  95150023.073 6  23236595.625                    23236606.063
 108885931.421 8  84846346.97246  20720265.266                    20720271.066
 124731071.955 7  97193147.444 6  23735531.352                    23735541.629
 110656117.342 8  86225594.00746  21057100.773                    21057109.363
 110305832.668 8  85952653.466 7  20990494.945                    20990501.980
 111006822.642 8  86499005.318 7  21123862.641                    21123871.199
 118365573.626 7  92233054.50945  22524192.352                    22524201.398
 122075726.986 7  95123896.30044  23230214.023                    23230223.531
 11  8 25  0 27 30.0000000  0  9G09G25G02G17G10G12G05G04G30
 128733719.698 6 100312041.57743  24497227.680                    24497242.094
 122022197.483 7  95082285.131 7  23220053.055                    23220064.180
 108899310.231 8  84856772.02346  20722811.375                    20722817.129
 124791725.239 7  97240409.692 6  23747073.398                    23747083.488
 110691455.390 8  86253130.16346  21063825.602                    21063833.895
 110270367.582 8  85925018.346 7  20983746.133                    20983753.332
 110938144.864 8  86445490.231 7  21110794.086                    21110802.102
 118446396.791 7  92296033.57644  22539572.383                    22539582.000
 121989482.045 7  95056692.52044  23213802.109                    23213811.723
 11  8 25  0 28  0.0000000  0  9G09G25G02G17G10G12G05G04G30
 128814894.340 6 100375294.31143  24512675.734                    24512689.551
 121935579.647 7  95014790.749 7  23203569.992                    23203581.148
 108912906.750 8  84867366.71946  20725398.688                    20725404.379
 124852562.919 7  97287815.697 6  23758650.539                    23758661.219
 110727390.077 8  86281131.23046  21070663.844                    21070672.156
 110235433.870 8  85897797.281 7  20977098.539                    20977105.648
 110869917.568 8  86392326.164 7  21097810.438                    21097818.711
 118527257.724 7  92359042.08644  22554959.547                    22554968.840
 121903608.348 7  94989778.04144  23197461.594                    23197470.547
 11  8 25  0 28 30.0000000  0  9G09G25G02G17G10G12G05G04G30
 128896055.907 6 100438536.81743  24528119.961                    24528134.531
 121849277.029 7  94947542.005 7  23187146.938                    23187158.355
 108926719.488 8  84878129.90946  20728027.414                    20728032.594
 124913585.137 6  97335365.368 6  23770262.195                    23770273.781
 110763919.722 8  86309595.90646  21077615.055                    21077623.051
 110201033.068 8  85870991.473 7  20970552.195                    20970559.313
 110802143.335 8  86339515.128 7  21084913.422                    21084921.879
 118608154.694 7  92422078.65944  22570353.758                    22570363.176
 121818108.531 7  94923154.85944  23181191.492                    23181200.594
 11  8 25  0 29  0.0000000  0  9G09G25G02G17G10G12G05G04G30
 128977201.287 6 100501766.72943  24543562.070                    24543576.371
 121763292.282 7  94880540.941 7  23170784.633                    23170795.805
 108940747.395 8  84889060.74646  20730696.766                    20730702.500
 124974792.250 6  97383059.196 6  23781910.242                    23781919.895
 110801042.834 8  86338523.02046  21084679.266                    21084687.699
 110167166.785 8  85844602.170 7  20964107.391                    20964114.875
 110734824.175 8  86287058.705 7  21072102.938                    21072111.406
 118689086.492 7  92485142.37444  22585755.078                    22585764.277
 121732985.370 7  94856825.19844  23164992.211                    23165001.297
 11  8 25  0 29 30.0000000  0  9G09G25G02G17G10G12G05G04G30
 129058327.357 6 100564981.55242  24558999.039                    24559014.105
 121677628.279 7  94813789.804 7  23154483.445                    23154494.395
 108954989.606 8  84900158.57746  20733406.633                    20733412.539
 125036184.718 6  97430897.492 6  23793592.492                    23793603.273
 110838758.673 8  86367911.99146  21091856.414                    21091864.367
 110133836.604 8  85818630.617 7  20957765.023                    20957772.289
 110667962.664 8  86234958.885 7  21059379.727                    21059387.676
 118770052.006 7  92548232.35044  22601161.820                    22601171.410
 121648241.741 7  94790791.26844  23148866.219                    23148875.215
 11  8 25  0 30  0.0000000  0  9G09G25G02G17G10G12G05G04G30
 129139430.957 6 100628178.90042  24574433.156                    24574447.340
 121592287.187 7  94747290.278 7  23138243.750                    23138254.781
 108969444.135 8  84911421.84946  20736157.477                    20736162.535
 125097762.810 6  97478880.256 6  23805310.750                    23805322.297
 110877065.116 8  86397761.16346  21099146.063                    21099154.406
 110101043.549 8  85793077.595 7  20951524.688                    20951531.582
 110601560.554 8  86183217.038 7  21046744.000                    21046751.938
 118851049.350 7  92611347.13844  22616575.539                    22616585.043
 121563879.879 7  94725054.80044  23132813.109                    23132821.824
 11  8 25  0 30 30.0000000  0  9G09G25G02G17G10G12G05G04G30
 129220509.055 6 100691356.44043  24589861.633                    24589875.887
 121507271.950 7  94681044.653 7  23122066.141                    23122076.898
 108984110.285 8  84922850.03146  20738948.453                    20738954.082
 125159526.832 6  97527008.047 6  23817064.953                    23817075.047
 110915961.195 8  86428069.80546  21106547.430                    21106555.730
 110068789.600 8  85767944.658 7  20945386.656                    20945394.172
 110535620.465 8  86131835.210 7  21034196.102                    21034203.930
 118932077.217 7  92674485.70844  22631994.656                    22632003.320
 121479902.788 7  94659618.17944  23116832.813                    23116841.707
 11  8 25  0 31  0.0000000  0  9G09G25G02G17G10G12G05G04G30
 129301558.817 7 100754511.88243  24605285.688                    24605299.395
 121422585.241 7  94615055.033 7  23105949.977                    23105960.895
 108998986.805 8  84934442.13746  20741778.945                    20741784.750
 125221477.101 6  97575280.977 6  23828851.977                    23828862.496
 110955445.327 8  86458836.66245  21114061.219                    21114069.391
 110037076.290 8  85743232.989 7  20939351.875                    20939359.270
 110470144.113 8  86080814.732 7  21021735.930                    21021743.973
 119013134.554 7  92737647.23444  22647419.250                    22647428.344
 121396313.104 7  94594483.41144  23100925.563                    23100934.797
 11  8 25  0 31 30.0000000  0  9G09G25G02G17G10G12G05G04G30
 129382576.784 7 100817642.47143  24620702.992                    24620717.973
 121338229.590 7  94549323.374 6  23089897.883                    23089909.207
 109014072.556 8  84946197.26446  20744650.180                    20744655.320
 125283613.958 6  97623699.215 6  23840676.719                    23840687.469
 110995515.667 8  86490060.30645  21121686.445                    21121694.492
 110005904.216 8  85718943.062 7  20933420.156                    20933427.438
 110405133.953 8  86030157.525 7  21009364.648                    21009373.297
 119094219.808 7  92800830.52044  22662849.523                    22662858.695
 121313113.501 7  94529652.60244  23085093.039                    23085102.285
 11  8 25  0 32  0.0000000  0  9G09G25G02G17G10G12G05G04G30
 129463560.319 7 100880746.23043  24636113.531                    24636129.172
 121254207.589 7  94483851.709 6  23073908.719                    23073920.102
 109029366.096 8  84958114.31646  20747560.125                    20747565.836
 125345937.495 7  97672262.971 6  23852537.961                    23852547.750
 111036170.789 8  86521739.63045  21129422.750                    21129431.090
 109975275.291 8  85695076.376 7  20927591.695                    20927598.875
 110340591.827 8  85979865.019 7  20997082.695                    20997090.949
 119175331.424 7  92864034.35744  22678284.383                    22678293.738
 121230306.599 7  94465127.78944  23069336.109                    23069344.313
 11  8 25  0 32 30.0000000  0  9G09G25G02G17G10G12G05G04G30
 129544506.346 6 100943820.71743  24651517.570                    24651533.297
 121170521.973 7  94418642.153 6  23057984.250                    23057995.105
 109044866.673 8  84970192.69146  20750509.891                    20750515.855
 125408447.935 6  97720972.339 6  23864430.773                    23864443.930
 111077409.112 8  86553873.37646  21137270.227                    21137278.625
 109945190.809 8  85671633.921 7  20921866.789                    20921874.180
 110276520.397 8  85929939.285 7  20984890.195                    20984898.793
 119256468.229 7  92927257.82144  22693723.859                    22693733.840
 121147895.093 7  94400911.07144  23053653.242                    23053662.383
 11  8 25  0 33  0.0000000  0  9G09G25G02G17G10G12G05G04G30
 129625411.755 7 101006863.50443  24666913.406                    24666928.492
 121087175.303 7  94353696.733 7  23042124.289                    23042134.738
 109060572.852 8  84982431.28046  20753498.719                    20753504.461
 125471145.779 6  97769827.724 6  23876362.805                    23876373.023
 111119229.364 8  86586460.58245  21145228.008                    21145236.344
 109915652.452 8  85648617.018 7  20916245.875                    20916253.055
 110212921.555 8  85880381.809 7  20972787.953                    20972796.379
 119337629.066 7  92990499.98345  22709168.539                    22709177.934
 121065881.722 7  94337004.57944  23038046.617                    23038055.762
 11  8 25  0 33 30.0000000  0  9G09G25G02G17G10G12G05G04G30
 129706273.635 6 101069872.42743  24682301.406                    24682316.199
 121004170.264 7  94289017.514 7  23026328.250                    23026339.066
 109076483.484 8  84994829.17746  20756526.344                    20756532.102
 125534031.276 6  97818829.380 6  23888330.836                    23888339.844
 111161629.661 8  86619499.76945  21153296.594                    21153305.094
 109886661.282 8  85626026.496 7  20910729.125                    20910736.180
 110149797.467 8  85831194.262 7  20960775.969                    20960784.383
 119418812.345 7  93053759.63144  22724617.180                    22724626.887
 120984268.981 7  94273410.26244  23022516.109                    23022525.246
 11  8 25  0 34  0.0000000  0  9G09G25G02G17G10G12G05G04G30
 129787088.935 7 101132845.03143  24697680.898                    24697695.906
 120921509.422 7  94224606.526 7  23010598.391                    23010609.328
 109092597.466 8  85007385.53046  20759592.766                    20759598.070
 125597104.561 7  97867977.380 6  23900333.297                    23900342.938
 111204608.684 8  86652989.90945  21161475.578                    21161483.398
 109858218.968 8  85603863.652 7  20905316.563                    20905323.777
 110087150.091 8  85782378.177 7  20948854.523                    20948862.551
 119500016.993 7  93117035.94344  22740070.070                    22740079.492
 120903059.626 7  94210130.27644  23007062.500                    23007071.781
 11  8 25  0 34 30.0000000  0  9G09G25G02G17G10G12G05G04G30
 129867854.341 6 101195778.80343  24713049.555                    24713065.281
 120839195.198 7  94160465.622 7  22994934.742                    22994945.395
 109108913.414 8  85020099.26446  20762697.141                    20762703.219
 125660365.967 6  97917271.953 6  23912370.461                    23912381.605
 111248164.210 8  86686929.28345  21169763.664                    21169771.762
 109830325.899 8  85582128.793 7  20900008.789                    20900015.988
 110024981.671 8  85733935.316 7  20937024.031                    20937032.129
 119581241.406 7  93180327.63944  22755526.766                    22755535.758
 120822256.007 7  94147166.43544  22991686.023                    22991694.715
 11  8 25  0 35  0.0000000  0  9G09G25G02G17G10G12G05G04G30
 129948567.008 7 101258671.50144  24728409.281                    24728425.105
 120757230.375 7  94096596.981 6  22979337.039                    22979347.770
 109125430.247 8  85032969.54246  20765840.555                    20765846.254
 125723815.711 6  97966713.256 6  23924443.930                    23924456.438
 111292294.667 8  86721316.65245  21178161.273                    21178169.293
 109802983.881 8  85560823.318 7  20894805.539                    20894813.027
 109963294.198 8  85685867.211 7  20925284.984                    20925293.430
 119662484.413 7  93243633.86144  22770986.680                    22770995.836
 120741860.978 7  94084520.96944  22976387.711                    22976396.250
 11  8 25  0 35 30.0000000  0  9G09G25G02G17G10G12G05G04G30
 130029224.102 6 101321520.80543  24743758.039                    24743774.063
 120675617.512 7  94033002.598 7  22963806.789                    22963817.563
 109142146.817 8  85045995.44246  20769021.773                    20769027.492
 125787454.008 6  98016301.458 6  23936555.313                    23936565.453
 111336998.632 8  86756150.91745  21186668.297                    21186676.430
 109776194.174 8  85539948.221 7  20889707.609                    20889714.730
 109902089.578 8  85638175.349 7  20913638.391                    20913646.734
 119743744.832 7  93306953.62944  22786449.703                    22786459.461
 120661877.150 7  94022195.94644  22961166.906                    22961176.355
 11  8 25  0 36  0.0000000  0  9G09G25G02G17G10G12G05G04G30
 130109822.813 6 101384324.67344  24759095.914                    24759111.848
 120594359.107 7  93969684.428 7  22948343.906                    22948354.594
 109159061.797 8  85059175.95946  20772240.430                    20772245.949
 125851280.997 7  98066036.799 5  23948701.555                    23948709.219
 111382274.362 8  86791430.70445  21195284.109                    21195291.938
 109749957.981 8  85519504.441 7  20884715.125                    20884722.324
 109841369.931 8  85590861.398 7  20902083.648                    20902091.973
 119825021.188 7  93370285.80744  22801916.305                    22801925.672
 120582306.999 7  93960193.24844  22946025.398                    22946034.129
 11  8 25  0 36 30.0000000  0  9G09G25G02G17G10G12G05G04G30
 130190359.991 6 101447080.55343  24774420.969                    24774438.309
 120513457.606 8  93906644.349 7  22932948.797                    22932959.469
 109176173.922 8  85072510.08746  20775496.641                    20775502.469
 125915297.015 6  98115919.440 6  23960881.773                    23960892.258
 111428119.669 8  86827154.32745  21204007.734                    21204016.156
 109724276.544 8  85499492.939 7  20879828.133                    20879835.461
 109781137.131 8  85543926.805 7  20890622.078                    20890630.137
 119906312.161 7  93433629.37544  22817385.391                    22817395.230
 120503153.052 7  93898514.87144  22930963.242                    22930971.570
 11  8 25  0 37  0.0000000  0  9G09G25G02G17G10G12G05G04G30
 130270832.825 6 101509786.21243  24789735.914                    24789751.688
 120432915.734 7  93843884.519 7  22917622.047                    22917632.961
 109193482.347 8  85085997.18446  20778790.414                    20778796.535
 125979502.142 6  98165949.317 6  23973100.477                    23973111.227
 111474533.269 8  86863320.77446  21212840.719                    21212848.555
 109699151.004 8  85479914.600 7  20875046.789                    20875054.336
 109721393.098 8  85497373.063 7  20879252.820                    20879261.055
 119987616.632 7  93496983.47844  22832856.992                    22832866.793
 120424418.005 7  93837162.90444  22915979.836                    22915988.770
 11  8 25  0 37 30.0000000  0  9G09G25G02G17G10G12G05G04G30
 130351238.285 6 101572439.53843  24805036.586                    24805052.195
 120352736.455 7  93781407.225 7  22902364.367                    22902375.203
 109210986.357 8  85099636.67846  20782121.375                    20782126.820
 126043896.744 6  98216126.902 6  23985354.672                    23985365.000
 111521513.432 8  86899928.69646  21221780.500                    21221788.668
 109674582.947 8  85460770.671 7  20870371.695                    20870378.813
 109662140.370 8  85451202.160 7  20867977.516                    20867985.594
 120068933.870 7  93560347.51744  22848331.859                    22848341.363
 120346104.707 7  93776139.59844  22901077.008                    22901086.742
 11  8 25  0 38  0.0000000  0  9G09G25G02G17G10G12G05G04G30
 130431573.013 6 101635037.54243  24820324.086                    24820340.445
 120272921.609 7  93719213.914 7  22887176.375                    22887187.512
 109228683.238 8  85113426.46946  20785488.750                    20785494.496
 126108480.764 6  98266452.156 6  23997643.703                    23997653.531
 111569057.826 8  86936976.28645  21230827.930                    21230836.125
 109650572.474 8  85442061.227 7  20865802.664                    20865809.770
 109603380.148 8  85405415.024 7  20856795.203                    20856803.355
 120150261.671 7  93623719.80144  22863808.109                    22863817.313
 120268215.134 7  93715446.48544  22886255.602                    22886264.387
 11  8 25  0 38 30.0000000  0  9G09G25G02G17G10G12G05G04G30
 130511834.632 6 101697578.74043  24835598.547                    24835613.336
 120193474.351 7  93657307.022 7  22872058.039                    22872068.207
 109246573.573 8  85127367.01046  20788893.070                    20788898.871
 126173254.716 6  98316925.296 6  24009970.031                    24009981.688
 111617165.187 8  86974462.56145  21239982.023                    21239990.559
 109627121.727 8  85423787.927 7  20861340.086                    20861347.313
 109545114.779 8  85360013.488 7  20845708.094                    20845716.316
 120231599.795 7  93687100.11544  22879285.984                    22879295.305
 120190752.400 7  93655085.94844  22871515.047                    22871524.145
 11  8 25  0 39  0.0000000  0  9G09G25G02G17G10G12G05G04G30
 130592020.281 5 101760060.71442  24850855.422                    24850872.055
 120114396.951 7  93595688.342 7  22857010.031                    22857020.492
 109264655.439 8  85141456.78346  20792334.273                    20792339.820
 126238218.574 6  98367546.419 6  24022333.742                    24022344.578
 111665833.134 8  87012385.65146  21249243.273                    21249251.422
 109604231.292 8  85405951.244 7  20856984.336                    20856991.477
 109487346.108 8  85314998.994 7  20834714.930                    20834723.168
 120312946.572 7  93750487.18244  22894765.859                    22894775.246
 120113718.809 7  93595059.83544  22856855.875                    22856865.023
 11  8 25  0 39 30.0000000  0  9G09G25G02G17G10G12G05G04G30
 130672127.043 6 101822481.23743  24866100.352                    24866116.805
 120035692.018 7  93534359.881 7  22842032.617                    22842043.094
 109282927.776 8  85155694.97946  20795811.500                    20795816.910
 126303372.743 6  98418315.887 6  24034731.328                    24034741.852
 111715059.908 7  87050744.18645  21258610.852                    21258619.129
 109581902.323 8  85388552.060 7  20852735.109                    20852742.480
 109430075.903 8  85270372.906 7  20823817.055                    20823824.965
 120394300.857 7  93813880.09544  22910246.570                    22910256.543
 120037116.878 7  93535370.07244  22842279.406                    22842288.223
 11  8 25  0 40  0.0000000  0  8G25G02G17G10G12G05G04G30
 119957362.815 7  93473324.217 7  22827126.914                    22827137.625
 109301390.361 8  85170081.42046  20799324.492                    20799330.391
 126368718.208 6  98469234.412 6  24047166.117                    24047176.355
 111764844.542 7  87089537.42445  21268084.914                    21268093.105
 109560136.712 8  85371591.856 7  20848593.445                    20848600.414
 109373307.046 8  85226137.483 7  20813014.227                    20813021.906
 120475661.942 7  93877278.31544  22925729.469                    22925738.684
 119960949.857 7  93476019.22145  22827784.531                    22827793.855
 11  8 25  0 40 30.0000000  0  8G25G02G17G10G12G05G04G30
 119879410.699 7  93412582.355 7  22812293.336                    22812303.430
 109320040.567 8  85184614.05546  20802873.469                    20802878.957
 126434253.976 6  98520301.184 6  24059637.477                    24059647.727
 111815183.857 8  87128762.86846  21277663.930                    21277672.352
 109538934.389 8  85355070.581 7  20844558.367                    20844565.605
 109317040.030 8  85182293.103 7  20802306.852                    20802314.879
 120557027.875 7  93940680.30944  22941212.664                    22941222.395
 119885219.074 7  93417008.27944  22813373.547                    22813382.797
 11  8 25  0 41  0.0000000  0  8G25G02G17G10G12G05G04G30
 119801838.521 7  93352136.554 7  22797531.750                    22797542.301
 109338877.546 8  85199292.22246  20806458.133                    20806463.816
 126499980.044 6  98571516.262 6  24072144.227                    24072155.051
 111866076.312 7  87168419.32845  21287348.102                    21287356.621
 109518296.389 8  85338989.045 7  20840631.359                    20840638.520
 109261277.145 8  85138841.562 7  20791695.477                    20791703.652
 120638397.831 7  94004085.44044  22956697.656                    22956706.613
 119809927.421 7  93358339.55244  22799046.156                    22799054.984
 11  8 25  0 41 30.0000000  0  8G25G02G17G10G12G05G04G30
 119724648.486 7  93291988.528 7  22782843.078                    22782853.727
 109357899.977 8  85214114.90546  20810078.320                    20810083.488
 126565896.644 6  98622879.784 6  24084687.719                    24084698.785
 111917519.676 8  87208505.07346  21297137.805                    21297146.164
 109498223.576 8  85323347.905 7  20836811.617                    20836819.012
 109206020.074 8  85095784.148 8  20781180.328                    20781188.590
 120719770.225 7  94067492.44844  22972182.164                    22972191.301
 119735077.064 7  93300014.65644  22784802.375                    22784810.992
 11  8 25  0 42  0.0000000  0  8G25G02G17G10G12G05G04G30
 119647843.636 7  93232140.643 7  22768227.594                    22768238.055
 109377107.264 8  85229081.62646  20813733.016                    20813738.840
 126632004.147 7  98674392.103 6  24097268.289                    24097278.496
 111969512.357 8  87249018.85045  21307031.539                    21307039.801
 109478717.507 8  85308148.386 7  20833099.773                    20833107.000
 109151270.574 8  85053122.245 8  20770761.695                    20770770.113
 120801144.437 7  94130900.90244  22987666.648                    22987676.102
 119660670.869 7  93242035.85944  22770643.211                    22770652.316
 11  8 25  0 42 30.0000000  0  8G25G02G17G10G12G05G04G30
 119571426.233 7  93172594.668 7  22753685.813                    22753696.633
 109396498.193 8  85244191.44746  20817423.148                    20817428.512
 126698302.655 6  98726053.215 6  24109883.508                    24109894.617
 112022051.837 7  87289958.71445  21317029.664                    21317037.785
 109459778.606 8  85293390.811 7  20829495.555                    20829502.945
 109097030.307 8  85010857.149 8  20760440.164                    20760448.090
 120882518.916 7  94194309.58144  23003151.664                    23003161.145
 119586711.154 7  93184404.99344  22756569.344                    22756578.160
 11  8 25  0 43  0.0000000  0  8G25G02G17G10G12G05G04G30
 119495398.558 7  93113352.353 7  22739218.094                    22739228.398
 109416071.216 8  85259443.15846  20821147.547                    20821153.336
 126764792.200 6  98777863.209 6  24122536.031                    24122547.641
 112075136.230 7  87331323.18145  21327131.203                    21327139.473
 109441407.895 8  85279075.995 7  20825999.641                    20826007.203
 109043301.011 8  84968990.214 7  20750215.820                    20750223.645
 120963892.611 7  94257717.62644  23018637.273                    23018646.215
 119513200.239 7  93127123.81944  22742579.969                    22742589.328
 11  8 25  0 43 30.0000000  0  8G25G02G17G10G12G05G04G30
 119419763.309 7  93054415.826 7  22724824.906                    22724835.516
 109435825.494 8  85274836.09946  20824906.609                    20824912.629
 126831472.939 6  98829822.182 6  24135225.641                    24135236.559
 112128763.835 8  87373110.92645  21337336.148                    21337344.418
 109423606.250 8  85265204.597 7  20822612.211                    20822619.621
 108990084.782 8  84927523.067 7  20740089.133                    20740096.977
 121045264.569 7  94321124.33544  23034121.219                    23034130.113
 119440140.605 7  93070194.29644  22728677.406                    22728686.152
 11  8 25  0 44  0.0000000  0  8G25G02G17G10G12G05G04G30
 119344522.972 7  92995787.028 7  22710506.867                    22710517.406
 109455759.933 8  85290369.43946  20828700.148                    20828705.973
 126898344.981 6  98881930.211 6  24147950.961                    24147961.566
 112182932.582 8  87415320.32245  21347643.984                    21347652.324
 109406374.491 8  85251777.261 7  20819333.484                    20819340.465
 108937383.112 8  84886456.866 7  20730060.266                    20730068.352
 121126633.720 7  94384528.85344  23049605.664                    23049614.488
 119367534.856 7  93013618.43144  22714861.055                    22714869.789
 11  8 25  0 44 30.0000000  0  8G25G02G17G10G12G05G04G30
 119269680.107 7  92937467.941 7  22696265.055                    22696275.656
 109475873.525 8  85306042.36246  20832527.875                    20832533.559
 126965408.546 6  98934187.523 6  24160711.766                    24160723.723
 112237640.403 8  87457949.78445  21358054.438                    21358062.879
 109389713.607 8  85238794.769 7  20816162.656                    20816169.875
 108885197.838 8  84845793.061 8  20720129.469                    20720137.527
 121207998.896 7  94447930.28144  23065088.492                    23065098.141
 119295385.346 7  92957398.08744  22701131.969                    22701140.125
 11  8 25  0 45  0.0000000  0  8G25G02G17G10G12G05G04G30
 119195236.911 7  92879460.283 7  22682099.188                    22682109.395
 109496164.945 8  85321853.87046  20836388.883                    20836394.559
 127032663.461 6  98986593.903 6  24173511.188                    24173522.125
 112292884.754 8  87500997.31245  21368567.547                    21368575.852
 109373624.220 8  85226257.592 7  20813101.297                    20813108.285
 108833530.378 8  84805532.746 7  20710297.711                    20710305.551
 121289359.037 7  94511327.76944  23080570.492                    23080580.363
 119223694.308 7  92901535.01744  22687489.359                    22687498.207
 11  8 25  0 45 30.0000000  0  8G25G02G17G10G12G05G04G30
 119121195.878 7  92821765.989 7  22668009.656                    22668019.727
 109516633.132 8  85337803.10746  20840284.078                    20840289.867
 127100110.007 6  99039149.637 6  24186345.508                    24186356.281
 112348663.806 8  87544461.50345  21379181.594                    21379189.590
 109358107.196 8  85214166.414 7  20810148.078                    20810155.371
 108782382.406 8  84765677.221 8  20700564.523                    20700572.391
 121370713.043 7  94574720.46944  23096051.844                    23096062.191
 119152464.107 7  92846031.01344  22673934.094                    22673943.336
 11  8 25  0 46  0.0000000  0  8G25G02G17G10G12G05G04G30
 119047559.499 7  92764387.006 7  22653997.156                    22654007.246
 109537276.954 8  85353889.20246  20844212.141                    20844217.992
 127167748.276 6  99091854.747 6  24199216.406                    24199227.152
 112404975.388 8  87588340.64545  21389897.273                    21389905.789
 109343163.287 8  85202521.822 7  20807304.422                    20807311.660
 108731755.664 8  84726227.854 8  20690930.344                    20690938.570
 121452059.766 7  94638107.48244  23111531.992                    23111541.984
 119081697.256 7  92790888.05644  22660468.078                    22660476.277
 11  8 25  0 46 30.0000000  0  8G25G02G17G10G12G05G04G30
 118974329.961 7  92707325.062 7  22640061.500                    22640072.352
 109558095.043 8  85370111.08046  20848173.680                    20848179.832
 127235578.111 6  99144709.128 6  24212124.461                    24212134.887
 112461817.034 8  87632632.83445  21400713.945                    21400722.430
 109328793.027 8  85191324.223 7  20804570.063                    20804577.016
 108681651.661 8  84687185.814 8  20681395.797                    20681404.035
 121533398.023 7  94701487.93444  23127010.047                    23127020.313
 119011395.738 7  92736107.69144  22647089.836                    22647098.371
 11  8 25  0 47  0.0000000  0  8G25G02G17G10G12G05G04G30
 118901509.979 7  92650582.233 7  22626204.641                    22626215.500
 109579086.583 8  85386468.12246  20852168.555                    20852174.156
 127303599.734 6  99197712.987 5  24225068.453                    24225078.723
 112519187.134 7  87677336.79845  21411631.250                    21411639.141
 109314997.081 8  85180574.147 7  20801945.063                    20801951.973
 108632071.943 8  84648552.309 7  20671961.234                    20671969.098
 121614727.000 7  94764861.14644  23142486.781                    23142496.207
 118941562.287 7  92681692.04445  22633801.031                    22633810.102
 11  8 25  0 47 30.0000000  0  8G25G02G17G10G12G05G04G30
 118829102.111 7  92594160.541 7  22612425.664                    22612436.570
 109600250.900 8  85402959.79346  20856195.891                    20856201.676
 127371813.325 6  99250866.444 6  24238049.898                    24238059.996
 112577083.445 8  87722450.80245  21422648.781                    21422656.813
 109301776.907 8  85170272.713 7  20799429.063                    20799436.020
 108583018.599 8  84610328.965 7  20662626.547                    20662634.313
 121696045.898 7  94828226.50844  23157960.742                    23157970.418
 118872199.331 7  92627643.02144  22620601.859                    22620610.477
 11  8 25  0 48  0.0000000  0  8G25G02G17G10G12G05G04G30
 118757108.709 7  92538061.800 7  22598725.711                    22598736.523
 109621586.713 8  85419585.10146  20860256.219                    20860261.531
 127440218.829 6  99304169.399 6  24251066.063                    24251077.047
 112635503.922 7  87767973.24045  21433765.844                    21433774.016
 109289132.908 8  85160420.254 7  20797022.617                    20797030.063
 108534492.615 8  84572516.558 8  20653392.516                    20653400.332
 121777353.543 7  94891583.10744  23173433.625                    23173442.813
 118803309.171 7  92573962.41744  22607491.969                    22607501.188
 11  8 25  0 48 30.0000000  0  8G25G02G17G10G12G05G04G30
 118685532.187 7  92482287.906 7  22585105.281                    22585115.793
 109643092.890 8  85436343.16146  20864348.367                    20864354.473
 127508816.143 6  99357621.855 6  24264119.398                    24264130.836
 112694446.091 8  87813902.19845  21444981.953                    21444990.434
 109277065.396 8  85151017.003 7  20794726.555                    20794733.539
 108486495.740 8  84535116.438 8  20644259.055                    20644266.645
 121858648.932 7  94954930.14844  23188903.789                    23188913.324
 118734894.051 7  92520651.95144  22594473.664                    22594481.621
 11  8 25  0 49  0.0000000  0  8G25G02G17G10G12G05G04G30
 118614374.443 7  92426840.334 7  22571564.422                    22571575.141
 109664767.872 8  85453232.75546  20868473.000                    20868478.539
 127577605.330 6  99411223.818 6  24277209.063                    24277220.242
 112753907.144 8  87860235.47645  21456296.711                    21456304.902
 109265574.849 8  85142063.330 7  20792540.094                    20792547.109
 108439029.137 8  84498129.513 8  20635226.195                    20635234.160
 121939930.865 7  95018266.69444  23204371.359                    23204380.309
 118666955.893 7  92467713.14945  22581545.078                    22581553.969
 11  8 25  0 49 30.0000000  0  8G25G02G17G10G12G05G04G30
 118543638.052 7  92371721.107 7  22558103.430                    22558114.391
 109686610.903 8  85470253.29546  20872629.469                    20872635.000
 127646586.451 6  99464975.270 6  24290336.320                    24290347.527
 112813885.112 8  87906971.55645  21467710.445                    21467718.871
 109254661.923 8  85133559.757 7  20790463.141                    20790470.371
 108392094.438 8  84461557.066 8  20626295.102                    20626302.719
 122021198.432 7  95081592.04644  23219835.805                    23219845.199
 118599497.155 7  92415147.92744  22568708.109                    22568716.652
 11  8 25  0 50  0.0000000  0  8G25G02G17G10G12G05G04G30
 118473325.654 7  92316932.258 7  22544723.734                    22544734.070
 109708621.191 8  85487404.16446  20876817.906                    20876823.418
 127715759.485 6  99518876.370 5  24303499.367                    24303510.703
 112874378.346 8  87954109.14545  21479222.117                    21479230.398
 109244327.550 8  85125506.992 7  20788496.859                    20788503.828
 108345693.359 8  84425400.418 7  20617464.953                    20617473.105
 122102450.923 7  95144905.62744  23235297.109                    23235306.820
 118532520.267 7  92362958.16544  22555962.578                    22555971.434
 11  8 25  0 50 30.0000000  0  8G25G02G17G10G12G05G04G30
 118403439.432 7  92262475.493 7  22531424.859                    22531435.156
 109730797.401 8  85504684.32046  20881037.867                    20881043.563
 127785124.300 6  99572926.802 6  24316698.953                    24316710.422
 112935383.886 8  88001645.93945  21490831.063                    21490839.219
 109234571.742 8  85117905.058 7  20786640.289                    20786647.449
 108299827.102 8  84389660.522 8  20608736.852                    20608744.672
 122183687.123 7  95208206.53744  23250756.531                    23250765.691
 118466027.420 7  92311145.56644  22543309.656                    22543318.355
 11  8 25  0 51  0.0000000  0  8G25G02G17G10G12G05G04G30
 118333981.518 7  92208352.481 7  22518207.133                    22518217.684
 109753138.268 8  85522092.77846  20885289.133                    20885295.078
 127854681.069 6  99627126.889 6  24329935.219                    24329947.082
 112996899.343 7  88049580.06245  21502536.859                    21502545.090
 109225395.103 8  85110754.432 7  20784893.984                    20784901.129
 108254496.959 8  84354338.377 8  20600111.180                    20600118.832
 122264905.866 7  95271493.81644  23266211.477                    23266220.941
 118400020.563 7  92259711.66444  22530748.719                    22530757.855
 11  8 25  0 51 30.0000000  0  8G25G02G17G10G12G05G04G30
 118264954.599 7  92154565.317 7  22505071.883                    22505082.734
 109775643.120 8  85539629.02346  20889572.188                    20889577.559
 127924429.980 7  99681476.689 6  24343208.820                    24343218.996
 113058923.313 7  88097910.42145  21514339.336                    21514348.047
 109216798.424 8  85104055.723 7  20783257.633                    20783265.445
 108209704.621 8  84319435.302 8  20591587.070                    20591595.000
 122346106.712 7  95334767.17744  23281663.805                    23281673.352
 118334502.305 7  92208658.49644  22518281.195                    22518289.801
 11  8 25  0 52  0.0000000  0  9G29G25G02G17G10G12G05G04G30
 129588446.48516 100978061.44315  24659868.227
 118196360.513 7  92101115.423 7  22492019.297                    22492029.430
 109798310.508 8  85557291.91546  20893885.258                    20893891.102
 127994370.595 6  99735975.819 6  24356517.242                    24356528.895
 113121452.421 7  88146634.39745  21526238.375                    21526246.832
 109208781.924 8  85097809.095 7  20781732.406                    20781739.391
 108165451.155 8  84284952.127 8  20583166.063                    20583174.066
 122427288.243 6  95398025.48643  23297111.766                    23297121.645
 118269474.384 7  92157987.40945  22505906.633                    22505915.660
 11  8 25  0 52 30.0000000  0  9G29G25G02G17G10G12G05G04G30
 129508607.245 6 100915849.118 5  24644676.211                    24644685.805
 118128202.193 7  92048005.094 7  22479049.344                    22479059.535
 109821139.883 8  85575081.02746  20898229.391                    20898235.234
 128064503.382 6  99790624.732 6  24369863.719                    24369874.793
 113184485.236 7  88195750.88545  21538232.859                    21538241.594
 109201346.476 8  85092015.238 7  20780317.781                    20780324.492
 108121738.286 8  84250890.186 8  20574847.586                    20574855.723
 122508450.102 6  95461268.46843  23312556.078                    23312565.949
 118204939.638 7  92107700.62244  22493626.359                    22493634.750
 11  8 25  0 53  0.0000000  0  9G29G25G02G17G10G12G05G04G30
 129428687.134 6 100853573.748 5  24629467.055                    24629477.848
 118060482.449 7  91995236.510 7  22466162.328                    22466172.742
 109844130.972 8  85592996.16446  20902604.898                    20902610.227
 128134829.066 6  99845423.900 6  24383246.516                    24383256.797
 113248019.780 7  88245258.31245  21550323.633                    21550332.043
 109194492.969 8  85086674.831 7  20779013.469                    20779020.742
 108078568.026 8  84217251.058 8  20566632.031                    20566640.516
 122589591.931 6  95524495.86243  23327997.289                    23328006.594
 118140900.635 7  92057800.12944  22481439.953                    22481448.426
 11  8 25  0 53 30.0000000  0  9G29G25G02G17G10G12G05G04G30
 129348685.892 6 100791235.179 5  24614244.422                    24614253.684
 117993202.618 7  91942810.712 7  22453359.195                    22453369.652
 109867281.616 8  85611035.62246  20907010.016                    20907015.715
 128205346.334 7  99900372.446 6  24396665.297                    24396676.398
 113312052.612 8  88295154.03145  21562508.352                    21562516.789
 109188220.871 8  85081787.480 7  20777819.852                    20777826.891
 108035940.485 8  84184034.833 8  20558520.813                    20558528.762
 122670711.836 6  95587706.14444  23343433.875                    23343443.563
 118077358.670 7  92008286.93645  22469348.531                    22469356.898
 11  8 25  0 54  0.0000000  0  9G29G25G02G17G10G12G05G04G30
 129268603.829 6 100728833.661 6  24599004.219                    24599014.699
 117926364.668 8  91890729.255 7  22440640.523                    22440650.793
 109890590.599 8  85629198.45846  20911445.625                    20911451.383
 128276055.097 7  99955470.135 6  24410121.023                    24410131.555
 113376581.186 8  88345436.03445  21574787.992                    21574796.176
 109182530.326 8  85077353.276 7  20776737.094                    20776744.223
 107993856.848 8  84151242.431 8  20550512.531                    20550520.023
 122751808.667 6  95650898.46844  23358866.656                    23358875.871
 118014315.576 7  91959162.47844  22457351.883                    22457360.488
 11  8 25  0 54 30.0000000  0  9G29G25G02G17G10G12G05G04G30
 129188441.706 6 100666369.728 6  24583750.602                    24583760.438
 117859971.055 7  91838994.020 7  22428006.117                    22428016.438
 109914056.939 8  85647483.91246  20915910.883                    20915916.582
 128346955.111 7 100010716.895 6  24423612.852                    24423623.621
 113441603.179 8  88396102.51745  21587161.438                    21587169.668
 109177421.717 8  85073372.533 7  20775764.781                    20775772.297
 107952318.456 8  84118874.894 8  20542607.727                    20542615.730
 122832881.647 6  95714072.18144  23374293.945                    23374303.594
 117951773.624 7  91910428.52745  22445450.195                    22445458.801
 11  8 25  0 55  0.0000000  0  9G29G25G02G17G10G12G05G04G30
 129108200.126 6 100603843.890 6  24568480.602                    24568490.934
 117794024.097 7  91787606.821 7  22415456.906                    22415467.078
 109937679.898 8  85665891.40546  20920406.680                    20920412.496
 128418046.667 7 100066112.917 6  24437140.977                    24437151.781
 113507116.299 8  88447151.69045  21599627.711                    21599636.090
 109172895.634 8  85069845.709 8  20774903.922                    20774910.910
 107911326.722 8  84086933.323 8  20534807.188                    20534815.238
 122913930.182 6  95777226.85744  23389717.094                    23389726.836
 117889735.009 7  91862086.78845  22433644.820                    22433653.441
 11  8 25  0 55 30.0000000  0  9G29G25G02G17G10G12G05G04G30
 129027879.607 7 100541256.560 6  24553196.313                    24553206.078
 117728525.609 7  91736569.086 7  22402992.289                    22403002.957
 109961457.860 8  85684419.67846  20924931.430                    20924937.078
 128489329.326 7 100121657.835 6  24450705.188                    24450716.367
 113573117.449 8  88498581.14845  21612187.602                    21612195.961
 109168952.134 8  85066772.847 7  20774153.336                    20774160.199
 107870882.822 8  84055418.623 8  20527110.984                    20527118.988
 122994952.950 7  95840361.42944  23405134.961                    23405144.973
 117828201.352 7  91814138.53445  22421935.344                    22421943.828
 11  8 25  0 56  0.0000000  0  9G29G25G02G17G10G12G05G04G30
 128947481.103 6 100478608.440 6  24537896.852                    24537907.234
 117663478.418 7  91685883.005 7  22390614.195                    22390624.855
 109985390.681 8  85703068.63946  20929485.477                    20929491.441
 128560803.357 6 100177351.927 6  24464306.281                    24464317.496
 113639605.183 8  88550389.75845  21624839.813                    21624847.996
 109165590.994 8  85064153.767 7  20773513.789                    20773520.563
 107830988.016 8  84024331.794 8  20519519.352                    20519526.980
 123075949.633 6  95903475.67744  23420548.656                    23420558.148
 117767175.388 7  91766585.88045  22410322.484                    22410330.648
 11  8 25  0 56 30.0000000  0  9G29G25G02G17G10G12G05G04G30
 128867004.797 6 100415899.729 6  24522582.789                    24522592.758
 117598884.606 7  91635550.212 7  22378322.750                    22378333.289
 110009477.204 8  85721837.36046  20934069.406                    20934074.680
 128632468.840 6 100233195.102 6  24477943.836                    24477955.289
 113706576.966 8  88602575.56145  21637584.141                    21637592.656
 109162813.349 8  85061989.358 7  20772985.055                    20772992.355
 107791643.356 8  83993673.648 8  20512032.227                    20512040.094
 123156919.411 7  95966568.92944  23435957.141                    23435966.176
 117706659.079 7  91719430.37045  22398806.609                    22398815.172
 11  8 25  0 57  0.0000000  0  9G29G25G02G17G10G12G05G04G30
 128786451.621 7 100353131.086 6  24507254.602                    24507264.066
 117534746.028 7  91585572.136 7  22366117.430                    22366127.539
 110033715.767 8  85740724.56346  20938681.555                    20938686.961
 128704325.146 6 100289187.021 6  24491617.719                    24491628.660
 113774029.603 8  88655136.06445  21650419.750                    21650428.531
 109160619.081 8  85060279.534 7  20772567.547                    20772574.758
 107752849.574 8  83963444.754 8  20504650.359                    20504658.066
 123237860.899 7  96029640.18044  23451359.500                    23451368.805
 117646653.994 7  91672673.20945  22387387.766                    22387396.422
 11  8 25  0 57 30.0000000  0  8G29G25G02G10G12G05G04G30
 128705822.890 6 100290303.585 6  24491911.102                    24491920.781
 117471065.534 7  91535951.008 7  22353999.070                    22354009.344
 110058106.373 8  85759730.23246  20943322.836                    20943328.508
 113841961.626 8  88708070.09945  21663346.938                    21663355.320
 109159008.662 8  85059024.660 7  20772261.117                    20772268.641
 107714608.819 8  83933646.797 8  20497373.219                    20497380.992
 123318774.268 7  96092689.49644  23466756.367                    23466766.207
 117587162.923 7  91626316.59245  22376067.016                    22376075.441
 11  8 25  0 58  0.0000000  0  8G29G25G02G10G12G05G04G30
 128625119.366 7 100227417.791 6  24476553.641                    24476563.172
 117407845.422 7  91486688.610 7  22341968.938                    22341979.336
 110082647.899 8  85778853.49546  20947992.961                    20947998.855
 113910370.488 8  88761375.68545  21676364.719                    21676372.844
 109157982.744 8  85058225.232 7  20772065.766                    20772072.945
 107676922.136 8  83904280.581 8  20490201.742                    20490209.551
 123399658.570 6  96155716.18243  23482148.117                    23482157.945
 117528187.929 7  91580362.09945  22364844.523                    22364852.992
 11  8 25  0 58 30.0000000  0  8G29G25G02G10G12G05G04G30
 128544340.672 7 100164473.436 6  24461181.742                    24461191.754
 117345087.140 7  91437786.084 7  22330026.555                    22330036.875
 110107338.790 8  85798093.15346  20952691.609                    20952697.039
 113979253.074 8  88815050.41245  21689473.070                    21689480.641
 109157540.408 8  85057880.547 7  20771981.672                    20771989.113
 107639789.735 8  83875346.262 8  20483135.477                    20483143.668
 123480512.394 6  96218719.12244  23497534.172                    23497543.844
 117469730.302 7  91534810.76545  22353720.141                    22353728.660
 11  8 25  0 59  0.0000000  0  8G29G25G02G10G12G05G04G30
 128463487.517 7 100101471.059 6  24445796.156                    24445805.324
 117282792.658 7  91389244.966 7  22318172.375                    22318182.340
 110132177.954 8  85817448.34946  20957418.352                    20957423.961
 114048606.380 8  88869091.94145  21702670.406                    21702678.387
 109157681.871 8  85057990.781 7  20772008.500                    20772015.961
 107603212.902 8  83846844.863 8  20476175.258                    20476182.906
 123561334.698 6  96281697.49444  23512914.008                    23512924.047
 117411791.770 7  91489663.90045  22342694.781                    22342702.977
 11  8 25  0 59 30.0000000  0  8G29G25G02G10G12G05G04G30
 128382560.889 6 100038411.422 6  24430395.766                    24430405.785
 117220964.261 7  91341067.013 7  22306406.430                    22306416.898
 110157164.752 8  85836918.58246  20962173.383                    20962178.473
 114118428.371 8  88923498.68245  21715957.055                    21715965.520
 109158406.916 8  85058555.747 7  20772146.570                    20772153.871
 107567192.499 8  83818777.049 8  20469320.836                    20469328.629
 123642125.113 6  96344651.03744  23528287.758                    23528298.035
 117354374.518 7  91444923.22145  22331768.875                    22331777.281
 11  8 25  1  0  0.0000000  0  8G29G25G02G10G12G05G04G30
 128301561.446 6  99975295.064 6  24414982.156                    24414991.309
 117159604.216 7  91293253.995 7  22294730.195                    22294740.355
 110182298.197 8  85856503.09746  20966955.727                    20966961.441
 114188716.619 8  88978268.73645  21729332.164                    21729340.672
 109159716.182 8  85059575.940 7  20772395.688                    20772403.074
 107531729.526 8  83791143.588 8  20462572.508                    20462580.285
 123722882.711 7  96407579.00544  23543656.320                    23543665.762
 117297480.537 7  91400590.29645  22320942.438                    22320950.297
 11  8 25  1  0 30.0000000  0  8G29G25G02G10G12G05G04G30
 128220489.758 6  99912122.381 6  24399555.023                    24399564.270
 117098714.591 8  91245807.543 7  22283143.234                    22283153.898
 110207577.371 8  85876201.15446  20971766.523                    20971772.016
 114259468.607 8  89033400.14445  21742795.742                    21742804.309
 109161609.650 7  85061051.367 7  20772756.016                    20772763.816
 107496825.299 8  83763945.521 8  20455929.836                    20455938.477
 123803606.988 7  96470481.01744  23559017.352                    23559027.184
 117241111.785 7  91356666.62445  22310215.438                    22310223.633
 11  8 25  1  1  0.0000000  0  8G29G25G02G10G12G05G04G30
 128139346.484 6  99848893.933 6  24384113.125                    24384123.105
 117038297.136 7  91198729.025 7  22271646.406                    22271656.418
 110233001.004 8  85896011.77846  20976604.180                    20976610.188
 114330681.004 7  89088890.31345  21756347.102                    21756355.480
 109164086.864 8  85062981.656 7  20773227.508                    20773234.477
 107462480.333 8  83737183.240 8  20449394.656                    20449402.293
 123884296.836 7  96533356.18843  23574372.367                    23574381.672
 117185269.802 7  91313153.43045  22299589.383                    22299597.785
 11  8 25  1  1 30.0000000  0  8G29G25G02G10G12G05G04G30
 128058132.331 6  99785610.268 6  24368658.250                    24368668.547
 116978354.221 8  91152020.266 7  22260239.570                    22260249.992
 110258568.223 8  85915934.28446  20981469.563                    20981475.027
 114402351.743 7  89144737.62445  21769985.773                    21769994.059
 109167147.829 8  85065366.821 7  20773809.680                    20773817.000
 107428695.608 8  83710857.510 8  20442965.609                    20442972.945
 123964951.681 7  96596204.08443  23589720.063                    23589729.590
 117129956.670 7  91270052.32045  22289063.516                    22289071.340
 11  8 25  1  2  0.0000000  0  8G29G25G02G10G12G05G04G30
 127976848.116 6  99722272.027 6  24353190.891                    24353200.559
 116918887.797 8  91105682.809 7  22248923.266                    22248933.961
 110284278.304 8  85935968.11146  20986361.969                    20986367.262
 114474478.231 8  89200940.06145  21783711.063                    21783719.020
 109170792.588 8  85068206.892 7  20774503.555                    20774511.031
 107395472.271 8  83684969.228 8  20436643.500                    20436650.660
 124045570.728 7  96659024.06743  23605061.133                    23605071.074
 117075174.188 7  91227364.69045  22278638.813                    22278646.492
 11  8 25  1  2 30.0000000  0  8G29G25G02G10G12G05G04G30
 127895494.762 6  99658879.859 6  24337709.828                    24337719.637
 116859899.963 8  91059718.271 7  22237698.555                    22237709.000
 110310130.227 8  85956112.46546  20991281.594                    20991287.121
 114547057.653 8  89257495.44545  21797522.445                    21797530.898
 109175021.138 8  85071501.855 8  20775308.352                    20775315.367
 107362811.105 8  83659519.001 8  20430428.164                    20430435.359
 124126153.275 7  96721815.63243  23620395.883                    23620405.055
 117020924.203 7  91185091.98445  22268315.219                    22268323.293
 11  8 25  1  3  0.0000000  0  8G29G25G02G10G12G05G04G30
 127814072.645 6  99595434.112 5  24322215.727                    24322224.789
 116801392.541 7  91014128.077 7  22226564.859                    22226575.109
 110336122.917 8  85976366.50546  20996227.281                    20996233.254
 114620087.510 7  89314401.81645  21811419.625                    21811427.969
 109179833.264 8  85075251.555 7  20776224.008                    20776231.301
 107330712.741 8  83634507.321 8  20424320.117                    20424327.621
 124206698.568 7  96784578.16743  23635723.578                    23635732.391
 116967208.344 7  91143235.48745  22258093.430                    22258101.563
 11  8 25  1  3 30.0000000  0  8G29G25G02G10G12G05G04G30
 127732582.730 6  99531935.531 6  24306708.430                    24306718.273
 116743367.510 7  90968913.781 7  22215522.930                    22215533.500
 110362255.233 8  85996729.34846  21001200.602                    21001206.492
 114693565.074 8  89371657.04045  21825401.859                    21825410.273
 109185228.780 8  85079455.849 7  20777250.531                    20777257.953
 107299177.832 8  83609934.700 8  20418319.063                    20418326.938
 124287205.856 7  96847311.09843  23651042.906                    23651052.211
 116914028.409 7  91101796.60245  22247973.914                    22247981.855
 11  8 25  1  4  0.0000000  0  8G29G25G02G10G12G05G04G30
 127651025.964 6  99468384.869 6  24291188.734                    24291198.699
 116685827.104 8  90924077.108 7  22204573.383                    22204583.855
 110388526.859 8  86017200.74446  21006199.578                    21006205.617
 114767487.912 8  89429259.24245  21839469.047                    21839476.980
 109191207.682 8  85084114.721 7  20778388.180                    20778395.727
 107268207.646 8  83585802.115 8  20412425.438                    20412433.043
 124367674.655 7  96910014.04844  23666356.242                    23666366.070
 116861386.422 7  91060776.87745  22237956.023                    22237964.395
 11  8 25  1  4 30.0000000  0  8G29G25G02G10G12G05G04G30
 127569403.047 6  99404782.619 6  24275656.320                    24275665.980
 116628773.362 8  90879619.647 7  22193716.672                    22193726.461
 110414936.827 8  86037779.93446  21011225.289                    21011231.121
 114841853.495 8  89487206.43745  21853620.648                    21853628.566
 109197770.219 8  85089228.376 7  20779636.945                    20779644.688
 107237803.005 8  83562110.217 8  20406639.859                    20406647.586
 124448104.267 7  96972686.45244  23681661.406                    23681670.965
 116809284.141 7  91020177.71345  22228041.617                    22228049.590
 11  8 25  1  5  0.0000000  0  8G29G25G02G10G12G05G04G30
 127487714.420 6  99341129.174 6  24260111.680                    24260121.168
 116572207.670 7  90835542.494 7  22182952.492                    22182962.691
 110441483.512 8  86058465.65946  21016277.234                    21016282.652
 114916658.666 8  89545496.17045  21867855.023                    21867863.949
 109204915.166 8  85094795.854 7  20780996.922                    20781004.227
 107207963.994 8  83538859.072 8  20400961.219                    20400968.621
 124528493.685 7  97035327.52044  23696958.500                    23696968.746
 116757722.719 7  90979999.99445  22218229.180                    22218237.484
 11  8 25  1  5 30.0000000  0  8G29G25G02G10G12G05G04G30
 127405961.269 7  99277425.464 6  24244554.898                    24244563.582
 116516132.381 8  90791847.488 7  22172281.375                    22172291.422
 110468166.629 8  86079257.69546  21021354.617                    21021360.617
 114991900.837 8  89604126.42445  21882173.242                    21882181.895
 109212643.045 8  85100817.562 7  20782467.359                    20782474.559
 107178691.787 8  83516049.582 8  20395391.086                    20395399.004
 124608842.552 7  97097937.00044  23712248.570                    23712258.223
 116706704.220 7  90940245.33845  22208521.266                    22208528.996
 11  8 25  1  6  0.0000000  0  8G29G25G02G10G12G05G04G30
 127324144.429 6  99213672.083 6  24228985.641                    24228994.379
 116460549.521 8  90748536.180 7  22161704.328                    22161714.844
 110494985.421 8  86100155.45046  21026458.234                    21026464.168
 115067577.730 8  89663095.41945  21896573.984                    21896582.395
 109220953.178 8  85107292.976 7  20784048.703                    20784056.129
 107149987.283 8  83493682.466 8  20389928.703                    20389936.309
 124689150.376 7  97160514.50843  23727530.805                    23727540.813
 116656230.515 7  90900915.18245  22198916.328                    22198924.414
 11  8 25  1  6 30.0000000  0  8G29G25G02G10G12G05G04G30
 127242264.635 6  99149869.664 6  24213403.781                    24213413.535
 116405460.841 8  90705609.946 7  22151221.250                    22151231.359
 110521938.774 8  86121158.06046  21031587.023                    21031592.582
 115143686.470 7  89722400.90845  21911057.227                    21911065.570
 109229845.369 8  85114221.947 7  20785740.836                    20785748.133
 107121850.778 8  83471757.948 8  20384574.438                    20384582.508
 124769416.211 6  97223059.29643  23742804.906                    23742815.133
 116606303.023 7  90862010.66345  22189415.203                    22189423.371
 11  8 25  1  7  0.0000000  0  8G29G25G02G10G12G05G04G30
 127160322.643 6  99086018.798 6  24197811.477                    24197820.633
 116350868.025 8  90663070.109 7  22140832.750                    22140843.012
 110549025.466 8  86142264.57146  21036741.602                    21036747.777
 115220224.137 7  89782040.63645  21925621.789                    21925630.156
 109239319.260 8  85121604.185 7  20787543.633                    20787551.039
 107094282.824 8  83450276.452 8  20379328.492                    20379336.023
 124849639.319 6  97285570.78843  23758070.594                    23758080.625
 116556923.240 7  90823532.91145  22180018.539                    22180026.672
 11  8 25  1  7 30.0000000  0  8G29G25G02G10G12G05G04G30
 127078319.400 6  99022120.176 6  24182206.508                    24182215.211
 116296773.034 8  90620918.183 7  22130538.875                    22130549.113
 110576244.860 8  86163474.47846  21041921.344                    21041927.059
 115297188.065 7  89842012.53145  21940267.609                    21940275.840
 109249374.581 8  85129439.488 7  20789457.391                    20789464.750
 107067284.325 8  83429238.694 8  20374190.789                    20374198.668
 124929819.142 6  97348048.53743  23773328.578                    23773338.484
 116508092.873 7  90785483.29045  22170726.203                    22170734.648
 11  8 25  1  8  0.0000000  0  8G29G25G02G10G12G05G04G30
 126996255.539 6  98958174.338 6  24166589.992                    24166598.551
 116243177.746 8  90579155.637 7  22120339.711                    22120350.289
 110603596.048 8  86184787.08946  21047126.133                    21047132.070
 115374575.538 7  89902314.44345  21954993.781                    21955002.070
 109260010.711 8  85137727.368 7  20791481.266                    20791488.555
 107040855.701 8  83408644.983 8  20369161.375                    20369168.934
 125009955.130 7  97410492.16743  23788578.242                    23788587.852
 116459813.483 7  90747862.99145  22161538.969                    22161547.156
 11  8 25  1  8 30.0000000  0  8G29G25G02G10G12G05G04G30
 126914131.921 6  98894181.946 6  24150962.742                    24150972.207
 116190084.147 8  90537784.024 7  22110236.836                    22110246.805
 110631078.333 8  86206201.84846  21052355.664                    21052361.621
 115452384.039 7  89962944.42145  21969800.453                    21969808.773
 109271227.603 8  85146467.789 7  20793615.781                    20793622.742
 107014997.601 8  83388495.846 8  20364241.055                    20364248.738
 125090046.926 7  97472901.33343  23803819.070                    23803828.730
 116412086.880 7  90710673.44245  22152457.133                    22152465.129
 11  8 25  1  9  0.0000000  0  8G29G25G02G10G12G05G04G30
 126831949.608 6  98830143.857 6  24135324.055                    24135332.848
 116137493.842 8  90496804.581 7  22100228.797                    22100239.641
 110658690.717 8  86227717.99346  21057609.953                    21057615.539
 115530610.387 8  90023900.00745  21984686.320                    21984694.984
 109283024.668 8  85155660.295 7  20795860.602                    20795867.859
 106989710.562 8  83368791.682 8  20359429.125                    20359436.551
 125170093.563 7  97535275.31443  23819051.023                    23819061.176
 116364914.277 7  90673915.56645  22143480.305                    22143489.059
 11  8 25  1  9 30.0000000  0  8G29G25G02G10G12G05G04G30
 126749710.124 6  98766061.210 6  24119673.820                    24119683.523
 116085409.016 8  90456219.029 7  22090317.547                    22090328.094
 110686433.057 8  86249335.39546  21062889.461                    21062895.313
 115609252.363 7  90085179.47545  21999651.219                    21999659.820
 109295401.951 8  85165304.920 7  20798216.156                    20798223.348
 106964995.495 8  83349533.214 8  20354726.063                    20354734.086
 125250094.778 7  97597613.93644  23834274.891                    23834285.078
 116318297.639 7  90637590.92745  22134609.695                    22134617.992
 11  8 25  1 10  0.0000000  0  8G29G25G02G10G12G05G04G30
 126667413.943 6  98701934.404 6  24104013.492                    24104022.914
 116033831.435 8  90416028.726 7  22080502.766                    22080513.117
 110714304.153 8  86271053.12546  21068193.281                    21068198.840
 115688307.394 7  90146780.79445  22014694.922                    22014703.586
 109308358.705 8  85175401.088 7  20800681.797                    20800689.125
 106940852.508 8  83330720.515 8  20350131.664                    20350139.055
 125330050.067 7  97659916.77443  23849490.094                    23849500.059
 116272238.538 7  90601700.72645  22125844.367                    22125853.137
 11  8 25  1 10 30.0000000  0  8G29G25G02G10G12G05G04G30
 126585061.443 6  98637763.715 6  24088341.977                    24088350.891
 115982762.379 8  90376234.682 7  22070784.445                    22070794.750
 110742302.651 8  86292870.13046  21073521.344                    21073527.309
 115767772.245 8  90208701.42345  22029816.773                    22029825.344
 109321893.897 8  85185947.974 7  20803257.195                    20803264.641
 106917282.109 8  83312353.996 8  20345646.383                    20345653.859
 125409958.532 6  97722183.13244  23864695.695                    23864706.125
 116226737.908 7  90566245.69945  22117186.359                    22117194.633
 11  8 25  1 11  0.0000000  0  8G29G25G02G10G12G05G04G30
 126502653.718 6  98573549.986 6  24072660.484                    24072669.707
 115932203.832 8  90336838.432 7  22061163.422                    22061174.023
 110770427.992 8  86314785.97346  21078873.031                    21078879.098
 115847644.181 7  90270939.27445  22045016.078                    22045023.969
 109336007.267 8  85196945.394 7  20805942.844                    20805950.633
 106894284.712 8  83294433.975 8  20341269.961                    20341277.984
 125489819.789 6  97784412.66843  23879893.195                    23879903.070
 116181797.414 7  90531227.15145  22108634.289                    22108642.613
 11  8 25  1 11 30.0000000  0  8G29G25G02G10G12G05G04G30
 126420191.915 6  98509294.138 6  24056968.750                    24056977.668
 115882157.359 8  90297841.207 7  22051639.711                    22051650.102
 110798679.170 8  86336799.86946  21084249.523                    21084254.898
 115927920.314 7  90333492.09445  22060291.828                    22060300.418
 109350698.224 8  85208392.884 7  20808738.539                    20808745.840
 106871860.394 8  83276960.507 8  20337002.695                    20337010.313
 125569633.055 7  97846604.81343  23895081.031                    23895091.316
 116137418.360 7  90496646.08245  22100189.531                    22100197.598
 11  8 25  1 12  0.0000000  0  8G29G25G02G10G12G05G04G30
 126337676.445 6  98444996.461 6  24041265.891                    24041275.277
 115832624.297 8  90259244.041 7  22042214.188                    22042224.605
 110827054.932 8  86358910.84346  21089648.961                    21089654.895
 116008597.589 7  90396357.49245  22075644.383                    22075652.574
 109365965.882 8  85220289.755 7  20811643.906                    20811651.484
 106850009.522 8  83259933.872 8  20332844.680                    20332852.645
 125649397.518 7  97908758.89843  23910259.883                    23910269.297
 116093601.775 7  90462503.31145  22091851.453                    22091859.488
 11  8 25  1 12 30.0000000  0  8G29G25G02G10G12G05G04G30
 126255109.006 6  98380658.305 6  24025554.141                    24025563.512
 115783607.095 8  90221048.849 7  22032886.547                    22032896.723
 110855555.577 8  86381119.13746  21095072.563                    21095078.469
 116089674.019 7  90459533.93145  22091072.906                    22091081.418
 109381810.248 8  85232636.000 7  20814658.469                    20814665.969
 106828733.100 8  83243354.868 8  20328796.133                    20328803.574
 125729113.439 6  97970875.17943  23925429.641                    23925438.930
 116050349.837 7  90428800.50845  22083620.742                    22083628.789
 11  8 25  1 13  0.0000000  0  8G29G25G02G10G12G05G04G30
 126172490.622 6  98316280.433 6  24009832.172                    24009840.992
 115735107.369 8  90183256.882 7  22023657.023                    22023667.258
 110884180.151 8  86403423.99746  21100519.391                    21100525.496
 116171146.734 7  90523019.15345  22106576.430                    22106584.520
 109398230.762 8  85245431.202 7  20817783.539                    20817791.152
 106808031.420 8  83227223.718 8  20324856.625                    20324864.328
 125808779.933 6  98032952.96643  23940589.234                    23940599.109
 116007663.812 7  90395538.68745  22075497.547                    22075506.016
 11  8 25  1 13 30.0000000  0  8G29G25G02G10G12G05G04G30
 126089821.903 7  98251863.340 6  23994101.273                    23994109.910
 115687126.737 8  90145869.393 7  22014526.680                    22014536.965
 110912927.756 8  86425824.71946  21105990.109                    21105995.770
 116253012.842 7  90586810.91845  22122155.352                    22122163.438
 109415226.506 8  85258674.640 7  20821017.992                    20821025.355
 106787904.553 8  83211540.470 8  20321026.398                    20321034.102
 125888396.742 6  98094992.05343  23955740.336                    23955749.984
 115965545.061 7  90362718.90145  22067482.914                    22067491.238
 11  8 25  1 14  0.0000000  0  8G29G25G02G10G12G05G04G30
 126007103.731 7  98187407.696 6  23978360.352                    23978368.902
 115639666.040 8  90108887.055 7  22005495.469                    22005505.508
 110941796.737 8  86448320.03346  21111483.727                    21111489.121
 116335268.464 7  90650906.17345  22137808.188                    22137816.672
 109432796.303 8  85272365.382 7  20824361.531                    20824369.332
 106768352.550 8  83196305.173 8  20317305.891                    20317313.508
 125967962.463 6  98156991.31043  23970880.008                    23970891.273
 115923994.082 7  90330341.53645  22059576.250                    22059584.250
 11  8 25  1 14 30.0000000  0  8G29G25G02G10G12G05G04G30
 125924336.816 7  98122914.071 6  23962610.109                    23962618.820
 115592727.301 8  90072311.452 7  21996563.141                    21996573.223
 110970786.661 8  86470909.58046  21117000.250                    21117006.102
 116417911.599 7  90715303.40445  22153534.367                    22153542.535
 109450939.805 8  85286503.177 7  20827813.891                    20827821.551
 106749375.513 8  83181517.899 8  20313694.773                    20313702.246
 126047477.160 6  98218950.79243  23986012.313                    23986021.602
 115883012.506 7  90298407.86345  22051777.086                    22051785.555
 11  8 25  1 15  0.0000000  0  8G29G25G02G10G12G05G04G30
 125841522.632 7  98058383.602 6  23946850.664                    23946859.879
 115546312.520 8  90036144.113 7  21987730.695                    21987740.797
 110999897.455 8  86493593.32046  21122539.656                    21122545.551
 116500939.765 7  90780000.67345  22169334.625                    22169342.379
 109469656.480 8  85301087.601 7  20831375.641                    20831382.750
 106730974.428 8  83167179.424 8  20310192.781                    20310200.426
 126126940.778 6  98280870.44243  24001133.086                    24001143.547
 115842602.199 7  90266919.33245  22044087.867                    22044095.680
 11  8 25  1 15 30.0000000  0  8G29G25G02G10G12G05G04G30
 125758661.983 7  97993816.902 6  23931083.352                    23931091.852
 115500422.986 8  90000386.047 7  21978998.383                    21979008.559
 111029128.111 8  86516370.45446  21128102.148                    21128107.754
 116584349.830 7  90844995.52545  22185206.844                    22185215.035
 109488945.603 8  85316118.085 7  20835046.188                    20835053.250
 106713149.294 8  83153289.735 8  20306801.078                    20306808.410
 126206352.460 6  98342749.60843  24016244.711                    24016254.836
 115802763.959 7  90235876.55945  22036507.086                    22036514.855
 11  8 25  1 16  0.0000000  0  8G29G25G02G10G12G05G04G30
 125675756.026 7  97929214.930 6  23915306.750                    23915315.734
 115455060.345 8  89965038.559 7  21970365.711                    21970376.457
 111058477.671 8  86539240.24646  21133687.367                    21133692.934
 116668139.010 7  90910285.79345  22201151.078                    22201159.453
 109508806.050 8  85331593.758 7  20838825.430                    20838832.973
 106695900.104 8  83139848.835 8  20303518.891                    20303526.309
 126285711.747 6  98404587.99943  24031346.031                    24031356.801
 115763499.191 7  90205280.66445  22029034.938                    22029042.391
 11  8 25  1 16 30.0000000  0  8G29G25G02G10G12G05G04G30
 125592805.867 7  97864578.501 6  23899521.867                    23899530.664
 115410226.132 8  89930102.825 7  21961834.234                    21961844.813
 111087945.559 8  86562202.22746  21139295.164                    21139300.766
 116752304.252 7  90975869.08745  22217167.148                    22217175.445
 109529237.121 8  85347514.070 7  20842713.336                    20842720.758
 106679227.177 8  83126856.976 8  20300346.023                    20300353.488
 126365018.256 6  98466385.23743  24046438.094                    24046448.109
 115724808.989 7  90175132.47545  22021671.938                    22021680.582
 11  8 25  1 17  0.0000000  0  8G29G25G02G10G12G05G04G30
 125509812.318 7  97799908.231 6  23883728.156                    23883737.328
 115365921.566 8  89895579.803 7  21953403.203                    21953413.719
 111117530.666 8  86585255.57446  21144924.633                    21144930.480
 116836842.862 7  91041743.33745  22233254.406                    22233262.828
 109550237.848 8  85363878.265 7  20846709.727                    20846716.871
 106663130.501 8  83114314.133 8  20297282.867                    20297290.258
 126444271.313 6  98528140.82643  24061519.773                    24061529.816
 115686694.356 7  90145432.77345  22014419.297                    22014427.426
 11  8 25  1 17 30.0000000  0  8G29G25G02G10G12G05G04G30
 125426776.360 7  97735204.938 6  23867926.656                    23867936.566
 115322148.236 8  89861470.725 7  21945073.773                    21945084.008
 111147232.374 8  86608399.76846  21150576.477                    21150582.246
 116921751.977 7  91107906.26745  22249411.914                    22249420.426
 109571807.344 8  85380685.659 7  20850814.250                    20850821.637
 106647610.105 8  83102220.341 8  20294329.000                    20294336.762
 126523470.604 6  98589854.48843  24076591.063                    24076600.813
 115649156.436 7  90116182.47145  22007275.891                    22007284.164
 11  8 25  1 18  0.0000000  0  8G29G25G02G10G12G05G04G30
 125343699.002 7  97670469.356 6  23852117.984                    23852127.297
 115278907.606 8  89827776.742 7  21936845.141                    21936855.477
 111177049.886 8  86631634.21246  21156250.773                    21156256.500
 117007028.754 7  91174355.69245  22265639.570                    22265648.109
 109593944.773 8  85397935.590 7  20855026.789                    20855034.223
 106632665.942 8  83090575.558 8  20291485.445                    20291492.816
 126602615.550 6  98651525.81743  24091651.328                    24091661.543
 115612196.453 7  90087382.51645  22000242.781                    22000251.125
 11  8 25  1 18 30.0000000  0  8G29G25G02G10G12G05G04G30
 125260581.429 7  97605702.434 6  23836300.930                    23836311.238
 115236201.104 8  89794498.966 7  21928718.594                    21928728.809
 111206982.542 8  86654958.36346  21161946.469                    21161952.379
 117092670.207 7  91241089.27545  22281936.695                    22281945.094
 109616649.181 8  85415627.326 7  20859347.430                    20859354.891
 106618298.362 8  83079380.070 8  20288750.977                    20288759.117
 126681705.845 6  98713154.55143  24106702.453                    24106711.480
 115575815.484 7  90059033.71745  21993320.180                    21993327.898
 11  8 25  1 19  0.0000000  0  8G29G25G02G10G12G05G04G30
 125177424.893 7  97540905.145 6  23820476.617                    23820486.125
 115194030.230 8  89761638.546 7  21920693.617                    21920703.957
 111237029.875 8  86678371.87346  21167664.836                    21167670.387
 117178673.854 7  91308105.09545  22298302.711                    22298310.949
 109639919.859 8  85433760.312 7  20863775.828                    20863783.379
 106604507.110 8  83068633.655 8  20286126.977                    20286134.305
 126760741.160 6  98774740.48443  24121742.672                    24121751.539
 115540014.517 7  90031136.88445  21986506.914                    21986514.855
 11  8 25  1 19 30.0000000  0  8G29G25G02G10G12G05G04G30
 125094230.205 7  97476078.150 6  23804645.734                    23804655.023
 115152396.200 8  89729196.454 7  21912770.680                    21912781.129
 111267190.730 8  86701873.84346  21173404.047                    21173409.340
 117265036.506 7  91375400.66845  22314737.320                    22314745.180
 109663755.358 8  85452333.419 7  20868311.469                    20868318.941
 106591292.251 8  83058336.384 8  20283612.063                    20283620.070
 126839720.930 6  98836283.10843  24136770.969                    24136780.746
 115504794.561 7  90003692.78945  21979804.773                    21979813.055
 11  8 25  1 20  0.0000000  0  8G29G25G02G10G12G05G04G30
 125010998.707 7  97411222.398 6  23788807.406                    23788816.102
 115111300.656 8  89697173.955 7  21904950.641                    21904960.535
 111297464.871 8  86725464.08446  21179165.094                    21179170.523
 117351755.512 7  91442973.90944  22331238.852                    22331247.160
 109688155.065 8  85471346.150 7  20872954.594                    20872961.980
 106578654.087 8  83048488.490 8  20281207.320                    20281214.852
 126918645.001 6  98897782.32543  24151790.352                    24151799.922
 115470156.907 7  89976702.41745  21973213.898                    21973221.598
 11  8 25  1 20 30.0000000  0  9G29G25G02G26G10G12G05G04G30
 124927731.461 7  97346338.854 6  23772962.031                    23772971.168
 115070744.826 8  89665572.010 7  21897233.164                    21897243.410
 111327851.254 8  86749141.78846  21184947.094                    21184952.836
 130652412.54416                  24862330.344
 117438827.480 7  91510822.19244  22347808.063                    22347816.496
 109713117.798 8  85490797.618 7  20877704.672                    20877712.313
 106566592.369 8  83039089.771 8  20278911.984                    20278919.254
 126997512.637 6  98959237.60243  24166798.320                    24166807.605
 115436102.344 7  89950166.40745  21966733.297                    21966741.285
 11  8 25  1 21  0.0000000  0  9G29G25G02G26G10G12G05G04G30
 124844429.072 7  97281427.912 6  23757109.961                    23757118.934
 115030729.483 8  89634391.220 7  21889618.406                    21889628.320
 111358348.795 8  86772906.11546  21190751.008                    21190757.012
 130561247.286 5 101736104.53853  24844980.031                    24844996.145
 117526249.546 7  91578943.29444  22364444.086                    22364452.227
 109738641.985 8  85510686.571 7  20882561.930                    20882569.574
 106555106.671 8  83030139.900 8  20276726.430                    20276733.633
 127076323.161 6  99020648.42543  24181794.906                    24181805.227
 115402631.324 7  89924085.10545  21960363.953                    21960371.992
 11  8 25  1 21 30.0000000  0  9G29G25G02G26G10G12G05G04G30
 124761092.064 7  97216489.999 6  23741251.563                    23741260.152
 114991255.515 8  89603632.285 7  21882106.789                    21882116.742
 111388956.250 8  86796756.08346  21196575.430                    21196580.828
 130469935.349 6 101664952.77143  24827604.961                    24827619.719
 117614018.025 7  91647334.29845  22381145.789                    22381154.250
 109764726.177 8  85531011.894 7  20887525.453                    20887533.246
 106544196.021 8  83021638.111 8  20274649.781                    20274657.359
 127155075.614 6  99082013.92643  24196781.539                    24196791.195
 115369744.238 7  89898458.81945  21954105.523                    21954113.645
 11  8 25  1 22  0.0000000  0  9G29G25G02G26G10G12G05G04G30
 124677723.132 7  97151527.205 6  23725387.375                    23725395.328
 114952325.463 8  89573297.178 7  21874698.406                    21874708.609
 111419674.168 8  86820692.12846  21202420.891                    21202426.664
 130378480.740 6 101593689.81543  24810201.617                    24810215.738
 117702131.232 7  91715993.91745  22397913.281                    22397921.680
 109791370.531 8  85551773.716 7  20892595.727                    20892603.293
 106533861.867 8  83013585.548 8  20272683.203                    20272690.883
 127233770.846 6  99143334.85343  24211755.992                    24211766.313
 115337443.402 7  89873289.35345  21947958.648                    21947967.238
 11  8 25  1 22 30.0000000  0  9G29G25G02G26G10G12G05G04G30
 124594322.746 7  97086539.914 6  23709516.422                    23709524.930
 114913940.425 8  89543386.755 7  21867394.016                    21867404.105
 111450501.735 8  86844713.60546  21208287.031                    21208292.551
 130286886.159 6 101522317.81043  24792770.945                    24792785.621
 117790586.388 7  91784919.98545  22414745.594                    22414753.895
 109818573.868 8  85572971.103 7  20897772.563                    20897779.914
 106524103.807 8  83005981.881 8  20270826.391                    20270833.887
 127312408.594 6  99204611.01343  24226720.336                    24226730.738
 115305729.490 7  89848577.21945  21941924.102                    21941931.969
 11  8 25  1 23  0.0000000  0  9G29G25G02G26G10G12G05G04G30
 124510892.523 7  97021529.387 6  23693640.195                    23693648.945
 114876101.784 8  89513902.095 7  21860193.930                    21860203.781
 111481438.214 7  86868819.94946  21214173.953                    21214179.738
 130195154.473 6 101450838.96543  24775315.641                    24775328.887
 117879380.766 7  91854110.38845  22431642.953                    22431651.270
 109846334.692 7  85594602.894 7  20903055.109                    20903062.715
 106514921.828 8  82998827.115 8  20269079.219                    20269086.762
 127390988.416 6  99265842.04543  24241673.922                    24241683.988
 115274603.473 7  89824323.18145  21936000.609                    21936009.074
 11  8 25  1 23 30.0000000  0  9G29G25G02G26G10G12G05G04G30
 124427433.735 7  96956496.618 6  23677758.313                    23677767.426
 114838810.773 8  89484844.158 7  21853097.563                    21853107.473
 111512483.846 8  86893011.34546  21220081.570                    21220087.293
 130103288.442 6 101379255.37643  24757832.734                    24757847.313
 117968511.327 7  91923562.74645  22448603.695                    22448612.129
 109874652.165 8  85616668.439 7  20908443.844                    20908451.215
 106506315.746 8  82992121.101 8  20267441.625                    20267449.090
 127469510.048 6  99327027.76843  24256616.539                    24256626.551
 115244066.202 7  89800527.91745  21930189.773                    21930198.203
 11  8 25  1 24  0.0000000  0  9G29G25G02G26G10G12G05G04G30
 124343947.663 7  96891442.601 6  23661871.805                    23661880.785
 114802068.536 8  89456213.838 7  21846105.547                    21846115.840
 111543637.306 8  86917286.76346  21226009.758                    21226015.633
 130011290.796 6 101307569.31443  24740326.320                    24740340.328
 118057975.134 7  91993274.78445  22465628.281                    22465636.844
 109903525.104 8  85639166.817 7  20913938.453                    20913945.711
 106498285.227 8  82985863.577 8  20265913.320                    20265920.855
 127547973.203 6  99388167.90343  24271547.234                    24271557.926
 115214118.468 7  89777192.02545  21924490.945                    21924499.293
 11  8 25  1 24 30.0000000  0  9G29G25G02G26G10G12G05G04G30
 124260434.931 7  96826367.829 6  23645979.234                    23645988.207
 114765876.223 8  89428012.030 7  21839218.633                    21839228.699
 111574897.751 8  86941645.54046  21231958.867                    21231964.457
 129919164.389 6 101235782.86443  24722795.484                    24722808.555
 118147769.401 7  92063244.32545  22482715.523                    22482723.844
 109932952.555 8  85662097.281 7  20919538.188                    20919545.625
 106490829.770 8  82980054.154 8  20264494.672                    20264502.340
 127626377.277 6  99449261.99843  24286467.367                    24286477.496
 115184761.003 7  89754316.07245  21918904.047                    21918912.574
 11  8 25  1 25  0.0000000  0  9G29G25G02G26G10G12G05G04G30
 124176897.164 7  96761273.544 6  23630082.766                    23630091.402
 114730235.122 8  89400239.735 7  21832436.258                    21832446.344
 111606264.954 7  86966087.52346  21237927.766                    21237933.184
 129826912.218 6 101163898.43343  24705239.383                    24705253.602
 118237891.291 7  92133469.16344  22499865.297                    22499873.637
 109962932.542 7  85685458.298 7  20925242.984                    20925250.449
 106483949.683 8  82974693.063 8  20263185.422                    20263192.816
 127704722.128 6  99510309.91743  24301376.102                    24301385.770
 115155994.671 7  89731900.75545  21913430.617                    21913438.375
 11  8 25  1 25 30.0000000  0  9G29G25G02G26G10G12G05G04G30
 124093335.148 7  96696160.374 6  23614180.680                    23614189.738
 114695146.002 8  89372897.564 7  21825758.891                    21825769.324
 111637737.768 8  86990611.77446  21243916.766                    21243922.633
 129734536.980 6 101091918.07843  24687661.594                    24687674.527
 118328337.589 7  92203946.77044  22517076.125                    22517084.617
 109993463.987 8  85709249.024 7  20931053.234                    20931060.023
 106477644.213 8  82969779.736 8  20261985.609                    20261992.410
 127783007.365 7  99571311.39343  24316273.063                    24316283.066
 115127819.900 7  89709946.38945  21908068.891                    21908076.977
 11  8 25  1 26  0.0000000  0  9G29G25G02G26G10G12G05G04G30
 124009750.458 7  96631029.544 6  23598275.680                    23598284.617
 114660610.080 8  89345986.450 7  21819187.047                    21819196.945
 111669315.544 8  87015217.83346  21249925.773                    21249931.359
 129642041.348 6 101019843.90342  24670058.922                    24670072.426
 118419105.333 7  92274674.85444  22534349.367                    22534357.645
 110024545.850 8  85733468.650 7  20936967.742                    20936975.000
 106471912.808 8  82965313.732 8  20260894.938                    20260901.738
 127861232.425 7  99632265.98643  24331158.289                    24331168.316
 115100237.464 7  89688453.57845  21902819.781                    21902828.156
 11  8 25  1 26 30.0000000  0  9G29G25G02G26G10G12G05G04G30
 123926144.273 7  96565881.971 6  23582365.453                    23582374.926
 114626628.613 8  89319507.374 7  21812720.414                    21812730.730
 111700998.142 8  87039905.56946  21255955.133                    21255960.457
 129549428.402 6 100947678.29743  24652435.570                    24652449.340
 118510191.974 7  92345651.42744  22551682.492                    22551690.637
 110056176.531 8  85758115.924 7  20942987.125                    20942994.234
 106466755.367 8  82961294.964 8  20259913.195                    20259920.844
 127939397.270 6  99693173.67343  24346033.063                    24346043.512
 115073248.142 7  89667422.93545  21897684.023                    21897692.402
 11  8 25  1 27  0.0000000  0  9G29G25G02G26G10G12G05G04G30
 123842517.670 7  96500718.488 6  23566452.211                    23566461.191
 114593202.568 8  89293461.103 7  21806359.656                    21806370.195
 111732784.806 8  87064674.39146  21262003.430                    21262009.133
 129456701.236 6 100875423.68042  24634789.320                    24634803.449
 118601594.482 7  92416874.13544  22569075.813                    22569083.953
 110088354.779 8  85783189.868 7  20949110.383                    20949117.363
 106462171.803 8  82957723.379 8  20259041.219                    20259048.410
 128017501.643 7  99754034.21543  24360895.586                    24360905.688
 115046852.560 7  89646854.95445  21892661.492                    21892669.980
 11  8 25  1 27 30.0000000  0  9G29G25G02G26G10G12G05G04G30
 123758872.123 7  96435540.226 6  23550534.609                    23550543.184
 114560332.919 8  89267848.384 7  21800105.109                    21800115.156
 111764674.896 7  87089523.79546  21268072.008                    21268077.746
 129363862.238 6 100803081.95242  24617122.875                    24617136.520
 118693309.866 7  92488340.64744  22586528.563                    22586536.770
 110121079.211 7  85808689.416 7  20955337.484                    20955345.234
 106458161.356 8  82954598.371 8  20258277.938                    20258285.488
 128095545.257 7  99814847.39743  24375746.734                    24375756.816
 115021051.227 7  89626750.01545  21887751.734                    21887760.047
 11  8 25  1 28  0.0000000  0  9G29G25G02G26G10G12G05G04G30
 123675208.869 7  96370348.163 6  23534614.281                    23534623.145
 114528020.932 8  89242670.206 7  21793956.148                    21793966.156
 111796667.982 7  87114453.47246  21274160.141                    21274165.867
 129270914.662 6 100730655.55643  24599435.711                    24599449.078
 118785335.454 7  92560048.87544  22604040.586                    22604048.516
 110154348.608 8  85834613.610 7  20961668.750                    20961675.492
 106454724.038 8  82951919.959 8  20257624.133                    20257630.984
 128173527.936 7  99875613.07643  24390586.672                    24390596.617
 114995845.051 7  89607108.83345  21882954.852                    21882963.156
 11  8 25  1 28 30.0000000  0  9G29G25G02G26G10G12G05G04G30
 123591528.910 7  96305143.101 6  23518690.492                    23518699.293
 114496267.279 8  89217927.095 7  21787913.445                    21787923.836
 111828763.258 7  87139462.76246  21280267.977                    21280273.660
 129177861.474 6 100658146.92043  24581727.758                    24581741.141
 118877667.952 7  92631996.26644  22621610.344                    22621619.051
 110188161.366 8  85860961.203 7  20968102.734                    20968109.887
 106451858.833 8  82949687.356 8  20257078.898                    20257085.949
 128251449.196 7  99936330.89543  24405414.625                    24405424.313
 114971234.247 7  89587931.56945  21878271.719                    21878279.680
 11  8 25  1 29  0.0000000  0  9G29G25G02G26G10G12G05G04G30
 123507833.472 7  96239925.964 6  23502763.164                    23502772.379
 114465073.018 8  89193619.877 7  21781977.734                    21781987.539
 111860960.191 7  87164551.26246  21286394.594                    21286400.438
 129084705.354 6 100585557.97943  24564000.688                    24564013.563
 118970304.666 7  92704180.68544  22639238.906                    22639246.457
 110222516.155 8  85887731.156 7  20974639.977                    20974647.598
 106449565.364 8  82947900.251 8  20256642.094                    20256649.500
 128329308.871 7  99997000.77343  24420230.414                    24420240.770
 114947219.439 7  89569218.73045  21873701.625                    21873709.883
 11  8 25  1 29 30.0000000  0  9G29G25G02G26G10G12G05G04G30
 123424124.149 7  96174698.003 6  23486834.203                    23486842.816
 114434439.173 8  89169749.339 7  21776148.211                    21776158.391
 111893258.325 7  87189718.62946  21292540.805                    21292546.664
 128991449.421 6 100512891.33243  24546254.336                    24546267.301
 119063242.772 7  92776599.98544  22656924.703                    22656933.039
 110257411.365 7  85914922.211 7  20981280.703                    20981288.215
 106447843.499 8  82946558.550 8  20256314.656                    20256322.020
 128407106.576 6 100057622.36843  24435035.570                    24435044.867
 114923801.212 7  89550970.74345  21869245.578                    21869253.789
 11  8 25  1 30  0.0000000  0  9G29G25G02G26G10G12G05G04G30
 123340402.125 7  96109460.121 6  23470902.758                    23470910.723
 114404366.368 8  89146315.980 7  21770425.328                    21770435.664
 111925656.704 7  87214964.10946  21298705.906                    21298711.969
 128898096.240 6 100440148.85043  24528489.914                    24528502.086
 119156479.005 7  92849251.58744  22674666.656                    22674675.113
 110292845.368 8  85942533.108 7  20988023.383                    20988031.027
 106446692.180 8  82945661.435 8  20256095.414                    20256102.520
 128484842.124 6 100118195.52143  24449827.016                    24449837.723
 114900979.819 7  89533187.82745  21864902.641                    21864911.199
 11  8 25  1 30 30.0000000  0  9G29G25G02G26G10G12G05G04G30
 123256668.405 7  96044213.125 6  23454968.703                    23454977.434
 114374855.557 8  89123320.548 7  21764809.742                    21764820.000
 111958154.755 7  87240287.25046  21304890.531                    21304895.887
 128804649.018 6 100367333.12943  24510706.398                    24510719.480
 119250010.398 7  92922133.15244  22692465.281                    22692473.895
 110328816.785 8  85970562.768 7  20994868.633                    20994876.289
 106446110.768 8  82945208.407 8  20255984.820                    20255991.703
 128562515.312 6 100178720.05343  24464608.625                    24464618.320
 114878755.645 7  89515870.27345  21860673.883                    21860681.883
 11  8 25  1 31  0.0000000  0  9G29G25G02G26G10G12G05G04G30
 123172924.655 7  95978958.309 6  23439032.656                    23439040.820
 114345907.779 8  89100763.833 7  21759301.438                    21759311.453
 111990752.270 7  87265687.91046  21311093.656                    21311098.656
 128711110.880 6 100294446.52643  24492906.758                    24492919.648
 119343834.469 7  92995242.80144  22710319.344                    22710328.043
 110365324.399 8  85999010.246 7  21001815.938                    21001823.316
 106446099.104 8  82945199.333 8  20255982.438                    20255989.762
 128640125.981 6 100239195.91943  24479376.313                    24479387.246
 114857129.455 7  89499018.67145  21856557.875                    21856566.410
 11  8 25  1 31 30.0000000  0  9G29G25G02G26G10G12G05G04G30
 123089172.254 7  95913696.748 6  23423094.930                    23423103.332
 114317524.052 8  89078646.641 7  21753899.969                    21753910.039
 112023448.812 7  87291165.72146  21317315.242                    21317320.801
 128617484.845 7 100221491.38343  24475090.555                    24475102.441
 119437948.140 7  93068578.10244  22728228.617                    22728237.305
 110402366.182 8  86027873.948 7  21008864.820                    21008871.879
 106446656.746 8  82945633.881 8  20256088.945                    20256096.066
 128717673.830 6 100299622.84343  24494134.383                    24494144.242
 114836101.676 7  89482633.37345  21852556.617                    21852565.164
 11  8 25  1 32  0.0000000  0  9G29G25G02G26G10G12G05G04G30
 123005412.409 6  95848429.370 6  23407155.563                    23407164.266
 114289704.976 8  89056969.440 7  21748606.375                    21748616.922
 112056243.254 7  87316719.82446  21323555.852                    21323561.500
 128523773.800 6 100148470.03243  24457257.711                    24457270.160
 119532348.590 6  93142136.84444  22746192.836                    22746201.219
 110439940.732 8  86057152.794 7  21016015.047                    21016022.242
 106447782.947 8  82946511.446 8  20256303.102                    20256310.133
 128795158.511 6 100360000.50943  24508879.258                    24508889.000
 114815672.557 7  89466714.56445  21848669.164                    21848677.441
 11  8 25  1 32 30.0000000  0  9G29G25G02G26G10G12G05G04G30
 122921646.537 7  95783157.283 6  23391215.430                    23391223.996
 114262451.526 8  89035732.984 7  21743419.898                    21743430.609
 112089136.040 8  87342350.55046  21329814.969                    21329820.668
 128429980.661 6 100075384.66843  24439409.578                    24439421.254
 119627033.232 6  93215917.06444  22764209.906                    22764218.395
 110478046.737 8  86086845.762 7  21023266.313                    21023273.527
 106449476.919 8  82947831.444 8  20256625.164                    20256632.395
 128872580.282 6 100420329.17942  24523610.898                    24523621.762
 114795842.625 8  89451262.64445  21844896.070                    21844903.883
 11  8 25  1 33  0.0000000  0  9G29G25G02G26G10G12G05G04G30
 122837875.870 6  95717881.458 6  23375274.828                    23375282.863
 114235764.276 8  89014937.726 7  21738341.398                    21738351.445
 112122126.258 8  87368057.21146  21336093.023                    21336098.180
 128336108.642 6 100002237.88443  24421545.906                    24421558.586
 119721998.684 7  93289916.10144  22782281.930                    22782290.180
 110516682.330 8  86116951.393 7  21030618.711                    21030626.207
 106451738.096 8  82949593.417 8  20257055.773                    20257062.852
 128949938.799 6 100480608.51942  24538331.914                    24538342.984
 114776611.968 8  89436277.69145  21841236.313                    21841244.281
 11  8 25  1 33 30.0000000  0  9G29G25G02G26G10G12G05G04G30
 122754102.125 6  95652603.234 6  23359332.617                    23359341.160
 114209644.194 8  88994584.409 7  21733371.063                    21733380.961
 112155213.360 7  87393839.37046  21342389.391                    21342394.656
 128242160.744 7  99929031.93543  24403667.859                    24403680.578
 119817242.141 6  93364131.77744  22800405.773                    22800414.293
 110555845.785 8  86147468.349 7  21038071.125                    21038078.395
 106454566.021 8  82951797.009 8  20257593.570                    20257601.020
 129027233.803 6 100540838.38042  24553040.844                    24553051.578
 114757981.094 7  89421760.10945  21837690.703                    21837699.441
 11  8 25  1 34  0.0000000  0  9G29G25G02G26G10G12G05G04G30
 122670326.654 6  95587323.682 6  23343390.766                    23343399.395
 114184091.790 8  88974673.455 7  21728508.484                    21728519.035
 112188396.775 8  87419696.57946  21348704.172                    21348709.551
 128148139.796 7  99855769.05343  24385777.008                    24385788.578
 119912760.513 7  93438561.64244  22818582.836                    22818591.105
 110595535.274 8  86178395.192 7  21045623.781                    21045630.703
 106457959.437 8  82954441.250 8  20258239.500                    20258246.742
 129104464.921 7 100601018.51243  24567738.156                    24567748.133
 114739950.052 8  89407709.93345  21834260.383                    21834268.086
 11  8 25  1 34 30.0000000  0  9G29G25G02G26G10G12G05G04G30
 122586550.679 6  95522043.724 6  23327448.828                    23327457.352
 114159107.685 8  88955205.330 7  21723754.367                    21723764.883
 112221675.712 7  87445628.22446  21355036.688                    21355042.547
 128054048.927 6  99782451.72842  24367870.469                    24367883.516
 120008550.861 7  93513203.45644  22836810.742                    22836818.969
 110635749.557 8  86209730.971 7  21053276.344                    21053283.367
 106461917.634 8  82957525.573 8  20258992.531                    20258999.891
 129181632.014 6 100661148.76743  24582422.008                    24582432.281
 114722519.026 8  89394127.29945  21830942.914                    21830950.785
 11  8 25  1 35  0.0000000  0  9G29G25G02G26G10G12G05G04G30
 122502775.688 6  95456764.516 6  23311506.789                    23311515.344
 114134692.795 8  88936180.741 7  21719108.313                    21719118.668
 112255050.006 7  87471634.17346  21361387.297                    21361393.133
 127959891.277 6  99709082.32443  24349953.773                    24349965.418
 120104610.782 7  93588055.31244  22855090.352                    22855098.902
 110676486.797 8  86241474.251 7  21061028.383                    21061035.828
 106466440.261 8  82961049.718 8  20259853.391                    20259860.559
 129258735.112 6 100721229.14943  24597094.398                    24597104.105
 114705688.515 8  89381012.60245  21827740.125                    21827748.445
 11  8 25  1 35 30.0000000  0  9G29G25G02G26G10G12G05G04G30
 122419002.830 7  95391486.972 6  23295565.586                    23295574.250
 114110847.729 8  88917600.178 7  21714570.523                    21714580.852
 112288519.372 8  87497714.20646  21367756.352                    21367762.313
 127865670.065 6  99635663.45643  24332023.430                    24332035.711
 120200936.988 6  93663114.67544  22873420.234                    22873429.445
 110717745.098 8  86273623.553 7  21068879.430                    21068886.750
 106471526.394 8  82965012.965 8  20260821.164                    20260828.012
 129335774.076 6 100781259.48443  24611754.750                    24611764.008
 114689458.640 8  89368365.94145  21824651.367                    21824660.117
 11  8 25  1 36  0.0000000  0  9G29G25G02G26G10G12G05G04G30
 122335233.730 7  95326212.350 6  23279624.734                    23279632.684
 114087572.841 8  88899463.912 7  21710141.391                    21710152.031
 112322082.740 7  87523867.48946  21374143.531                    21374149.293
 127771387.997 6  99562197.04343  24314081.773                    24314094.414
 120297526.506 7  93738379.20244  22891801.133                    22891809.426
 110759522.801 8  86306177.582 7  21076829.563                    21076837.352
 106477174.805 8  82969414.339 8  20261895.961                    20261903.242
 129412748.419 6 100841239.50442  24626402.016                    24626411.570
 114673829.212 7  89356187.16345  21821677.508                    21821685.516
 11  8 25  1 36 30.0000000  0  9G29G25G02G26G10G12G05G04G30
 122251469.957 7  95260941.883 6  23263685.328                    23263693.527
 114064869.206 8  88881772.783 7  21705821.391                    21705831.469
 112355740.414 7  87550094.26546  21380547.828                    21380553.570
 127677048.507 6  99488685.97643  24296128.859                    24296141.465
 120394377.291 7  93813847.31944  22910231.359                    22910239.973
 110801818.445 8  86339135.209 7  21084878.227                    21084885.719
 106483385.470 8  82974253.840 8  20263077.336                    20263084.844
 129489658.492 6 100901169.51643  24641038.016                    24641047.141
 114658800.873 7  89344476.77145  21818817.313                    21818825.824
 11  8 25  1 37  0.0000000  0  9G29G25G02G26G10G12G05G04G30
 122167712.746 7  95195676.532 6  23247746.266                    23247755.039
 114042737.062 8  88864526.971 7  21701609.602                    21701619.832
 112389491.481 8  87576393.80946  21386970.938                    21386976.391
 127582654.682 6  99415132.56243  24278167.016                    24278179.121
 120491485.853 7  93889516.30144  22928711.188                    22928719.207
 110844629.778 8  86372494.665 7  21093024.578                    21093032.586
 106490156.944 8  82979530.342 8  20264366.398                    20264373.949
 129566503.954 6 100961049.10043  24655660.617                    24655671.000
 114644373.414 8  89333234.60645  21816072.203                    21816080.352
 11  8 25  1 37 30.0000000  0  9G29G25G02G26G10G12G05G04G30
 122083963.659 7  95130417.526 6  23231809.797                    23231818.371
 114021177.184 8  88847727.070 7  21697506.945                    21697517.234
 112423335.758 8  87602765.98746  21393411.195                    21393416.648
 127488209.653 6  99341539.15143  24260195.250                    24260205.824
 120588849.267 7  93965383.87443  22947238.367                    22947246.578
 110887955.001 8  86406254.555 7  21101269.422                    21101276.816
 106497488.559 8  82985243.308 8  20265761.313                    20265768.766
 129643284.559 6 101020878.16942  24670271.953                    24670281.227
 114630547.142 8  89322460.90845  21813441.328                    21813449.363
 11  8 25  1 38  0.0000000  0  8G29G25G02G26G10G12G05G30
 122000224.384 7  95065166.150 6  23215874.625                    23215882.879
 114000190.196 8  88831373.588 7  21693513.281                    21693523.758
 112457272.807 8  87629210.46046  21399869.336                    21399874.691
 127393716.883 7  99267908.65743  24242212.719                    24242225.273
 120686464.868 7  94041447.98344  22965813.281                    22965822.035
 110931792.770 8  86440413.832 7  21109611.422                    21109618.844
 106505379.766 8  82991392.329 8  20267263.133                    20267270.324
 114617322.183 8  89312155.75345  21810924.625                    21810932.828
 11  8 25  1 38 30.0000000  0  8G29G25G02G26G10G12G05G30
 121916496.764 7  94999923.887 6  23199941.438                    23199950.637
 113979776.783 8  88815467.051 7  21689628.641                    21689638.953
 112491302.304 8  87655726.96346  21406344.883                    21406350.363
 127299179.287 7  99194243.20543  24224223.063                    24224234.719
 120784329.735 6  94117706.34144  22984436.391                    22984444.906
 110976141.501 8  86474971.271 7  21118050.844                    21118058.352
 106513829.865 8  82997976.840 8  20268871.281                    20268878.605
 114604698.710 8  89302319.30645  21808522.172                    21808530.367
 11  8 25  1 39  0.0000000  0  8G29G25G02G26G10G12G05G30
 121832781.291 7  94934691.090 6  23184011.109                    23184019.926
 113959936.553 8  88800007.129 7  21685853.164                    21685863.262
 112525423.197 8  87682314.67746  21412837.570                    21412843.199
 127204599.346 7  99120544.71344  24206225.781                    24206236.969
 120882440.539 6  94194156.29544  23003106.328                    23003115.270
 111020998.165 8  86509924.495 7  21126586.727                    21126594.297
 106522836.333 8  83004994.899 8  20270584.766                    20270592.477
 114592675.901 7  89292950.90445  21806234.266                    21806242.703
 11  8 25  1 39 30.0000000  0  8G29G25G02G26G10G12G05G30
 121749079.611 7  94869469.035 6  23168083.375                    23168092.246
 113940670.268 8  88784994.449 7  21682187.047                    21682197.328
 112559634.882 8  87708973.14246  21419348.023                    21419353.855
 127109980.684 7  99046816.08744  24188219.742                    24188231.520
 120980794.585 6  94270795.80144  23021822.664                    23021831.805
 111066361.373 8  86545272.432 7  21135219.234                    21135226.578
 106532399.173 8  83012446.484 8  20272404.492                    20272412.094
 114581253.978 7  89284050.72045  21804060.797                    21804068.898
 11  8 25  1 40  0.0000000  0  8G29G25G02G26G10G12G05G30
 121665393.950 7  94804259.473 6  23152158.125                    23152166.969
 113921978.541 8  88770429.478 7  21678629.758                    21678640.289
 112593937.745 8  87735702.65146  21425875.727                    21425881.227
 127015326.391 6  98973059.68443  24170206.453                    24170219.223
 121079389.170 6  94347622.72043  23040584.641                    23040593.191
 111112229.554 8  86581013.852 7  21143947.289                    21143955.301
 106542517.368 8  83020330.817 8  20274330.102                    20274337.320
 114570433.091 8  89275618.87845  21802001.820                    21802009.957
 11  8 25  1 40 30.0000000  0  8G29G25G02G26G10G12G05G30
 121581725.129 7  94739063.049 6  23136237.219                    23136245.137
 113903861.584 8  88756312.375 7  21675182.570                    21675193.164
 112628331.082 8  87762502.65046  21432420.539                    21432426.227
 126920639.698 7  98899278.00143  24152188.594                    24152200.629
 121178221.180 6  94424634.66044  23059391.742                    23059400.473
 111158599.804 8  86617146.504 7  21152771.320                    21152779.031
 106553189.592 8  83028646.852 8  20276361.000                    20276368.066
 114560212.954 8  89267655.15445  21800056.969                    21800064.945
 11  8 25  1 41  0.0000000  0  8G29G25G02G26G10G12G05G30
 121498075.065 7  94673881.220 6  23120318.727                    23120327.102
 113886320.106 8  88742643.687 7  21671844.609                    21671854.922
 112662814.775 8  87789373.07146  21438982.305                    21438988.148
 126825923.937 6  98825473.69343  24134164.711                    24134176.570
 121277287.885 6  94501829.46944  23078243.602                    23078252.137
 111205470.987 8  86653669.483 7  21161691.219                    21161698.371
 106564415.232 8  83037394.128 8  20278497.344                    20278504.324
 114550593.811 7  89260159.74145  21798226.586                    21798234.844
 11  8 25  1 41 30.0000000  0  8G29G25G02G26G10G12G05G30
 121414445.393 7  94608715.310 6  23104404.000                    23104412.734
 113869354.458 8  88729423.711 7  21668616.203                    21668626.223
 112697388.679 8  87816313.76346  21445561.734                    21445567.617
 126731182.402 6  98751649.27143  24116135.906                    24116146.895
 121376586.617 6  94579205.08044  23097139.523                    23097148.406
 111252841.157 8  86690581.286 7  21170705.117                    21170712.742
 106576193.496 8  83046572.010 8  20280738.656                    20280745.902
 114541575.526 8  89253132.52545  21796510.461                    21796518.414
 11  8 25  1 42  0.0000000  0  8G29G25G02G26G10G12G05G30
 121330837.674 7  94543566.514 6  23088493.953                    23088503.090
 113852964.900 8  88716652.611 7  21665497.375                    21665507.496
 112732052.311 8  87843324.38046  21452157.984                    21452163.879
 126636418.140 6  98677807.17743  24098102.469                    24098114.535
 121476114.396 7  94656759.18144  23116079.414                    23116087.672
 111300708.512 8  86727880.510 7  21179814.000                    21179821.453
 106588523.052 8  83056179.476 8  20283084.625                    20283091.508
 114533157.780 8  89246573.26345  21794908.500                    21794916.516
 11  8 25  1 42 30.0000000  0  8G29G25G02G26G10G12G05G30
 121247253.230 7  94478435.844 6  23072588.570                    23072597.207
 113837151.479 8  88704330.456 7  21662487.906                    21662498.293
 112766804.448 8  87870403.98246  21458770.836                    21458776.754
 126541634.385 6  98603949.86843  24080066.227                    24080077.324
 121575868.233 7  94734489.42744  23135062.148                    23135070.453
 111349070.521 8  86765565.184 7  21189016.773                    21189024.422
 106601402.589 8  83066215.499 8  20285535.508                    20285542.984
 114525340.144 8  89240481.62145  21793420.719                    21793428.613
 11  8 25  1 43  0.0000000  0  8G29G25G02G26G10G12G05G30
 121163693.719 7  94413324.603 6  23056687.500                    23056696.031
 113821914.560 8  88692457.523 7  21659588.695                    21659598.816
 112801645.297 8  87897552.68546  21465400.930                    21465406.465
 126446834.344 6  98530079.90943  24062025.852                    24062037.953
 121675845.437 7  94812393.72444  23154086.211                    23154095.336
 111397925.290 8  86803633.815 7  21198313.938                    21198321.238
 106614830.989 8  83076679.209 8  20288090.719                    20288098.168
 114518122.514 8  89234857.49845  21792047.563                    21792055.328
 11  8 25  1 43 30.0000000  0  8G29G25G02G26G10G12G05G30
 121080160.447 7  94348233.796 6  23040792.102                    23040800.598
 113807254.207 8  88681033.860 7  21656798.867                    21656808.953
 112836574.548 8  87924770.27546  21472048.078                    21472053.414
 126352021.000 6  98456199.55043  24043983.016                    24043995.297
 121776043.095 7  94890469.81843  23173153.352                    23173162.133
 111447270.465 8  86842084.594 7  21207703.750                    21207711.387
 106628806.757 8  83087569.435 8  20290750.250                    20290757.637
 114511504.434 8  89229700.56245  21790788.133                    21790796.395
 11  8 25  1 44  0.0000000  0  8G29G25G02G26G10G12G05G30
 120996655.628 7  94283165.172 6  23024901.492                    23024909.988
 113793171.199 8  88670060.073 7  21654118.922                    21654129.043
 112871592.171 8  87952056.73146  21478711.883                    21478716.852
 126257198.262 6  98382311.86843  24025938.875                    24025950.770
 121876458.943 7  94968715.91143  23192262.016                    23192270.734
 111497104.661 8  86880916.421 7  21217186.898                    21217194.551
 106643329.794 8  83098886.098 8  20293513.719                    20293521.109
 114505486.234 7  89225011.06045  21789642.938                    21789651.047
 11  8 25  1 44 30.0000000  0  8G29G25G02G26G10G12G05G30
 120913180.781 7  94218119.898 6  23009016.719                    23009025.051
 113779665.774 8  88659536.344 7  21651549.133                    21651559.137
 112906697.537 8  87979411.56146  21485391.680                    21485397.355
 126162369.271 6  98308419.27743  24007893.289                    24007905.258
 121977089.826 7  95047129.55843  23211411.406                    23211420.473
 111547425.906 8  86920127.762 7  21226762.445                    21226770.355
 106658398.470 8  83110627.940 8  20296381.125                    20296388.375
 114500067.537 8  89220788.69445  21788611.563                    21788619.699
 11  8 25  1 45  0.0000000  0  8G29G25G02G26G10G12G05G30
 120829737.317 7  94153099.072 6  22993137.188                    22993146.250
 113766737.744 8  88649462.532 7  21649088.617                    21649098.977
 112941890.261 8  88006834.45846  21492089.055                    21492094.289
 126067536.972 7  98234524.14343  23989847.945                    23989859.117
 122077932.964 6  95125708.63943  23230601.156                    23230610.004
 111598231.549 8  86959716.564 7  21236430.898                    21236438.398
 106674011.540 8  83122793.981 8  20299352.352                    20299359.898
 114495247.708 8  89217032.97745  21787694.242                    21787702.211
 11  8 25  1 45 30.0000000  0  8G29G25G02G26G10G12G05G30
 120746326.524 7  94088103.702 6  22977264.898                    22977273.348
 113754387.061 8  88639838.603 7  21646738.727                    21646749.320
 112977169.818 8  88034325.02246  21498802.313                    21498807.738
 125972704.668 6  98160628.99343  23971801.594                    23971812.434
 122178984.978 6  95204450.43643  23249830.398                    23249839.004
 111649519.422 8  86999681.129 7  21246190.359                    21246198.211
 106690167.446 8  83135383.014 8  20302426.914                    20302434.109
 114491026.165 8  89213743.45845  21786891.273                    21786899.176
 11  8 25  1 46  0.0000000  0  8G29G25G02G26G10G12G05G30
 120662950.109 7  94023135.112 6  22961399.000                    22961407.621
 113742613.658 8  88630664.503 7  21644498.133                    21644508.379
 113012535.777 8  88061882.91146  21505532.305                    21505537.672
 125877875.578 6  98086736.33843  23953755.961                    23953767.141
 122280243.055 7  95283352.80943  23269099.922                    23269107.766
 111701286.831 8  87040019.356 7  21256041.563                    21256049.277
 106706864.715 8  83148393.885 8  20305604.086                    20305611.711
 114487402.422 7  89210919.74445  21786201.461                    21786209.578
 11  8 25  1 46 30.0000000  0  8G29G25G02G26G10G12G05G30
 120579609.957 7  93958194.776 6  22945539.883                    22945548.336
 113731418.038 8  88621940.621 7  21642367.742                    21642377.977
 113047988.176 8  88089508.15246  21512278.961                    21512284.125
 125783053.011 6  98012848.76143  23935711.750                    23935722.895
 122381704.641 7  95362413.78643  23288407.313                    23288415.898
 111753532.230 8  87080730.039 7  21265983.578                    21265991.219
 106724102.464 8  83161825.909 8  20308884.203                    20308892.141
 114484376.316 7  89208561.72345  21785625.547                    21785633.719
 11  8 25  1 47  0.0000000  0  8G29G25G02G26G10G12G05G30
 120496307.550 7  93893283.841 6  22929687.781                    22929696.434
 113720799.959 8  88613666.774 7  21640347.352                    21640357.578
 113083526.730 8  88117200.52246  21519041.164                    21519047.055
 125688240.131 6  97938968.69743  23917669.828                    23917680.117
 122483366.535 7  95441630.81543  23307752.695                    23307761.285
 111806253.318 8  87121811.385 7  21276016.070                    21276023.383
 106741879.044 8  83175677.799 8  20312267.305                    20312274.477
 114481947.159 8  89206668.84445  21785163.242                    21785171.570
 11  8 25  1 47 30.0000000  0  8G29G25G02G26G10G12G05G30
 120413044.641 7  93828403.687 6  22913843.328                    22913852.012
 113710759.838 8  88605843.280 7  21638436.602                    21638447.121
 113119151.246 8  88144959.88246  21525820.313                    21525826.004
 125593440.675 6  97865099.17243  23899629.805                    23899640.500
 122585226.440 7  95521002.12643  23327136.508                    23327145.082
 111859448.214 8  87163261.934 7  21286138.680                    21286146.129
 106760193.804 8  83189949.055 8  20315752.297                    20315759.887
 114480114.865 8  89205241.05145  21784814.617                    21784822.797
 11  8 25  1 48  0.0000000  0  8G29G25G02G26G10G12G05G30
 120329823.209 7  93763555.856 6  22898006.656                    22898015.023
 113701297.644 8  88598470.124 7  21636636.156                    21636646.496
 113154861.503 8  88172786.04645  21532615.867                    21532620.988
 125498657.725 7  97791242.45743  23881592.703                    23881603.156
 122687281.471 7  95600525.51043  23346556.664                    23346565.289
 111913114.620 8  87205079.894 7  21296351.203                    21296358.715
 106779045.187 8  83204638.457 8  20319339.375                    20319346.910
 114478878.806 8  89204277.86245  21784579.656                    21784587.668
 11  8 25  1 48 30.0000000  0  8G29G25G02G26G10G12G05G30
 120246644.867 7  93698741.597 6  22882178.672                    22882187.402
 113692413.311 8  88591547.255 7  21634945.445                    21634955.371
 113190656.907 8  88200678.56846  21539427.438                    21539432.707
 125403894.746 7  97717401.30543  23863559.477                    23863570.832
 122789528.808 7  95680198.74844  23366014.570                    23366022.449
 111967250.211 8  87247263.448 7  21306652.680                    21306660.367
 106798432.005 8  83219745.076 8  20323028.641                    20323035.785
 114478238.515 7  89203778.89645  21784457.570                    21784466.051
 11  8 25  1 49  0.0000000  0  8G29G25G02G26G10G12G05G30
 120163510.767 7  93633961.814 6  22866358.375                    22866367.340
 113684106.538 8  88585074.437 7  21633364.906                    21633375.262
 113226537.090 8  88228637.15646  21546255.430                    21546260.789
 125309154.918 6  97643578.23243  23845531.203                    23845542.559
 122891965.627 7  95760019.63844  23385507.055                    23385515.855
 112021852.797 8  87289810.904 7  21317043.375                    21317051.141
 106818352.238 8  83235267.349 8  20326819.422                    20326826.762
 114478193.088 7  89203743.46445  21784449.070                    21784457.605
 11  8 25  1 49 30.0000000  0  8G29G25G02G26G10G12G05G30
 120080422.953 7  93569218.089 6  22850547.398                    22850555.762
 113676377.493 8  88579051.798 7  21631893.828                    21631904.395
 113262502.030 8  88256661.78946  21553099.219                    21553104.773
 125214441.696 7  97569775.84043  23827507.914                    23827519.297
 122994589.134 7  95839985.97343  23405035.445                    23405044.059
 112076920.216 8  87332720.561 7  21327522.383                    21327529.801
 106838804.927 8  83251204.521 8  20330711.500                    20330718.629
 114478742.163 8  89204171.27845  21784553.625                    21784561.852
 11  8 25  1 50  0.0000000  0  8G29G25G02G26G10G12G05G30
 119997383.230 7  93504511.837 6  22834745.844                    22834754.527
 113669225.983 8  88573479.183 7  21630533.000                    21630542.863
 113298551.354 8  88284752.17746  21559959.430                    21559964.660
 125119758.446 6  97495996.82543  23809489.734                    23809501.738
 123097396.583 6  95920095.64843  23424598.984                    23424607.641
 112132449.777 8  87375990.321 7  21338089.383                    21338096.762
 106859788.648 8  83267555.486 8  20334704.617                    20334711.766
 114479885.108 8  89205061.85345  21784771.219                    21784779.473
 11  8 25  1 50 30.0000000  0  8G29G25G02G26G10G12G05G30
 119914393.224 7  93439844.333 6  22818953.125                    22818961.977
 113662651.896 8  88568356.516 7  21629282.000                    21629292.070
 113334684.915 8  88312908.20446  21566835.273                    21566840.824
 125025108.485 6  97422243.77043  23791478.656                    23791489.305
 123200385.183 7  96000346.48143  23444196.508                    23444205.648
 112188439.175 8  87419618.395 7  21348743.453                    21348751.207
 106881301.786 8  83284318.974 8  20338798.125                    20338805.762
 114481621.203 7  89206414.61445  21785101.391                    21785109.594
 11  8 25  1 51  0.0000000  0  8G29G25G02G26G10G12G05G30
 119831454.528 7  93375216.798 6  22803170.531                    22803179.148
 113656654.909 8  88563683.548 7  21628140.789                    21628151.094
 113370902.550 8  88341129.74846  21573727.266                    21573732.516
 124930495.107 6  97348519.21943  23773473.953                    23773485.633
 123303552.049 7  96080736.21743  23463828.758                    23463837.367
 112244886.263 8  87463603.106 7  21359485.430                    21359492.734
 106903342.692 8  83301493.714 8  20342992.539                    20342999.770
 114483949.650 7  89208228.95645  21785544.688                    21785552.859
 11  8 25  1 51 30.0000000  0  8G29G25G02G26G10G12G05G30
 119748569.542 7  93310631.126 7  22787397.844                    22787406.219
 113651235.544 8  88559460.665 7  21627109.492                    21627119.707
 113407204.465 8  88369416.95645  21580635.383                    21580640.484
 124835922.124 6  97274826.14944  23755477.703                    23755488.070
 123406895.151 7  96161263.29843  23483494.531                    23483502.570
 112301789.408 7  87507943.193 7  21370313.664                    21370321.371
 106925911.250 8  83319079.618 8  20347286.898                    20347294.074
 114486870.427 7  89210504.87145  21786100.641                    21786108.758
 11  8 25  1 52  0.0000000  0  8G29G25G02G26G10G12G05G30
 119665739.167 7  93246087.987 6  22771636.047                    22771644.328
 113646392.782 8  88555687.090 7  21626187.883                    21626198.191
 113443589.650 8  88397769.05946  21587558.953                    21587564.441
 124741392.455 6  97201166.78943  23737489.398                    23737499.430
 123510410.537 7  96241924.60843  23503193.031                    23503201.078
 112359145.035 7  87552635.862 7  21381227.797                    21381235.309
 106949004.240 8  83337074.164 8  20351681.695                    20351688.914
 114490381.959 7  89213241.09745  21786768.758                    21786776.844
 11  8 25  1 52 30.0000000  0  9G29G25G02G26G10G12G05G15G30
 119582965.418 7  93181588.989 6  22755884.320                    22755893.109
 113642126.522 8  88552362.746 7  21625376.180                    21625386.387
 113480057.864 8  88426185.85446  21594498.922                    21594504.637
 124646909.481 6  97127543.86244  23719509.602                    23719520.281
 123614095.882 7  96322718.39743  23522923.453                    23522932.434
 112416951.182 7  87597679.586 7  21392227.992                    21392236.004
 106972620.565 8  83355476.507 8  20356175.719                    20356182.926
 129427959.44015 100853092.26716  24629340.563
 114494483.682 7  89216437.22645  21787548.781                    21787557.180
 11  8 25  1 53  0.0000000  0  9G29G25G02G26G10G12G05G15G30
 119500249.932 7  93117135.387 6  22740144.648                    22740152.445
 113638436.491 8  88549487.406 7  21624673.898                    21624684.094
 113516608.929 8  88454667.21246  21601453.859                    21601460.113
 124552476.504 6  97053959.88443  23701539.602                    23701550.137
 123717948.269 7  96403642.30143  23542686.125                    23542694.504
 112475205.402 8  87643072.458 7  21403313.547                    21403321.492
 106996758.715 8  83374285.465 8  20360768.883                    20360776.234
 129335200.010 6 100780812.626 6  24611688.695                    24611702.902
 114499174.690 8  89220092.53345  21788442.555                    21788450.328
 11  8 25  1 53 30.0000000  0  9G29G25G02G26G10G12G05G15G30
 119417594.085 7  93052728.250 7  22724415.242                    22724423.797
 113635321.895 8  88547060.464 7  21624081.180                    21624091.492
 113553242.535 8  88483212.88845  21608425.500                    21608430.832
 124458096.553 6  96980417.20843  23683579.328                    23683589.770
 123821964.449 7  96484693.86243  23562479.531                    23562488.027
 112533904.737 8  87688812.172 7  21414483.523                    21414491.324
 107021416.605 8  83393499.415 8  20365461.234                    20365468.242
 129242305.726 6 100708427.893 6  24594012.023                    24594025.113
 114504453.835 7  89224206.14245  21789446.336                    21789454.574
 11  8 25  1 54  0.0000000  0  9G29G25G02G26G10G12G05G15G30
 119335000.503 7  92988369.655 7  22708698.211                    22708706.395
 113632783.399 8  88545082.424 7  21623598.008                    21623608.336
 113589959.176 8  88511823.26345  21615412.367                    21615417.672
 124363773.986 6  96906919.25044  23665630.172                    23665640.738
 123926142.942 7  96565871.90143  23582304.258                    23582313.012
 112593047.693 8  87734897.561 7  21425738.445                    21425745.992
 107046593.935 8  83413118.126 8  20370252.453                    20370259.387
 129149279.731 6 100635940.522 6  24576309.641                    24576323.285
 114510321.104 8  89228778.03545  21790562.859                    21790571.355
 11  8 25  1 54 30.0000000  0  9G29G25G02G26G10G12G05G15G30
 119252470.684 7  92924060.734 7  22692993.672                    22693002.012
 113630820.499 8  88543552.905 7  21623224.711                    21623235.016
 113626758.281 8  88540497.90146  21622415.219                    21622420.449
 124269512.194 7  96833468.58244  23647692.977                    23647703.484
 124030480.833 7  96647174.12243  23602159.172                    23602168.395
 112652631.932 7  87781326.802 7  21437077.102                    21437084.332
 107072288.820 8  83433140.122 8  20375141.750                    20375148.945
 129056124.472 6 100563352.427 6  24558582.070                    24558595.730
 114516775.577 8  89233807.47745  21791791.844                    21791799.805
 11  8 25  1 55  0.0000000  0  9G29G25G02G26G10G12G05G15G30
 119170007.001 7  92859803.349 7  22677301.008                    22677309.496
 113629432.956 8  88542471.707 7  21622960.789                    21622970.902
 113663639.871 8  88569236.81346  21629433.242                    21629438.391
 124175314.533 6  96760067.92643  23629767.570                    23629777.680
 124134975.197 7  96728598.28543  23622043.938                    23622052.805
 112712655.220 7  87828098.160 7  21448499.164                    21448506.602
 107098499.791 8  83453564.263 8  20380129.578                    20380136.789
 128962842.459 6 100490665.584 6  24540831.188                    24540844.617
 114523816.337 8  89239293.78045  21793131.281                    21793139.723
 11  8 25  1 55 30.0000000  0  9G29G25G02G26G10G12G05G15G30
 119087610.987 7  92795598.686 6  22661621.789                    22661629.699
 113628620.273 8  88541838.461 7  21622806.078                    21622816.219
 113700604.002 8  88598040.04745  21636467.242                    21636472.813
 124081184.398 7  96686719.92643  23611855.688                    23611865.379
 124239623.182 7  96810142.12443  23641957.953                    23641966.578
 112773114.542 8  87875209.293 7  21460004.000                    21460011.734
 107125224.759 8  83474388.930 8  20385215.445                    20385222.371
 128869435.757 6 100417881.549 6  24523055.531                    24523069.742
 114531442.411 8  89245236.18545  21794582.188                    21794590.637
 11  8 25  1 56  0.0000000  0  9G29G25G02G26G10G12G05G15G30
 119005284.565 7  92731448.256 6  22645955.258                    22645963.383
 113628381.907 8  88541652.724 7  21622760.680                    21622770.551
 113737650.250 8  88626907.26245  21643517.172                    21643522.430
 123987125.319 7  96613427.22743  23593956.297                    23593966.523
 124344422.240 7  96891803.69143  23661899.680                    23661909.188
 112834007.525 8  87922658.341 7  21471591.531                    21471599.434
 107152462.360 7  83495613.050 8  20390398.367                    20390405.645
 128775906.945 6 100345002.377 6  24505257.203                    24505270.613
 114539652.798 8  89251633.88345  21796144.578                    21796153.262
 11  8 25  1 56 30.0000000  0  9G29G25G02G26G10G12G05G15G30
 118923029.245 7  92667353.245 6  22630302.680                    22630311.000
 113628717.656 8  88541914.343 7  21622824.492                    21622834.645
 113774778.652 8  88655838.49545  21650582.289                    21650587.867
 123893140.892 7  96540192.75244  23576071.406                    23576081.898
 124449369.845 7  96973581.00343  23681871.586                    23681879.781
 112895331.987 8  87970443.609 7  21483261.023                    21483268.691
 107180211.142 8  83517235.482 8  20395679.047                    20395686.055
 128682258.915 6 100272030.285 6  24487436.336                    24487449.645
 114548446.640 8  89258486.23545  21797818.320                    21797826.211
 11  8 25  1 57  0.0000000  0  9G29G25G02G26G10G12G05G15G30
 118840847.069 7  92603315.226 7  22614663.367                    22614672.156
 113629626.832 8  88542622.788 7  21622997.773                    21623008.008
 113811988.936 8  88684833.52645  21657662.828                    21657668.359
 123799234.318 6  96467018.93243  23558201.063                    23558211.297
 124554462.975 7  97055471.71143  23701869.672                    23701878.195
 112957085.063 8  88018562.862 7  21495012.422                    21495020.094
 107208469.111 8  83539254.690 8  20401056.406                    20401063.156
 128588493.957 6 100198967.041 5  24469593.000                    24469605.484
 114557822.816 7  89265792.35545  21799602.133                    21799610.789
 11  8 25  1 57 30.0000000  0  9G29G25G02G26G10G12G05G15G30
 118758740.010 7  92539335.751 7  22599039.570                    22599047.379
 113631108.916 8  88543777.662 7  21623279.539                    21623289.727
 113849280.487 8  88713891.88145  21664759.141                    21664764.848
 123705409.052 7  96393908.42144  23540346.680                    23540356.961
 124659698.982 7  97137473.80143  23721895.188                    23721904.000
 113019264.091 8  88067014.014 7  21506844.859                    21506852.598
 107237234.430 8  83561669.235 8  20406529.703                    20406537.152
 128494614.299 6 100125814.408 5  24451728.094                    24451740.734
 114567780.210 8  89273551.37345  21801497.711                    21801505.641
 11  8 25  1 58  0.0000000  0  9G29G25G02G26G10G12G05G15G30
 118676709.636 7  92475416.024 7  22583429.406                    22583437.543
 113633163.496 8  88545378.633 7  21623670.484                    21623680.816
 113886653.835 8  88743013.97845  21671871.008                    21671877.270
 123611668.808 6  96320864.24443  23522508.727                    23522519.227
 124765075.459 7  97219585.32943  23741948.445                    23741956.656
 113081866.902 8  88115795.404 7  21518757.656                    21518765.320
 107266505.688 8  83584478.016 8  20412099.930                    20412107.172
 128400622.650 6 100052574.454 5  24433841.953                    24433854.559
 114578317.937 8  89281762.59545  21803502.305                    21803510.488
 11  8 25  1 58 30.0000000  0  9G29G25G02G26G10G12G05G15G30
 118594757.814 7  92411557.524 6  22567834.648                    22567842.875
 113635789.880 8  88547425.156 7  21624170.531                    21624180.438
 113924108.585 7  88772199.49545  21678998.305                    21679004.438
 123518016.844 6  96247888.79744  23504687.383                    23504697.328
 124870589.423 7  97301804.00443  23762026.734                    23762035.949
 113144890.858 8  88164904.964 7  21530750.578                    21530758.688
 107296281.000 8  83607679.563 8  20417766.117                    20417773.570
 128306521.844 7  99979249.432 5  24415935.742                    24415947.336
 114589434.724 7  89290425.03345  21805617.820                    21805626.203
 11  8 25  1 59  0.0000000  0  9G29G25G02G26G10G12G05G15G30
 118512886.623 7  92347761.852 7  22552254.984                    22552263.219
 113638987.744 8  88549916.985 7  21624779.055                    21624789.156
 113961644.760 8  88801448.44745  21686141.367                    21686147.176
 123424456.844 7  96174985.04643  23486883.234                    23486893.617
 124976238.539 7  97384127.96643  23782131.375                    23782139.523
 113208333.436 8  88214340.716 7  21542823.570                    21542831.453
 107326558.758 8  83631272.624 8  20423527.672                    20423534.809
 128212314.089 6  99905841.096 5  24398007.492                    24398020.707
 114601129.691 8  89299538.00645  21807843.414                    21807851.590
 11  8 25  1 59 30.0000000  0  9G29G25G02G26G10G12G05G15G30
 118431097.859 7  92284030.396 7  22536691.125                    22536699.191
 113642756.330 8  88552853.539 7  21625495.703                    21625506.117
 113999262.137 8  88830760.67645  21693299.750                    21693305.609
 123330992.262 6  96102155.65344  23469097.484                    23469108.148
 125082019.839 7  97466554.94143  23802260.430                    23802269.844
 113272192.018 8  88264100.642 7  21554975.109                    21554983.199
 107357337.059 8  83655255.728 8  20429384.844                    20429392.152
 128118001.947 6  99832351.438 5  24380059.703                    24380073.313
 114613401.570 8  89309100.51745  21810178.586                    21810187.039
 11  8 25  2  0  0.0000000  0  9G29G25G02G26G10G12G05G15G30
 118349393.745 7  92220364.914 7  22521142.734                    22521151.098
 113647095.233 8  88556234.489 7  21626321.641                    21626331.707
 114036960.992 7  88860136.40046  21700473.906                    21700479.375
 123237626.836 7  96029403.52344  23451329.781                    23451340.484
 125187930.986 7  97549083.15343  23822414.930                    23822423.598
 113336464.283 8  88314182.909 7  21567206.336                    21567213.832
 107388614.642 8  83679627.864 8  20435336.523                    20435343.492
 128023588.302 6  99758782.699 6  24362093.391                    24362106.332
 114626249.442 8  89319111.85845  21812623.273                    21812631.336
 11  8 25  2  0 30.0000000  0  9G29G25G02G26G10G12G05G15G30
 118267775.959 7  92156766.695 6  22505611.617                    22505620.160
 113652003.665 8  88560059.219 7  21627255.500                    21627266.039
 114074740.723 7  88889575.14645  21707663.391                    21707668.930
 123144364.009 6  95956731.33244  23433582.664                    23433593.309
 125293969.154 6  97631710.27543  23842592.875                    23842601.535
 113401147.508 8  88364585.405 7  21579515.008                    21579522.406
 107420389.246 8  83704387.303 8  20441383.445                    20441390.051
 127929075.416 6  99685136.581 5  24344108.102                    24344120.859
 114639671.883 8  89329570.90045  21815177.750                    21815185.930
 11  8 25  2  1  0.0000000  0  9G29G25G02G26G10G12G05G15G30
 118186246.365 7  92093237.211 6  22490097.008                    22490105.332
 113657480.759 8  88564327.057 7  21628297.945                    21628308.277
 114112601.415 7  88919076.97045  21714867.766                    21714873.090
 123051206.925 7  95884141.54544  23415855.883                    23415865.527
 125400131.464 6  97714434.11843  23862794.742                    23862803.453
 113466238.737 7  88415305.837 7  21591901.195                    21591909.070
 107452658.884 8  83729532.481 8  20447523.789                    20447530.973
 127834466.002 6  99611415.256 5  24326104.227                    24326116.586
 114653667.604 8  89340476.66045  21817841.266                    21817849.387
 11  8 25  2  1 30.0000000  0  9G29G25G02G26G10G12G05G15G30
 118104806.833 7  92029777.901 7  22474600.000                    22474607.816
 113663526.048 8  88569037.657 7  21629448.305                    21629458.449
 114150543.113 7  88948641.91145  21722087.805                    21722093.215
 122958159.387 7  95811637.11044  23398149.406                    23398159.668
 125506415.712 6  97797252.96943  23883020.422                    23883029.180
 113531735.741 7  88466342.451 7  21604364.820                    21604372.758
 107485422.151 8  83755062.306 8  20453758.305                    20453765.680
 127739762.707 6  99537620.787 6  24308083.133                    24308095.285
 114668235.540 8  89351828.29745  21820613.438                    21820621.543
 11  8 25  2  2  0.0000000  0  9G29G25G02G26G10G12G05G15G30
 118023459.373 7  91966390.328 7  22459119.742                    22459127.898
 113670138.697 8  88574190.350 7  21630706.773                    21630716.980
 114188565.474 7  88978269.71645  21729323.234                    21729328.621
 122865224.865 7  95739220.72444  23380464.211                    23380474.699
 125612818.933 6  97880164.53943  23903268.359                    23903277.035
 113597635.375 7  88517692.800 7  21616905.094                    21616913.168
 107518677.056 7  83780975.236 8  20460086.594                    20460093.949
 127644967.862 6  99463754.987 6  24290043.789                    24290056.098
 114683374.340 8  89363624.76145  21823494.094                    21823502.582
 11  8 25  2  2 30.0000000  0  9G29G25G02G26G10G12G05G15G30
 117942206.081 7  91903076.138 6  22443657.766                    22443665.871
 113677317.918 8  88579784.519 7  21632072.953                    21632082.977
 114226668.619 7  89007960.47345  21736573.922                    21736579.484
 122772406.859 7  95666895.14044  23362801.523                    23362811.695
 125719338.649 7  97963166.86743  23923538.508                    23923547.668
 113663935.488 7  88569355.212 7  21629521.719                    21629529.258
 107552421.601 8  83807269.697 8  20466508.188                    20466515.414
 127550084.392 6  99389820.159 6  24271987.625                    24272000.055
 114699082.621 8  89375864.97145  21826483.219                    21826491.102
 11  8 25  2  3  0.0000000  0  9G29G25G02G26G10G12G05G15G30
 117861048.443 7  91839836.472 7  22428214.016                    22428221.438
 113685062.615 8  88585819.317 7  21633546.734                    21633557.102
 114264852.052 8  89037713.78545  21743839.977                    21743845.586
 122679708.951 7  95594663.11444  23345161.320                    23345171.316
 125825971.787 7  98046257.59843  23943830.188                    23943839.082
 113730632.735 7  88621327.081 7  21642213.914                    21642221.891
 107586653.440 8  83833943.868 8  20473022.016                    20473029.184
 127455114.449 6  99315817.942 6  24253915.531                    24253927.770
 114715358.887 8  89388547.76445  21829580.406                    21829588.754
 11  8 25  2  3 30.0000000  0  9G29G25G02G26G10G12G05G15G30
 117779988.857 7  91776673.204 6  22412788.891                    22412796.648
 113693372.539 8  88592294.558 7  21635127.875                    21635138.625
 114303116.156 8  89067529.95945  21751121.453                    21751127.258
 122587134.771 7  95522527.51044  23327545.656                    23327555.410
 125932716.433 6  98129435.22443  23964143.016                    23964151.773
 113797725.017 7  88673606.771 7  21654981.375                    21654988.902
 107621371.656 8  83860997.036 8  20479628.766                    20479635.766
 127360061.154 7  99241750.771 6  24235827.172                    24235839.613
 114732202.211 8  89401672.41545  21832785.336                    21832794.008
 11  8 25  2  4  0.0000000  0  9G29G25G02G26G10G12G05G15G30
 117699029.145 7  91713587.771 7  22397382.773                    22397390.680
 113702246.746 8  88599209.497 7  21636816.820                    21636826.449
 114341461.012 8  89097409.06545  21758418.367                    21758424.020
 122494687.879 7  95450491.09044  23309953.672                    23309963.246
 126039569.867 6  98212697.61543  23984476.078                    23984485.242
 113865209.771 7  88726192.283 7  21667822.977                    21667830.566
 107656573.944 8  83888427.403 8  20486327.688                    20486334.535
 127264926.980 7  99167620.588 6  24217723.727                    24217735.555
 114749611.189 8  89415237.82645  21836098.547                    21836106.754
 11  8 25  2  4 30.0000000  0  9G29G25G02G26G10G12G05G15G30
 117618171.192 7  91650581.622 7  22381995.578                    22382003.961
 113711684.146 8  88606563.283 7  21638612.656                    21638622.473
 114379886.207 7  89127350.76945  21765730.414                    21765735.563
 122402371.732 7  95378556.55144  23292385.992                    23292395.867
 126146529.485 6  98296042.77743  24004830.117                    24004838.691
 113933084.010 7  88779081.286 7  21680739.211                    21680747.098
 107692258.374 8  83916233.470 8  20493118.250                    20493125.258
 127169714.532 7  99093429.363 6  24199604.758                    24199616.938
 114767584.128 8  89429242.68445  21839518.422                    21839526.891
 11  8 25  2  5  0.0000000  0  9G29G25G02G26G10G12G05G15G30
 117537417.111 7  91587656.420 7  22366628.914                    22366636.941
 113721683.860 8  88614355.233 7  21640515.711                    21640526.031
 114418391.837 7  89157355.14945  21773057.906                    21773063.500
 122310189.875 7  95306726.61044  23274843.758                    23274853.531
 126253592.570 6  98379468.53843  24025203.789                    24025212.168
 114001345.056 7  88832271.691 7  21693728.617                    21693736.461
 107728422.960 7  83944413.678 8  20500000.023                    20500007.129
 127074426.435 7  99019179.186 6  24181471.813                    24181484.289
 114786119.739 8  89443685.97745  21843045.641                    21843054.254
 11  8 25  2  5 30.0000000  0  9G29G25G02G26G10G12G05G15G30
 117456769.045 7  91524813.824 7  22351282.031                    22351290.207
 113732245.015 8  88622584.680 7  21642525.336                    21642535.836
 114456977.955 7  89187422.25445  21780400.375                    21780405.727
 122218145.923 7  95235004.17044  23257328.633                    23257338.164
 126360756.508 7  98462972.88143  24045596.594                    24045605.023
 114069989.940 7  88885761.188 7  21706791.281                    21706798.887
 107765065.646 8  83972966.441 8  20506972.773                    20506979.781
 126979065.056 7  98944871.920 6  24163324.633                    24163336.895
 114805216.507 8  89458566.53945  21846680.328                    21846688.465
 11  8 25  2  6  0.0000000  0  9G29G25G02G26G10G12G05G15G30
 117376228.937 7  91462055.344 7  22335955.445                    22335964.113
 113743366.985 8  88631251.132 7  21644641.906                    21644652.469
 114495644.541 7  89217552.07345  21787758.234                    21787764.301
 122126243.757 7  95163392.17144  23239840.070                    23239849.801
 126468018.972 6  98546554.02643  24066007.820                    24066015.770
 114139016.377 7  88939548.008 7  21719926.688                    21719934.508
 107802184.978 8  84001890.611 8  20514036.305                    20514043.016
 126883633.853 7  98870510.230 6  24145165.070                    24145176.055
 114824873.286 8  89473883.47145  21850420.289                    21850428.820
 11  8 25  2  6 30.0000000  0  9G29G25G02G26G10G12G05G15G30
 117295798.853 7  91399382.590 7  22320649.805                    22320658.215
 113755048.723 8  88640353.764 7  21646864.922                    21646875.371
 114534391.805 7  89247744.74645  21795131.961                    21795137.539
 122034486.878 7  95091893.41644  23222379.602                    23222389.801
 126575377.340 6  98630209.87743  24086437.164                    24086445.855
 114208421.663 7  88993630.029 7  21733134.609                    21733141.813
 107839778.866 8  84031184.573 8  20521190.055                    20521197.172
 126788135.149 7  98796095.929 6  24126991.820                    24127003.680
 114845088.506 8  89489635.54445  21854267.430                    21854276.004
 11  8 25  2  7  0.0000000  0  9G29G25G02G26G10G12G05G15G30
 117215480.387 7  91336796.798 7  22305366.086                    22305373.863
 113767288.854 8  88649891.513 7  21649194.297                    21649204.480
 114573219.397 7  89278000.02145  21802520.039                    21802525.672
 121942878.630 7  95020510.45444  23204946.445                    23204956.512
 126682828.792 6  98713938.25043  24106885.125                    24106892.883
 114278202.659 7  89048004.809 7  21746413.016                    21746420.551
 107877844.614 8  84060846.204 8  20528433.656                    20528441.133
 126692571.124 6  98721630.760 6  24108805.813                    24108818.508
 114865860.259 8  89505821.28245  21858220.172                    21858228.977
 11  8 25  2  7 30.0000000  0  9G29G25G02G26G10G12G05G15G30
 117135275.958 7  91274299.876 7  22290103.461                    22290111.570
 113780086.743 8  88659863.876 7  21651629.516                    21651639.730
 114612127.606 7  89308318.10645  21809924.672                    21809930.086
 121851422.665 7  94949246.17644  23187543.461                    23187553.090
 126790371.230 6  98797737.53542  24127348.883                    24127358.047
 114348357.125 7  89102670.597 7  21759763.359                    21759770.727
 107916380.965 8  84090874.534 8  20535766.852                    20535774.313
 126596945.126 6  98647117.269 6  24090608.234                    24090620.883
 114887187.369 8  89522439.76945  21862278.430                    21862286.656
 11  8 25  2  8  0.0000000  0  9G29G25G02G26G10G12G05G15G30
 117055187.552 7  91211893.356 7  22274863.289                    22274871.594
 113793441.369 8  88670270.067 7  21654170.586                    21654180.832
 114651116.487 7  89338699.06145  21817343.844                    21817349.352
 121760122.792 7  94878103.51644  23170169.539                    23170179.281
 126898002.031 6  98881605.68843  24147830.383                    24147839.602
 114418881.790 7  89157624.862 7  21773183.422                    21773191.059
 107955385.850 8  84121267.964 8  20543189.508                    20543196.465
 126501259.725 6  98572557.459 6  24072400.039                    24072411.742
 114909068.347 8  89539489.83145  21866442.641                    21866450.781
 11  8 25  2  8 30.0000000  0  9G29G25G02G26G10G12G05G15G30
 116975217.253 7  91149578.886 7  22259645.266                    22259653.773
 113807351.495 8  88681109.112 7  21656817.719                    21656827.828
 114690185.625 7  89369142.54845  21824778.336                    21824783.785
 121668982.526 7  94807085.23844  23152826.078                    23152835.457
 127005718.623 6  98965540.70643  24168328.617                    24168337.563
 114489773.933 7  89212865.464 7  21786673.766                    21786681.559
 107994857.146 8  84152024.834 7  20550700.328                    20550707.738
 126405517.456 6  98497953.341 6  24054180.961                    24054192.637
 114931501.403 8  89556970.08345  21870711.695                    21870719.773
 11  8 25  2  9  0.0000000  0  9G29G25G02G26G10G12G05G15G30
 116895367.346 7  91087358.213 7  22244450.477                    22244458.824
 113821816.262 8  88692380.349 7  21659570.305                    21659581.004
 114729335.519 7  89399648.96345  21832228.047                    21832234.180
 121578005.649 7  94736194.28944  23135513.766                    23135523.223
 127113518.667 6  99049540.71643  24188841.906                    24188851.063
 114561031.131 7  89268390.533 7  21800233.734                    21800241.801
 108034793.174 8  84183143.833 8  20558300.250                    20558307.504
 126309721.449 6  98423307.336 6  24035951.750                    24035963.414
 114954485.120 8  89574879.42445  21875085.289                    21875093.465
 11  8 25  2  9 30.0000000  0  9G29G25G02G26G10G12G05G15G30
 116815639.261 7  91025232.471 7  22229278.547                    22229286.836
 113836834.003 8  88704082.483 7  21662428.227                    21662438.688
 114768565.661 7  89430217.91045  21839693.305                    21839698.758
 121487195.105 7  94665432.92444  23118232.859                    23118242.160
 127221399.385 6  99133603.61343  24209371.453                    24209380.156
 114632649.748 8  89324197.215 7  21813862.383                    21813869.953
 108075190.836 8  84214622.544 8  20565987.789                    20565994.582
 126213873.652 7  98348620.980 6  24017712.133                    24017723.816
 114978017.297 8  89593216.14945  21879563.516                    21879571.098
 11  8 25  2 10  0.0000000  0  9G29G25G02G26G10G12G05G15G30
 116736035.238 7  90963203.395 7  22214130.453                    22214138.223
 113852403.873 8  88716214.850 7  21665390.992                    21665400.723
 114807876.311 7  89460849.59145  21847174.242                    21847179.930
 121396555.120 7  94594804.47844  23100984.047                    23100994.637
 127329358.329 6  99217727.45043  24229915.641                    24229924.188
 114704627.322 7  89380283.612 7  21827559.211                    21827566.992
 108116048.674 8  84246459.829 8  20573762.539                    20573770.156
 126117977.249 6  98273896.765 6  23999463.242                    23999474.762
 115002096.638 8  89611979.24245  21884144.961                    21884153.477
 11  8 25  2 10 30.0000000  0  9G29G25G02G26G10G12G05G15G30
 116656557.768 7  90901272.945 7  22199005.992                    22199014.367
 113868524.903 8  88728776.683 7  21668458.609                    21668468.566
 114847267.544 7  89491544.06645  21854670.188                    21854675.742
 121306089.245 7  94524311.70744  23083769.156                    23083778.859
 127437393.167 6  99301910.41343  24250473.781                    24250482.574
 114776961.696 8  89436648.044 7  21841324.117                    21841331.805
 108157364.844 7  84278654.252 8  20581624.648                    20581631.961
 126022035.183 7  98199136.974 6  23981205.875                    23981217.523
 115026721.536 8  89631167.43745  21888831.625                    21888839.855
 11  8 25  2 11  0.0000000  0  9G29G25G02G26G10G12G05G15G30
 116577208.377 7  90839442.287 7  22183906.570                    22183914.711
 113885195.551 8  88741766.802 7  21671630.945                    21671641.305
 114886739.252 7  89522301.24645  21862181.258                    21862187.129
 121215800.900 7  94453957.25944  23066588.023                    23066597.434
 127545501.027 6  99386150.28643  24271046.266                    24271054.754
 114849649.255 7  89493287.672 7  21855155.766                    21855163.781
 108199136.513 8  84311203.612 8  20589573.805                    20589581.082
 125926049.841 7  98124343.452 6  23962940.523                    23962952.055
 115051890.126 8  89650779.29545  21893620.758                    21893629.086
 11  8 25  2 11 30.0000000  0  9G29G25G02G26G10G12G05G15G30
 116497989.446 7  90777713.285 7  22168832.125                    22168840.172
 113902414.967 8  88755184.522 7  21674907.609                    21674918.328
 114926291.971 8  89553121.55545  21869707.648                    21869713.324
 121125694.035 7  94383744.23044  23049441.367                    23049450.340
 127653679.949 7  99470445.55943  24291631.594                    24291640.594
 114922687.347 7  89550200.444 7  21869054.492                    21869061.852
 108241362.403 8  84344106.912 8  20597608.813                    20597615.750
 125830024.348 7  98049518.622 6  23944667.148                    23944678.516
 115077600.883 8  89670813.63745  21898513.320                    21898521.820
 11  8 25  2 12  0.0000000  0  9G29G25G02G26G10G12G05G15G30
 116418903.216 7  90716087.691 7  22153782.477                    22153790.238
 113920181.763 8  88769028.784 7  21678288.586                    21678299.262
 114965925.643 7  89584004.94345  21877249.719                    21877255.465
 121035771.950 7  94313675.20144  23032329.797                    23032338.984
 127761927.229 6  99554794.06743  24312230.375                    24312239.070
 114996073.315 7  89607384.279 7  21883019.328                    21883027.117
 108284039.965 8  84377362.166 8  20605730.227                    20605737.012
 125733961.124 7  97974664.413 6  23926387.383                    23926398.738
 115103851.950 8  89691268.99945  21903508.828                    21903517.070
 11  8 25  2 12 30.0000000  0  9G29G25G02G26G10G12G05G15G30
 116339951.732 7  90654567.101 7  22138758.047                    22138766.121
 113938494.762 8  88783298.655 7  21681773.453                    21681783.742
 115005640.135 7  89614951.29345  21884806.773                    21884812.418
 120946038.546 7  94243753.18944  23015253.289                    23015263.020
 127870240.461 6  99639194.00443  24332841.922                    24332851.195
 115069804.361 7  89664837.009 7  21897050.008                    21897057.734
 108327167.243 8  84410967.843 8  20613937.141                    20613944.559
 125637862.966 7  97899782.965 6  23908099.406                    23908111.320
 115130641.564 7  89712144.01845  21908606.789                    21908615.281
 11  8 25  2 13  0.0000000  0  9G29G25G02G26G10G12G05G15G30
 116261137.030 7  90593153.085 7  22123760.359                    22123768.344
 113957352.485 8  88797992.977 7  21685362.125                    21685372.426
 115045435.264 8  89645960.48845  21892380.070                    21892385.188
 120856497.084 7  94173980.76044  22998214.102                    22998223.781
 127978617.380 6  99723643.53343  24353465.266                    24353473.973
 115143877.326 7  89722556.174 7  21911145.523                    21911153.496
 108370741.887 8  84444922.117 8  20622228.766                    20622236.211
 125541732.732 7  97824876.536 6  23889806.898                    23889817.992
 115157967.745 7  89733437.13845  21913806.523                    21913814.977
 11  8 25  2 13 30.0000000  0  9G29G25G02G26G10G12G05G15G30
 116182461.118 7  90531847.224 7  22108788.359                    22108796.578
 113976753.687 8  88813110.788 7  21689053.563                    21689064.074
 115085311.415 8  89677032.80545  21899968.227                    21899973.777
 120767151.767 7  94104361.14344  22981212.297                    22981221.805
 128087055.403 6  99808140.67043  24374099.648                    24374109.180
 115218289.359 8  89780539.543 7  21925305.547                    21925313.426
 108414761.981 8  84479223.495 8  20630605.633                    20630612.797
 125445573.367 7  97749947.404 6  23871508.117                    23871518.902
 115185828.893 8  89755147.11945  21919108.383                    21919116.699
 11  8 25  2 14  0.0000000  0  9G29G25G02G26G10G12G05G15G30
 116103926.224 7  90470651.242 7  22093844.297                    22093851.723
 113996697.138 8  88828651.132 7  21692848.820                    21692859.504
 115125268.802 8  89708168.43345  21907572.016                    21907577.309
 120678005.876 7  94034896.93144  22964248.719                    22964258.230
 128195552.325 6  99892683.69442  24394746.641                    24394755.082
 115293037.635 8  89838784.918 7  21939529.828                    21939537.766
 108459225.399 8  84513870.320 8  20639066.719                    20639074.020
 125349387.776 7  97674997.812 6  23853204.164                    23853215.164
 115214223.065 7  89777272.43345  21924511.289                    21924519.898
 11  8 25  2 14 30.0000000  0  9G29G25G02G26G10G12G05G15G30
 116025534.886 7  90409567.121 7  22078926.445                    22078934.563
 114017181.703 8  88844613.119 7  21696747.328                    21696757.875
 115165307.483 8  89739367.39645  21915191.078                    21915196.566
 120589063.354 7  93965591.18444  22947323.391                    22947332.738
 128304105.773 6  99977270.78443  24415403.523                    24415412.570
 115368119.657 8  89897290.361 7  21953817.516                    21953825.887
 108504130.328 8  84548861.185 8  20647612.227                    20647619.344
 125253178.784 6  97600030.001 6  23834896.289                    23834907.039
 115243148.629 7  89799811.83845  21930016.008                    21930024.688
 11  8 25  2 15  0.0000000  0  9G29G25G02G26G10G12G05G15G30
 115947289.119 7  90348596.426 7  22064037.258                    22064045.039
 114038205.903 8  88860995.595 7  21700747.992                    21700758.391
 115205427.780 8  89770629.97145  21922825.820                    21922830.973
 120500327.768 7  93896446.67644  22930437.039                    22930446.215
 128412713.136 6 100061899.85843  24436071.352                    24436079.734
 115443532.780 8  89956053.809 7  21968168.844                    21968176.438
 108549474.244 8  84584194.109 8  20656240.625                    20656247.711
 125156948.962 6  97525045.952 6  23816583.758                    23816594.246
 115272603.622 8  89822763.78245  21935621.125                    21935629.250
 11  8 25  2 15 30.0000000  0  9G29G25G02G26G10G12G05G15G30
 115869190.459 7  90287740.361 7  22049175.148                    22049182.992
 114059767.879 8  88877797.114 7  21704851.148                    21704860.867
 115245629.454 7  89801955.94645  21930476.008                    21930481.480
 120411802.507 7  93827466.06844  22913591.383                    22913600.750
 128521371.978 6 100146569.03542  24456748.016                    24456757.039
 115519272.927 8  90015072.069 7  21982580.961                    21982588.777
 108595254.421 8  84619866.980 8  20664952.211                    20664959.418
 125060701.069 6  97450047.797 6  23798268.234                    23798279.684
 115302585.742 8  89846126.46145  21941326.484                    21941334.895
 11  8 25  2 16  0.0000000  0  9G29G25G02G26G10G12G05G15G30
 115791241.596 7  90227001.017 7  22034341.945                    22034349.789
 114081866.441 8  88895016.759 7  21709056.414                    21709066.922
 115285912.577 8  89833345.38645  21938141.313                    21938146.848
 120323491.136 7  93758652.10944  22896786.047                    22896795.586
 128630080.051 6 100231276.65842  24477434.945                    24477443.203
 115595337.361 8  90074343.030 7  21997055.281                    21997063.457
 108641469.074 8  84655878.404 8  20673746.242                    20673753.637
 124964437.824 7  97375037.704 6  23779949.758                    23779960.871
 115333093.220 7  89869898.51145  21947132.227                    21947140.699
 11  8 25  2 16 30.0000000  0  9G29G25G02G26G10G12G05G15G30
 115713444.641 8  90166380.037 7  22019537.727                    22019545.484
 114104500.348 8  88912653.544 7  21713363.469                    21713373.922
 115326277.436 8  89864798.51945  21945822.734                    21945828.289
 120235397.715 7  93690007.99244  22880022.250                    22880031.953
 128738835.080 6 100316020.82342  24498129.977                    24498137.902
 115671723.666 8  90133864.802 7  22011592.109                    22011599.195
 108688116.259 8  84692226.867 8  20682623.617                    20682630.563
 124868162.562 6  97300018.192 6  23761629.875                    23761640.699
 115364124.235 8  89894078.51045  21953037.133                    21953045.254
 11  8 25  2 17  0.0000000  0  9G29G25G02G26G10G12G05G15G30
 115635801.667 8  90105879.042 7  22004762.531                    22004770.383
 114127667.977 8  88930706.225 7  21717772.141                    21717782.395
 115366724.118 7  89896315.40845  21953519.398                    21953524.973
 120147525.809 7  93621536.47144  22863300.734                    22863309.922
 128847634.487 6 100400799.63542  24518833.648                    24518843.082
 115748428.908 8  90193635.093 7  22026188.359                    22026196.289
 108735193.455 8  84728910.408 7  20691581.664                    20691588.816
 124771877.736 7  97224991.256 6  23743306.680                    23743317.586
 115395676.781 8  89918664.89245  21959041.336                    21959049.816
 11  8 25  2 17 30.0000000  0  9G29G25G02G26G10G12G05G15G30
 115558315.126 7  90045499.928 7  21990017.523                    21990025.305
 114151367.838 8  88949173.634 7  21722281.828                    21722292.313
 115407252.767 7  89927896.16545  21961231.594                    21961237.195
 120059879.158 7  93553240.48744  22846622.109                    22846631.445
 128956475.925 6 100485611.15442  24539545.539                    24539554.887
 115825450.197 8  90253651.648 7  22040844.906                    22040852.758
 108782698.406 8  84765927.259 8  20700621.695                    20700628.559
 124675586.249 7  97149959.096 6  23724983.055                    23724993.746
 115427748.888 7  89943656.12145  21965144.211                    21965153.090
 11  8 25  2 18  0.0000000  0  9G29G25G02G26G10G12G05G15G30
 115480986.971 8  89985244.244 7  21975302.859                    21975310.211
 114175598.386 8  88968054.552 7  21726892.813                    21726903.391
 115447863.396 8  89959540.81345  21968959.656                    21968965.148
 119972461.124 7  93485122.63744  22829986.969                    22829996.215
 129065357.275 6 100570453.75043  24560265.016                    24560274.266
 115902784.286 8  90313911.950 7  22055561.281                    22055568.980
 108830629.025 8  84803275.795 7  20709742.352                    20709749.844
 124579291.220 7  97074924.214 6  23706658.680                    23706669.340
 115460338.350 8  89969050.47745  21971345.961                    21971354.598
 11  8 25  2 18 30.0000000  0  9G29G25G02G26G10G12G05G15G30
 115403819.504 7  89925113.761 7  21960617.633                    21960625.629
 114200358.408 8  88987348.057 7  21731604.594                    21731615.164
 115488556.595 7  89991249.80545  21976703.383                    21976708.875
 119885275.913 7  93417186.19544  22813396.391                    22813405.617
 129174276.215 6 100655325.66543  24580991.273                    24581000.852
 115980428.810 7  90374414.148 7  22070336.281                    22070344.430
 108878983.423 8  84840954.545 7  20718944.344                    20718951.574
 124482995.616 7  96999888.866 6  23688333.813                    23688343.977
 115493443.507 7  89994846.67945  21977645.688                    21977654.270
 11  8 25  2 19  0.0000000  0  8G29G25G02G26G12G05G15G30
 115326815.490 8  89865110.653 7  21945964.383                    21945972.406
 114225646.809 8  89007053.287 7  21736416.727                    21736427.352
 115529333.092 8  90023023.69745  21984462.797                    21984468.566
 119798327.479 7  93349434.24744  22796850.516                    22796859.465
 116058381.197 7  90435156.234 7  22085170.172                    22085178.152
 108927759.648 8  84878961.987 8  20728225.984                    20728233.117
 124386702.777 7  96924855.703 6  23670009.578                    23670020.020
 115527062.852 7  90021043.53645  21984043.016                    21984051.488
 11  8 25  2 19 30.0000000  0  9G29G25G02G26G21G12G05G15G30
 115249976.508 8  89805236.145 7  21931342.406                    21931350.418
 114251461.122 8  89027168.320 7  21741329.094                    21741339.527
 115570191.996 8  90054861.80245  21992238.117                    21992243.691
 119711618.904 7  93281869.21944  22780350.031                    22780358.996
 132396600.49516                  25194239.172
 116136637.284 8  90496134.975 7  22100061.641                    22100069.973
 108976954.731 8  84917295.820 8  20737587.430                    20737594.621
 124290414.687 7  96849826.219 6  23651686.664                    23651696.777
 115561193.375 7  90047638.72945  21990538.102                    21990546.602
 11  8 25  2 20  0.0000000  0  9G29G25G02G26G21G12G05G15G30
 115173304.983 8  89745492.106 7  21916751.883                    21916760.055
 114277800.085 8  89047692.172 7  21746341.195                    21746351.730
 115611134.057 7  90086764.71045  22000029.148                    22000035.020
 119625153.988 7  93214494.05344  22763896.336                    22763905.660
 132341133.375 6 103123014.79953  25183684.148                    25183694.023
 116215194.681 8  90557348.502 7  22115011.000                    22115019.164
 109026566.724 8  84955954.522 7  20747028.320                    20747035.223
 124194134.801 7  96774803.127 6  23633365.047                    23633375.023
 115595833.256 7  90074630.80045  21997129.906                    21997138.773
 11  8 25  2 20 30.0000000  0  9G29G25G02G26G21G12G05G15G30
 115096803.312 8  89685880.430 7  21902194.570                    21902202.402
 114304662.168 8  89068623.666 7  21751453.094                    21751463.227
 115652159.259 7  90118732.38545  22007835.797                    22007841.551
 119538936.603 7  93147311.75744  22747489.844                    22747498.754
 132285670.088 6 103079796.70543  25173130.305                    25173139.789
 116294050.552 8  90618794.615 7  22130016.547                    22130024.559
 109076593.119 8  84994936.133 7  20756547.734                    20756554.957
 124097865.851 7  96699788.579 6  23615045.742                    23615055.727
 115630980.571 7  90102018.28545  22003818.453                    22003826.770
 11  8 25  2 21  0.0000000  0  9G29G25G02G26G21G12G05G15G30
 115020473.472 8  89626402.658 7  21887669.492                    21887677.508
 114332045.652 8  89089961.429 7  21756663.945                    21756674.375
 115693267.627 7  90150764.86945  22015658.445                    22015664.234
 119452970.166 7  93080325.02444  22731131.102                    22731140.059
 132230209.609 6 103036580.81243  25162575.773                    25162585.516
 116373201.843 8  90680470.921 7  22145078.805                    22145086.777
 109127031.973 8  85034239.142 8  20766146.383                    20766153.262
 124001610.694 7  96624784.758 6  23596728.461                    23596738.672
 115666632.976 7  90129799.34645  22010602.445                    22010611.129
 11  8 25  2 21 30.0000000  0  9G29G25G02G26G21G12G05G15G30
 114944317.470 8  89567060.357 7  21873177.398                    21873185.449
 114359948.499 8  89111703.913 7  21761973.711                    21761984.203
 115734459.400 8  90182862.34145  22023496.977                    22023502.473
 119367258.139 7  93013536.51745  22714820.336                    22714829.621
 132174750.747 6 102993366.14643  25152023.047                    25152032.035
 116452645.519 7  90742375.055 7  22160196.539                    22160203.926
 109177880.375 8  85073861.272 8  20775822.539                    20775829.652
 123905371.995 6  96549793.799 6  23578414.703                    23578425.340
 115702788.136 7  90157972.16745  22017482.586                    22017490.902
 11  8 25  2 22  0.0000000  0  9G29G25G02G26G21G12G05G15G30
 114868337.175 8  89507854.982 7  21858718.516                    21858726.891
 114388368.655 8  89133849.479 7  21767381.531                    21767391.875
 115775734.170 7  90215024.50045  22031351.305                    22031356.664
 119281803.693 7  92946948.72644  22698558.531                    22698567.551
 132119292.926 6 102950152.32643  25141468.945                    25141478.270
 116532377.619 7  90804503.934 7  22175368.961                    22175376.570
 109229135.497 8  85113800.333 7  20785575.992                    20785583.129
 123809152.324 6  96474817.647 6  23560104.508                    23560114.977
 115739443.513 7  90186534.77245  22024457.898                    22024466.262
 11  8 25  2 22 30.0000000  0  9G29G25G02G26G21G12G05G15G30
 114792535.619 8  89448788.885 7  21844294.078                    21844301.914
 114417305.158 8  89156397.406 7  21772888.180                    21772898.441
 115817092.922 7  90247252.10145  22039221.617                    22039227.172
 119196611.494 7  92880565.28444  22682346.656                    22682356.316
 132063836.040 6 102906939.21543  25130916.305                    25130925.512
 116612396.306 7  90866856.128 7  22190596.055                    22190603.816
 109280796.451 8  85154055.626 7  20795406.539                    20795413.887
 123712955.323 7  96399859.172 6  23541798.375                    23541808.766
 115776597.527 7  90215485.93345  22031527.898                    22031536.621
 11  8 25  2 23  0.0000000  0  9G29G25G02G26G21G12G05G15G30
 114716914.650 8  89389863.508 7  21829904.000                    21829911.559
 114446755.773 8  89179345.934 7  21778492.477                    21778502.699
 115858535.454 7  90279544.98545  22047107.969                    22047113.516
 119111684.668 7  92814388.63344  22666186.078                    22666195.254
 132008378.923 6 102863725.91543  25120363.281                    25120372.539
 116692698.143 7  90929428.955 7  22205876.742                    22205884.578
 109332859.908 8  85194624.563 7  20805314.031                    20805320.969
 123616783.482 7  96324920.272 6  23523497.688                    23523507.969
 115814247.464 7  90244823.53245  22038692.633                    22038701.297
 11  8 25  2 23 30.0000000  0  9G29G25G02G26G21G12G05G15G30
 114641476.669 8  89331080.725 7  21815548.688                    21815556.492
 114476719.199 8  89202694.058 7  21784194.102                    21784204.688
 115900062.427 8  90311903.66345  22055010.266                    22055015.574
 119027027.340 7  92748421.98144  22650076.094                    22650085.008
 131952921.489 6 102820512.35543  25109809.852                    25109819.168
 116773280.685 8  90992220.512 7  22221211.313                    22221219.207
 109385324.267 8  85235505.895 7  20815297.656                    20815305.086
 123520640.059 7  96250003.528 6  23505201.945                    23505212.441
 115852391.551 7  90274546.17945  22045951.219                    22045960.188
 11  8 25  2 24  0.0000000  0  9G29G25G02G26G21G12G05G15G30
 114566223.572 8  89272442.004 7  21801228.156                    21801236.656
 114507193.043 8  89226439.913 7  21789993.578                    21790004.125
 115941673.262 8  90344327.68545  22062928.695                    22062934.063
 118942642.558 7  92682667.70144  22634018.109                    22634027.031
 131897462.868 6 102777297.81342  25099256.328                    25099265.785
 116854139.787 7  91055227.572 7  22236598.422                    22236606.223
 109438186.281 8  85276697.078 7  20825356.359                    20825364.047
 123424527.781 7  96175111.032 6  23486912.664                    23486922.648
 115891026.956 7  90304651.67845  22053303.242                    22053312.102
 11  8 25  2 24 30.0000000  0  9G29G25G02G26G21G12G05G15G30
 114491157.649 8  89213949.143 7  21786943.758                    21786951.707
 114538175.477 8  89250582.064 7  21795889.008                    21795899.395
 115983368.424 7  90376817.42045  22070863.094                    22070868.941
 118858533.947 7  92617128.61045  22618012.758                    22618021.715
 131842002.238 6 102734081.74242  25088702.633                    25088711.410
 116935272.591 7  91118447.918 7  22252037.664                    22252045.441
 109491443.641 8  85318196.306 7  20835491.328                    20835498.762
 123328448.996 7  96100244.670 6  23468629.734                    23468638.715
 115930151.514 7  90335138.34945  22060748.531                    22060757.043
 11  8 25  2 25  0.0000000  0  9G29G25G02G26G21G12G05G15G30
 114416281.600 8  89155604.229 7  21772695.414                    21772703.191
 114569665.189 8  89275119.505 7  21801881.563                    21801891.910
 116025148.244 7  90409373.11045  22078813.383                    22078818.938
 118774705.628 7  92551807.92844  22602061.070                    22602069.730
 131786539.632 6 102690864.11742  25078148.383                    25078156.836
 117016676.622 7  91181879.596 7  22267528.250                    22267535.945
 109545094.717 8  85360002.345 7  20845700.984                    20845708.055
 123232407.444 7  96025407.269 6  23450353.047                    23450362.094
 115969763.252 8  90366004.63545  22068286.406                    22068295.262
 11  8 25  2 25 30.0000000  0  9G29G25G02G26G21G12G05G15G30
 114341597.451 8  89097408.850 7  21758483.250                    21758491.043
 114601660.185 8  89300050.661 7  21807969.766                    21807980.469
 116067013.203 7  90441995.15645  22086779.805                    22086786.055
 118691161.246 7  92486708.48345  22586162.805                    22586171.734
 131731073.904 6 102647644.11542  25067593.609                    25067603.453
 117098348.800 7  91245520.227 7  22283069.492                    22283077.336
 109599136.667 8  85402112.971 7  20855985.039                    20855991.719
 123136405.837 7  95950601.008 6  23432085.211                    23432093.996
 116009859.650 7  90397248.58045  22075916.109                    22075924.953
 11  8 25  2 26  0.0000000  0  9G29G25G02G26G21G12G05G15G30
 114267107.492 8  89039364.777 7  21744308.078                    21744315.840
 114634158.350 8  89325373.904 7  21814154.094                    21814164.461
 116108963.382 7  90474683.59745  22094762.898                    22094768.340
 118607903.924 7  92421832.73045  22570319.602                    22570327.934
 131675604.588 6 102604421.27542  25057038.133                    25057048.094
 117180285.882 7  91309367.272 7  22298661.641                    22298669.660
 109653567.324 8  85444526.484 7  20866342.625                    20866350.191
 123040447.408 7  95875828.384 6  23413823.453                    23413833.227
 116050438.305 7  90428868.30845  22083638.383                    22083646.820
 11  8 25  2 26 30.0000000  0  9G29G25G02G26G21G12G05G15G30
 114192814.226 8  88981473.974 7  21730170.680                    21730178.488
 114667158.178 8  89351088.044 7  21820433.695                    21820444.035
 116150999.201 7  90507438.78745  22102762.031                    22102767.488
 118524937.978 7  92357184.04744  22554531.781                    22554540.379
 131620131.258 6 102561195.29842  25046482.125                    25046490.676
 117262485.259 7  91373418.709 7  22314304.141                    22314312.246
 109708384.550 8  85487241.204 7  20876773.945                    20876781.008
 122944534.868 7  95801091.507 6  23395572.547                    23395581.793
 116091497.182 7  90460862.23445  22091451.406                    22091460.207
 11  8 25  2 27  0.0000000  0  9G29G25G02G26G21G12G05G15G30
 114118719.955 8  88923738.219 7  21716071.203                    21716078.723
 114700657.713 8  89377191.570 7  21826808.492                    21826818.773
 116193120.542 8  90540260.60945  22110777.273                    22110782.566
 118442267.177 7  92292765.31545  22538799.484                    22538808.352
 131564653.475 6 102517965.91742  25035924.367                    25035933.699
 117344943.711 7  91437672.015 7  22329995.398                    22330003.230
 109763585.890 8  85530255.231 7  20887278.531                    20887285.629
 122848671.362 7  95726392.838 6  23377330.047                    23377339.742
 116133033.807 7  90493228.43045  22099355.891                    22099363.785
 11  8 25  2 27 30.0000000  0  9G29G25G02G26G21G12G05G15G30
 114044827.000 8  88866159.341 7  21702009.617                    21702017.855
 114734655.075 8  89403683.006 7  21833278.250                    21833288.613
 116235328.187 8  90573149.69645  22118809.086                    22118814.672
 118359894.736 7  92228579.07945  22523124.664                    22523133.027
 131509170.590 6 102474732.54142  25025367.086                    25025375.945
 117427658.289 7  91502124.904 7  22345735.391                    22345743.391
 109819169.087 8  85573566.822 7  20897855.492                    20897862.496
 122752859.821 7  95651734.649 6  23359097.477                    23359106.809
 116175045.920 8  90525965.14245  22107350.359                    22107358.957
 11  8 25  2 28  0.0000000  0  9G29G25G02G26G21G12G05G15G30
 113971137.743 8  88808739.182 7  21687987.148                    21687994.676
 114769148.102 8  89430560.680 7  21839841.977                    21839852.238
 116277622.151 8  90606106.04345  22126857.180                    22126862.906
 118277824.721 7  92164628.50144  22507507.289                    22507515.934
 131453681.614 6 102431494.38742  25014807.016                    25014816.793
 117510625.825 7  91566774.904 7  22361523.523                    22361531.609
 109875131.413 8  85617173.829 7  20908504.586                    20908511.301
 122657103.241 7  95577119.312 6  23340875.508                    23340885.164
 116217530.884 8  90559070.30245  22115435.211                    22115443.777
 11  8 25  2 28 30.0000000  0  9G29G25G02G26G21G12G05G15G30
 113897653.691 8  88751478.917 7  21674003.242                    21674011.371
 114804134.609 8  89457822.880 7  21846499.414                    21846509.660
 116320002.445 8  90639129.64745  22134922.609                    22134927.680
 118196060.165 7  92100915.93445  22491948.063                    22491956.684
 131398185.979 6 102388251.16442  25004247.563                    25004256.141
 117593842.989 7  91631619.406 7  22377359.172                    22377367.215
 109931470.232 8  85661074.219 7  20919225.594                    20919232.609
 122561404.139 7  95502548.756 6  23322664.563                    23322673.781
 116260485.988 7  90592541.80545  22123609.180                    22123617.703
 11  8 25  2 29  0.0000000  0  9G29G25G02G26G21G12G05G15G30
 113824377.467 8  88694380.589 7  21660059.320                    21660066.746
 114839612.765 8  89485468.188 7  21853250.914                    21853261.484
 116362469.435 7  90672220.80845  22143003.633                    22143008.762
 118114605.018 7  92037444.47545  22476447.203                    22476455.992
 131342683.447 6 102345002.50443  24993684.406                    24993693.961
 117677306.803 7  91696656.112 7  22393241.961                    22393249.965
 109988183.436 8  85705266.328 7  20930017.719                    20930024.805
 122465765.934 7  95428025.656 6  23304464.563                    23304474.449
 116303909.091 7  90626377.97045  22131872.281                    22131880.816
 11  8 25  2 29 30.0000000  0  9G29G25G02G26G21G12G05G15G30
 113751312.389 8  88637446.784 7  21646155.539                    21646163.207
 114875580.997 8  89513495.356 7  21860095.430                    21860105.457
 116405023.699 8  90705379.98645  22151101.031                    22151106.637
 118033463.314 7  91974217.25245  22461006.297                    22461015.402
 131287173.599 6 102301748.19342  24983121.641                    24983130.723
 117761014.596 7  91761882.933 7  22409171.672                    22409179.094
 110045269.085 8  85749748.640 7  20940880.813                    20940887.988
 122370191.648 7  95353552.345 6  23286277.695                    23286286.750
 116347798.088 7  90660577.18545  22140224.383                    22140232.609
 11  8 25  2 30  0.0000000  0  9G29G25G02G26G21G12G05G15G30
 113678459.724 8  88580678.505 7  21632292.094                    21632299.816
 114912036.610 8  89541902.310 7  21867032.820                    21867043.164
 116447665.067 8  90738607.03545  22159215.438                    22159221.559
 117952638.062 7  91911236.60445  22445625.961                    22445634.785
 131231655.343 6 102258487.34843  24972556.695                    24972566.652
 117844963.191 7  91827297.385 7  22425146.164                    22425154.527
 110102723.898 8  85794518.627 7  20951813.781                    20951821.523
 122274684.260 7  95279131.173 6  23268103.133                    23268112.180
 116392149.752 7  90695136.91145  22148664.383                    22148672.434
 11  8 25  2 30 30.0000000  0  9G29G25G02G26G21G12G05G15G30
 113605822.005 8  88524077.715 7  21618469.398                    21618477.695
 114948978.086 8  89570687.861 7  21874062.234                    21874072.719
 116490394.254 7  90771902.50545  22167346.672                    22167352.543
 117872133.356 7  91848505.74445  22430306.250                    22430314.801
 131176128.460 6 102215219.71343  24961991.063                    24961999.660
 117929149.787 7  91892897.292 7  22441166.141                    22441174.293
 110160546.359 8  85839575.083 7  20962817.273                    20962824.527
 122179247.095 7  95204764.705 6  23249941.969                    23249950.758
 116436962.227 7  90730055.70845  22157191.609                    22157200.383
 11  8 25  2 31  0.0000000  0  9G29G25G02G26G21G12G05G15G30
 113533401.454 8  88467646.152 7  21604688.320                    21604695.723
 114986402.886 8  89599850.022 7  21881184.242                    21881194.715
 116533211.069 7  90805266.26745  22175494.703                    22175499.852
 117791952.488 7  91786027.23845  22415048.133                    22415056.961
 131120591.911 6 102171944.57243  24951421.727                    24951431.523
 118013570.585 7  91958679.705 7  22457231.109                    22457239.066
 110218733.204 8  85884915.486 7  20973890.227                    20973897.141
 122083882.727 7  95130454.983 6  23231794.734                    23231803.688
 116482232.523 7  90765331.24845  22165806.242                    22165815.055
 11  8 25  2 31 30.0000000  0  9G29G25G02G26G21G12G05G15G30
 113461200.647 8  88411385.819 7  21590949.086                    21590956.426
 115024308.930 8  89629387.175 7  21888397.656                    21888407.813
 116576116.050 7  90838698.72845  22183658.672                    22183664.570
 117712099.062 7  91723803.84945  22399852.922                    22399861.480
 131065045.201 6 102128661.50643  24940852.219                    24940861.426
 118098222.398 7  92024642.127 7  22473339.727                    22473347.387
 110277282.083 8  85930537.993 7  20985031.320                    20985038.695
 121988594.059 7  95056204.251 6  23213661.875                    23213670.660
 116527958.038 7  90800961.49345  22174507.695                    22174516.098
 11  8 25  2 32  0.0000000  0  9G29G25G02G26G21G12G05G15G30
 113389221.974 8  88355298.575 7  21577252.195                    21577259.602
 115062694.397 8  89659297.912 7  21895701.820                    21895712.266
 116619109.582 8  90872200.18645  22191840.594                    22191846.500
 117632576.903 7  91661838.60145  22384720.086                    22384728.602
 131009488.014 7 102085370.31543  24930279.531                    24930288.469
 118183102.904 7  92090782.754 7  22489491.859                    22489500.160
 110336191.096 8  85976441.126 7  20996241.359                    20996248.273
 121893384.600 7  94982015.234 6  23195543.805                    23195552.730
 116574136.628 7  90836944.79145  22183295.086                    22183303.660
 11  8 25  2 32 30.0000000  0  9G29G25G02G26G21G12G05G15G30
 113317468.325 8  88299386.673 7  21563597.648                    21563605.301
 115101557.626 8  89689580.923 7  21903097.141                    21903107.879
 116662192.339 8  90905771.16145  22200038.602                    22200044.520
 117553390.186 7  91600134.74845  22369651.539                    22369660.477
 130953919.956 6 102042070.64943  24919705.352                    24919714.242
 118268209.271 7  92157099.375 7  22505687.039                    22505695.215
 110395458.359 8  86022623.404 7  21007520.031                    21007526.813
 121798257.578 7  94907890.453 6  23177441.508                    23177450.508
 116620766.270 7  90873279.54845  22192168.422                    22192176.871
 11  8 25  2 33  0.0000000  0  9G29G25G02G26G21G12G05G15G30
 113245941.379 8  88243651.431 7  21549986.445                    21549993.770
 115140895.941 8  89720234.143 7  21910583.094                    21910593.930
 116705364.090 8  90939411.47445  22208254.172                    22208259.973
 117474541.986 7  91538694.65345  22354647.203                    22354655.813
 130898340.362 7 101998761.99243  24909128.531                    24909136.922
 118353537.927 7  92223589.218 7  22521924.711                    22521932.832
 110455080.483 8  86069082.211 7  21018865.570                    21018872.559
 121703215.321 7  94833831.712 6  23159355.383                    23159364.352
 116667843.693 7  90909963.22045  22201126.813                    22201136.035
 11  8 25  2 33 30.0000000  0  9G29G25G02G26G21G12G05G15G30
 113174643.723 8  88188094.851 7  21536418.609                    21536426.602
 115180707.312 8  89751255.980 7  21918158.977                    21918169.648
 116748625.434 7  90973121.60045  22216486.875                    22216492.305
 117396035.903 7  91477521.14845  22339707.531                    22339716.559
 130842748.422 6 101955443.69443  24898550.305                    24898558.902
 118439086.269 7  92290250.240 7  22538203.977                    22538211.855
 110515055.190 8  86115815.749 7  21030277.945                    21030285.418
 121608261.334 7  94759841.771 6  23141285.539                    23141295.270
 116715366.421 7  90946993.89945  22210170.500                    22210179.168
 11  8 25  2 34  0.0000000  0  9G29G25G02G26G21G12G05G15G30
 113103577.839 8  88132718.881 7  21522895.445                    21522902.957
 115220989.773 8  89782644.899 7  21925824.391                    21925834.977
 116791976.847 7  91006901.92045  22224736.047                    22224741.648
 117317876.028 7  91416617.42245  22324834.195                    22324843.152
 130787143.810 6 101912115.53943  24887968.914                    24887978.031
 118524851.053 7  92357079.906 7  22554524.656                    22554532.602
 110575380.647 8  86162822.612 7  21041757.867                    21041764.832
 121513399.085 7  94685923.276 6  23123233.766                    23123243.305
 116763332.225 7  90984369.81045  22219298.031                    22219306.523
 11  8 25  2 34 30.0000000  0  9G29G25G02G26G21G12G05G15G30
 113032745.382 8  88077524.795 7  21509416.570                    21509423.918
 115261740.608 8  89814398.780 7  21933579.305                    21933589.867
 116835418.202 7  91040752.30445  22233002.625                    22233008.406
 117240065.253 7  91355985.71245  22310027.188                    22310035.789
 130731525.806 6 101868776.91943  24877385.383                    24877393.777
 118610828.919 7  92424075.613 7  22570885.570                    22570893.590
 110636053.608 8  86210100.243 7  21053303.375                    21053310.438
 121418630.793 7  94612078.015 6  23105200.031                    23105209.148
 116811737.867 8  91022088.46145  22228509.016                    22228517.957
 11  8 25  2 35  0.0000000  0  9G29G25G02G26G21G12G05G15G30
 112962148.926 8  88022514.617 7  21495982.164                    21495990.047
 115302957.474 8  89846515.807 7  21941422.516                    21941433.035
 116878949.801 8  91074673.01045  22241286.523                    22241292.602
 117162607.136 7  91295628.80045  22295287.367                    22295295.992
 130675893.564 6 101825427.28043  24866798.617                    24866807.441
 118697016.166 7  92491234.474 7  22587286.695                    22587294.605
 110697071.570 8  86257646.717 7  21064914.914                    21064921.793
 121323959.554 7  94538308.366 6  23087184.523                    23087193.953
 116860580.640 8  91060147.73745  22237803.617                    22237812.066
 11  8 25  2 35 30.0000000  0  9G29G25G02G26G21G12G05G15G30
 112891791.220 8  87967690.470 7  21482593.867                    21482601.191
 115344638.660 8  89878994.643 7  21949353.984                    21949364.926
 116922572.371 7  91108664.61745  22249587.547                    22249593.281
 117085505.864 7  91235549.94845  22280615.172                    22280623.918
 130620247.008 6 101782066.46243  24856208.664                    24856217.660
 118783410.562 7  92558554.749 7  22603726.602                    22603734.980
 110758432.678 8  86305460.576 7  21076591.414                    21076598.418
 121229388.735 7  94464616.976 6  23069188.398                    23069196.820
 116909858.429 8  91098545.99245  22247180.789                    22247189.703
 11  8 25  2 36  0.0000000  0  9G29G25G02G26G21G12G05G15G30
 112821674.387 8  87913054.019 7  21469250.898                    21469258.355
 115386781.520 8  89911833.226 7  21957373.891                    21957384.387
 116966286.008 8  91142727.17945  22257906.016                    22257911.961
 117008764.546 7  91175751.59245  22266012.328                    22266020.531
 130564585.223 6 101738693.75743  24845616.555                    24845625.855
 118870008.722 7  92626033.796 7  22620206.055                    22620213.914
 110820134.067 8  86353539.596 7  21088332.375                    21088339.750
 121134921.249 7  94391006.108 6  23051211.594                    23051220.746
 116959568.079 7  91137280.76045  22256639.891                    22256649.012
 11  8 25  2 36 30.0000000  0  9G29G25G02G26G21G12G05G15G30
 112751801.065 8  87858607.313 7  21455954.461                    21455961.777
 115429384.231 8  89945030.136 7  21965480.703                    21965491.125
 117010091.249 8  91176861.12345  22266241.563                    22266247.352
 116932387.149 7  91116236.81245  22251477.883                    22251486.777
 130508908.060 6 101695309.08443  24835021.555                    24835030.664
 118956808.054 7  92693669.607 7  22636723.367                    22636731.145
 110882173.719 8  86401882.198 7  21100138.578                    21100145.254
 121040560.481 7  94317478.375 6  23033255.695                    23033264.094
 117009707.466 7  91176350.38845  22266181.570                    22266190.109
 11  8 25  2 37  0.0000000  0  9G29G25G02G26G21G12G05G15G30
 112682173.279 8  87804351.939 7  21442704.609                    21442711.996
 115472444.047 8  89978583.220 7  21973674.563                    21973685.219
 117053988.130 8  91211066.47145  22274595.188                    22274600.832
 116856376.904 7  91057008.11445  22237013.383                    22237021.773
 130453214.571 6 101651911.65543  24824424.023                    24824432.379
 119043805.096 7  92761459.460 7  22653278.516                    22653286.262
 110944548.658 8  86450486.053 7  21112008.000                    21112015.219
 120946308.934 7  94244035.755 6  23015319.898                    23015328.328
 117060273.445 7  91215752.43445  22275803.984                    22275813.016
 11  8 25  2 37 30.0000000  0  9G29G25G02G26G21G12G05G15G30
 112612793.594 8  87750289.892 7  21429502.422                    21429509.668
 115515958.924 8  90012490.915 7  21981955.352                    21981966.090
 117097977.213 8  91245343.67345  22282966.055                    22282971.672
 116780737.587 8  90998068.45845  22222619.867                    22222628.348
 130397504.576 6 101608501.40443  24813822.477                    24813830.398
 119130996.950 7  92829401.124 7  22669870.250                    22669878.555
 111007256.724 8  86499349.499 7  21123940.969                    21123948.078
 120852170.043 7  94170680.920 6  22997406.039                    22997414.621
 117111263.554 7  91255484.97845  22285507.469                    22285515.957
 11  8 25  2 38  0.0000000  0  9G29G25G02G26G21G12G05G15G30
 112543664.310 8  87696422.960 7  21416347.133                    21416354.820
 115559926.456 8  90046751.321 7  21990322.016                    21990333.094
 117142058.907 7  91279693.03945  22291354.383                    22291360.016
 116705472.714 8  90939420.57345  22208297.852                    22208305.570
 130341777.118 6 101565077.56443  24803217.039                    24803225.695
 119218380.269 7  92897491.994 7  22686499.109                    22686506.910
 111070295.604 8  86548470.717 7  21135936.688                    21135943.516
 120758146.963 7  94097416.325 6  22979513.047                    22979522.059
 117162674.924 7  91295545.77545  22295290.406                    22295298.883
 11  8 25  2 38 30.0000000  0  9G29G25G02G26G21G12G05G15G30
 112474788.018 8  87642753.154 7  21403240.422                    21403247.633
 115604344.577 8  90081362.837 7  21998774.727                    21998784.910
 117186233.708 7  91314114.95545  22299760.516                    22299766.395
 116630586.143 7  90881067.46245  22194047.266                    22194055.102
 130286032.071 6 101521639.94342  24792609.156                    24792617.195
 119305952.409 7  92965729.982 7  22703163.281                    22703171.250
 111133662.847 8  86597847.789 7  21147995.070                    21148002.207
 120664243.019 7  94024244.562 7  22961643.664                    22961652.785
 117214505.122 7  91335932.92145  22305153.273                    22305161.867
 11  8 25  2 39  0.0000000  0  9G29G25G02G26G21G12G05G15G30
 112406166.951 8  87589282.225 7  21390182.273                    21390189.863
 115649210.542 8  90116323.317 7  22007312.055                    22007322.258
 117230501.550 7  91348609.37345  22308184.258                    22308190.039
 116556080.935 7  90823011.52045  22179868.953                    22179877.258
 130230268.729 6 101478188.13742  24781997.203                    24782006.129
 119393709.776 7  93034112.311 6  22719863.242                    22719871.512
 111197355.371 8  86647478.333 7  21160115.344                    21160122.297
 120570460.545 7  93951167.426 7  22943797.602                    22943807.336
 117266751.094 7  91376644.05245  22315095.477                    22315103.836
 11  8 25  2 39 30.0000000  0 10G29G25G02G26G21G12G05G15G30G18
 112337803.240 8  87536011.845 7  21377173.219                    21377180.809
 115694521.849 8  90151630.806 7  22015934.609                    22015945.379
 117274863.002 7  91383176.72945  22316626.398                    22316631.512
 116481960.408 7  90765255.31745  22165764.297                    22165772.301
 130174486.213 6 101434721.35143  24771382.086                    24771391.031
 119481649.406 7  93102636.667 7  22736597.977                    22736605.516
 111261370.927 8  86697360.597 7  21172297.102                    21172304.363
 120476802.967 7  93878187.619 6  22925975.375                    22925983.934
 117319409.903 7  91417676.88845  22325116.102                    22325124.387
 129712269.14515                  24683430.383
 11  8 25  2 40  0.0000000  0 10G29G25G02G26G21G12G05G15G30G18
 112269699.131 8  87482943.739 7  21364213.008                    21364220.809
 115740276.041 8  90187283.411 7  22024641.680                    22024652.246
 117319318.071 7  91417817.03145  22325085.727                    22325091.113
 116408228.475 7  90707801.92845  22151733.555                    22151741.543
 130118683.832 6 101391239.07543  24760763.953                    24760772.539
 119569767.931 7  93171300.422 6  22753366.438                    22753374.008
 111325706.831 8  86747492.470 7  21184539.836                    21184547.113
 120383273.109 7  93805307.354 7  22908177.352                    22908186.059
 117372478.662 7  91459029.16145  22335215.102                    22335223.605
 129623247.554 6 101005199.51153  24666490.789                    24666501.617
 11  8 25  2 40 30.0000000  0 10G29G25G02G26G21G12G05G15G30G18
 112201856.674 8  87430079.520 7  21351303.281                    21351311.266
 115786470.691 8  90223279.234 7  22033432.336                    22033442.938
 117363867.232 7  91452530.66145  22333563.047                    22333568.320
 116334888.192 7  90650653.71345  22137777.344                    22137785.879
 130062861.080 6 101347740.93043  24750140.359                    24750149.711
 119658062.207 7  93240101.128 7  22770167.547                    22770176.223
 111390360.703 8  86797872.120 7  21196843.297                    21196850.152
 120289873.965 7  93732528.921 7  22890403.859                    22890412.711
 117425954.644 7  91500698.75345  22345391.297                    22345399.742
 129534392.096 6 100935961.90743  24649581.328                    24649593.445
 11  8 25  2 41  0.0000000  0 10G29G25G02G26G21G12G05G15G30G18
 112134279.125 8  87377421.722 7  21338443.734                    21338451.203
 115833103.669 8  90259616.601 7  22042306.133                    22042317.113
 117408511.141 8  91487318.12145  22342058.883                    22342064.293
 116261943.522 7  90593813.77445  22123896.469                    22123904.285
 130007017.893 6 101304226.92242  24739513.828                    24739522.176
 119746529.423 7  93309036.598 6  22787002.813                    22787010.824
 111455330.499 8  86848497.937 7  21209206.711                    21209213.574
 120196608.988 7  93659855.033 6  22872655.969                    22872664.336
 117479835.243 7  91542683.62445  22355644.063                    22355652.258
 129445704.604 5 100866855.00442  24632704.984                    24632716.578
 11  8 25  2 41 30.0000000  0 10G29G25G02G26G21G12G05G15G30G18
 112066968.866 8  87324972.194 7  21325635.211                    21325642.594
 115880172.813 8  90296293.841 7  22051262.898                    22051273.461
 117453250.247 7  91522179.76245  22350572.727                    22350577.680
 116189398.188 7  90537284.99845  22110091.352                    22110099.426
 129951153.962 6 101260696.68643  24728883.656                    24728891.172
 119835166.971 7  93378104.788 6  22803869.656                    22803877.672
 111520613.866 8  86899368.095 7  21221629.633                    21221636.531
 120103481.498 7  93587288.281 6  22854934.266                    22854942.598
 117534117.965 7  91584981.84145  22365973.859                    22365982.539
 129357186.600 6 100797880.23443  24615860.758                    24615872.363
 11  8 25  2 42  0.0000000  0 10G29G25G02G26G21G12G05G15G30G18
 111999928.197 8  87272732.746 7  21312877.656                    21312884.813
 115927675.385 8  90333308.811 7  22060302.633                    22060312.719
 117498084.921 7  91557115.86745  22359103.766                    22359109.441
 116117255.515 7  90481069.98945  22096363.211                    22096371.645
 129895268.397 6 101217149.60243  24718248.281                    24718256.832
 119923971.678 7  93447303.230 7  22820768.813                    22820777.145
 111586207.875 8  86950480.315 7  21234111.648                    21234118.715
 120010494.556 7  93514831.038 7  22837239.406                    22837247.508
 117588799.754 7  91627591.02045  22376379.547                    22376387.668
 129268839.236 6 100729038.35543  24599047.805                    24599059.254
 11  8 25  2 42 30.0000000  0 10G29G25G02G26G21G12G05G15G30G18
 111933159.191 8  87220704.973 7  21300171.844                    21300179.344
 115975608.853 8  90370659.543 7  22069424.016                    22069434.055
 117543015.459 7  91592126.67845  22367654.141                    22367659.758
 116045518.928 7  90425171.41245  22082712.086                    22082720.031
 129839360.549 6 101173585.14743  24707609.977                    24707617.809
 120012939.803 7  93516629.008 6  22837698.789                    22837707.066
 111652110.064 8  87001832.667 7  21246652.227                    21246659.809
 119917650.812 7  93442485.361 6  22819571.813                    22819579.738
 117643877.658 7  91670508.85745  22386860.039                    22386868.930
 129180663.858 6 100660330.47543  24582268.688                    24582280.121
 11  8 25  2 43  0.0000000  0 10G29G25G02G26G21G12G05G15G30G18
 111866665.006 8  87168891.347 7  21287518.750                    21287526.184
 116023971.228 8  90408344.484 7  22078626.914                    22078637.547
 117588042.705 7  91627212.83245  22376222.141                    22376228.246
 115974192.280 7  90369592.25645  22069139.281                    22069147.449
 129783430.426 6 101130003.34243  24696966.273                    24696975.629
 120102068.965 7  93586080.247 6  22854659.594                    22854667.426
 111718318.745 8  87053423.840 7  21259251.727                    21259258.477
 119824954.439 7  93370254.545 6  22801931.969                    22801940.180
 117699349.250 7  91713733.46945  22397416.359                    22397424.602
 129092661.632 6 100591757.53543  24565522.008                    24565533.223
 11  8 25  2 43 30.0000000  0 10G29G25G02G26G21G12G05G15G30G18
 111800447.954 8  87117293.653 7  21274917.688                    21274925.156
 116072759.843 8  90446361.572 7  22087911.070                    22087921.770
 117633166.843 7  91662374.49545  22384808.750                    22384814.668
 115903278.911 8  90314335.14445  22055644.742                    22055652.941
 129727477.520 6 101086403.73243  24686318.992                    24686327.555
 120191356.110 7  93655654.614 7  22871650.375                    22871658.742
 111784831.022 8  87105251.582 7  21271908.703                    21271915.313
 119732407.929 7  93298140.486 6  22784320.898                    22784329.000
 117755211.620 7  91757262.56845  22408046.500                    22408055.289
 129004833.890 6 100523320.61843  24548808.531                    24548820.438
 11  8 25  2 44  0.0000000  0 10G29G25G02G26G21G12G05G15G30G18
 111734509.844 8  87065913.328 7  21262370.078                    21262377.246
 116121971.987 8  90484708.673 7  22097276.133                    22097286.602
 117678387.868 7  91697611.65345  22393414.602                    22393420.258
 115832781.932 7  90259402.48245  22042229.047                    22042237.816
 129671501.285 6 101042786.01143  24675667.594                    24675675.539
 120280798.125 7  93725349.664 7  22888670.359                    22888678.543
 111851644.288 8  87157313.868 7  21284622.477                    21284629.980
 119640014.096 7  93226145.402 6  22766738.766                    22766746.910
 117811461.680 7  91801093.77745  22418750.508                    22418758.723
 128917181.984 6 100455020.69343  24532129.297                    24532140.332
 11  8 25  2 44 30.0000000  0 10G29G25G02G26G21G12G05G15G30G18
 111668852.921 8  87014752.098 7  21249875.773                    21249883.793
 116171605.028 8  90523383.747 7  22106720.688                    22106731.289
 117723706.655 7  91732924.99945  22402038.813                    22402043.867
 115762704.921 8  90204797.07645  22028893.859                    22028902.078
 129615500.446 6 100999149.07143  24665011.109                    24665018.613
 120370391.605 7  93795162.712 6  22905719.453                    22905727.891
 111918755.948 8  87209608.672 7  21297393.469                    21297400.746
 119547776.231 7  93154271.855 6  22749186.594                    22749194.805
 117868096.478 7  91845224.76145  22429527.633                    22429536.465
 128829706.777 6 100386858.49343  24515483.320                    24515494.293
 11  8 25  2 45  0.0000000  0 10G29G25G02G26G21G12G05G15G30G18
 111603480.257 8  86963812.372 7  21237435.648                    21237443.434
 116221656.876 8  90562385.160 7  22116245.555                    22116255.801
 117769123.578 8  91768314.81145  22410680.719                    22410686.258
 115693051.837 8  90150522.00745  22015639.609                    22015647.707
 129559475.166 6 100955493.08543  24654349.133                    24654357.172
 120460133.700 7  93865091.577 7  22922797.094                    22922805.848
 111986163.732 8  87262134.213 7  21310220.844                    21310227.867
 119455697.766 7  93082522.512 6  22731664.281                    22731672.461
 117925113.445 7  91889653.55445  22440377.523                    22440386.418
 128742409.959 6 100318835.25342  24498870.500                    24498881.316
 11  8 25  2 45 30.0000000  0 10G29G25G02G26G21G12G05G15G30G18
 111538394.194 8  86913095.974 7  21225050.219                    21225057.824
 116272124.742 8  90601710.755 7  22125849.063                    22125859.367
 117814638.941 7  91803781.33245  22419342.164                    22419348.035
 115623825.695 8  90096579.61345  22002466.203                    22002473.980
 129503425.089 6 100911817.77343  24643683.133                    24643691.355
 120550021.226 7  93935133.763 7  22939903.031                    22939910.273
 112053865.327 8  87314888.691 7  21323103.688                    21323111.527
 119363781.424 7  93010899.487 6  22714173.188                    22714181.406
 117982509.556 7  91934377.77545  22451299.992                    22451308.813
 128655292.534 6 100250951.73842  24482293.109                    24482303.469
 11  8 25  2 46  0.0000000  0 10G29G25G02G26G21G12G05G15G30G18
 111473596.755 8  86862604.481 7  21212720.016                    21212727.215
 116323005.683 8  90641358.218 7  22135531.383                    22135541.980
 117860253.188 7  91839324.90545  22428022.086                    22428027.566
 115555029.610 8  90042972.32845  21989374.945                    21989383.047
 129447349.124 6 100868122.26143  24633012.242                    24633020.996
 120640050.952 7  94005286.730 7  22957034.398                    22957042.914
 112121857.758 8  87367869.803 7  21336042.711                    21336049.211
 119272030.378 7  92939405.276 6  22696713.586                    22696721.266
 118040281.510 7  91979394.86045  22462293.328                    22462302.410
 128568355.477 6 100183208.76242  24465748.383                    24465758.773
 11  8 25  2 46 30.0000000  0 10G29G25G02G26G21G12G05G15G30G18
 111409090.049 7  86812339.533 7  21200444.656                    21200451.969
 116374297.251 8  90681325.647 7  22145292.211                    22145302.289
 117905966.411 7  91874945.59845  22436720.797                    22436726.668
 115486667.144 7  89989702.93245  21976365.766                    21976373.746
 129391247.114 6 100824406.50643  24622336.797                    24622344.563
 120730219.910 7  94075548.245 7  22974192.398                    22974201.219
 112190138.650 8  87421075.694 7  21349036.047                    21349043.266
 119180447.557 7  92868042.146 7  22679285.836                    22679294.004
 118098426.578 7  92024702.68345  22473358.125                    22473366.875
 128481600.212 6 100115607.54642  24449238.836                    24449250.594
 11  8 25  2 47  0.0000000  0 10G29G25G02G26G21G12G05G15G30G18
 111344877.530 8  86762303.818 7  21188225.156                    21188232.656
 116425997.311 8  90721611.387 7  22155130.195                    22155141.086
 117951779.484 7  91910644.09845  22445439.406                    22445444.492
 115418742.045 7  89936774.33245  21963439.773                    21963448.340
 129335118.846 7 100780670.26743  24611655.648                    24611663.176
 120820525.471 7  94145916.163 6  22991377.398                    22991385.387
 112258705.994 8  87474504.782 7  21362083.992                    21362090.797
 119089036.855 7  92796813.127 6  22661890.781                    22661899.184
 118156942.172 7  92070299.21245  22484493.281                    22484501.691
 128395028.407 6 100048149.26843  24432765.672                    24432775.797
 11  8 25  2 47 30.0000000  0 10G29G25G02G26G21G12G05G15G30G18
 111280960.828 8  86712498.622 7  21176062.383                    21176070.000
 116478102.919 8  90762213.129 7  22165045.594                    22165056.105
 117997692.797 7  91946420.70645  22454176.352                    22454181.695
 115351257.437 7  89884188.98945  21950597.555                    21950606.063
 129278963.371 6 100736912.84243  24600969.313                    24600977.719
 120910964.101 7  94216387.779 7  23008587.922                    23008596.422
 112327556.920 8  87528154.850 7  21375185.734                    21375192.855
 118997800.736 7  92725720.143 7  22644529.031                    22644537.332
 118215825.043 7  92116181.94345  22495698.281                    22495707.289
 128308640.625 6  99980834.38043  24416327.023                    24416336.793
 11  8 25  2 48  0.0000000  0 10G29G25G02G26G21G12G05G15G30G18
 111217342.872 8  86662926.218 7  21163956.141                    21163963.715
 116530611.789 8  90803129.108 7  22175037.688                    22175048.262
 118043706.788 7  91982275.75845  22462932.156                    22462937.750
 115284216.861 7  89831949.63645  21937840.406                    21937848.406
 129222780.761 6 100693134.23443  24590277.938                    24590286.773
 121001533.142 7  94286961.027 6  23025822.578                    23025830.617
 112396689.530 8  87582024.399 7  21388341.273                    21388348.148
 118906742.891 7  92654766.089 6  22627200.813                    22627209.285
 118275072.596 7  92162348.84245  22506972.867                    22506981.691
 128222438.518 6  99913664.15642  24399921.633                    24399932.789
 11  8 25  2 48 30.0000000  0 10G29G25G02G26G21G12G05G15G30G18
 111154025.192 8  86613587.795 7  21151907.234                    21151914.762
 116583520.926 8  90844356.980 7  22185105.781                    22185116.477
 118089821.642 7  92018209.40545  22471707.523                    22471713.051
 115217623.555 8  89780058.80845  21925168.344                    21925175.957
 129166570.162 6 100649333.87343  24579581.539                    24579589.902
 121092229.007 7  94357633.066 6  23043081.086                    23043089.332
 112466100.691 8  87636111.006 7  21401550.055                    21401557.141
 118815865.615 7  92583952.749 7  22609908.039                    22609915.805
 118334681.579 7  92208797.37745  22518315.992                    22518324.797
 128136422.816 6  99846639.13242  24383553.117                    24383563.695
 11  8 25  2 49  0.0000000  0 10G29G25G02G26G21G12G05G15G30G18
 111091010.425 7  86564485.413 7  21139915.953                    21139923.426
 116636827.584 8  90885894.611 7  22195249.961                    22195260.484
 118136037.940 7  92054222.10145  22480502.609                    22480508.418
 115151480.728 7  89728519.00145  21912581.719                    21912589.805
 129110330.769 6 100605511.04443  24568878.969                    24568887.688
 121183048.922 7  94428401.828 6  23060363.344                    23060372.457
 112535788.039 8  87690412.835 7  21414811.078                    21414818.035
 118725172.405 7  92513282.811 7  22592649.711                    22592657.676
 118394648.785 7  92255525.03845  22529727.391                    22529736.504
 128050594.923 6  99779760.53942  24367220.273                    24367231.441
 11  8 25  2 49 30.0000000  0 10G29G25G02G26G21G12G05G15G30G18
 111028301.400 7  86515621.272 7  21127982.836                    21127990.195
 116690529.146 8  90927739.966 7  22205468.961                    22205479.539
 118182356.218 7  92090314.26545  22489316.477                    22489322.297
 115085791.706 8  89677332.81245  21900081.234                    21900089.395
 129054062.563 6 100561665.76643  24558172.008                    24558179.910
 121273989.502 7  94499264.564 6  23077669.320                    23077676.863
 112605749.126 8  87744927.963 7  21428124.453                    21428131.074
 118634666.133 7  92442758.540 7  22575426.836                    22575434.668
 118454971.458 7  92302529.69345  22541206.398                    22541214.965
 127964955.732 6  99713028.92743  24350924.813                    24350934.840
 11  8 25  2 50  0.0000000  0 10G29G25G02G26G21G12G05G15G30G18
 110965901.024 7  86466997.639 7  21116108.531                    21116115.922
 116744623.365 8  90969891.291 7  22215762.383                    22215773.262
 118228776.927 7  92126486.24345  22498150.180                    22498155.555
 115020560.250 7  89626503.16245  21887668.547                    21887676.070
 128997765.292 6 100517797.85743  24547458.891                    24547466.680
 121365048.309 7  94570219.402 6  23094997.500                    23095005.766
 112675981.924 8  87799654.818 7  21441488.945                    21441495.840
 118544350.519 7  92372382.827 7  22558240.133                    22558247.676
 118515646.777 7  92349809.13545  22552752.813                    22552761.332
 127879506.984 6  99646445.71743  24334664.039                    24334674.328
 11  8 25  2 50 30.0000000  0 10G29G25G02G26G21G12G05G15G30G18
 110903809.934 7  86418615.015 7  21104292.789                    21104300.137
 116799106.750 8  91012345.859 7  22226130.453                    22226141.000
 118275300.028 7  92162738.00745  22507003.125                    22507008.766
 114955788.827 7  89576031.98445  21875342.391                    21875350.320
 128941437.619 6 100473906.26243  24536739.898                    24536748.242
 121456221.608 7  94641263.523 6  23112346.906                    23112354.953
 112746483.187 8  87854590.866 7  21454904.734                    21454911.887
 118454227.935 7  92302157.533 7  22541090.242                    22541098.332
 118576671.297 7  92397360.68145  22564365.367                    22564373.980
 127794249.152 6  99580011.28943  24318439.273                    24318449.836
 11  8 25  2 51  0.0000000  0 10G29G25G02G26G21G12G05G15G30G18
 110842031.735 7  86370476.207 7  21092536.656                    21092544.383
 116853977.265 8  91055102.089 7  22236572.047                    22236582.633
 118321926.427 7  92199070.25545  22515875.688                    22515881.516
 114891481.444 7  89525922.39545  21863105.180                    21863113.527
 128885079.831 6 100429991.20943  24526014.859                    24526023.484
 121547506.748 7  94712394.748 6  23129716.859                    23129726.141
 112817250.779 8  87909734.446 7  21468371.711                    21468378.844
 118364302.359 7  92232085.744 7  22523977.633                    22523986.203
 118638042.331 7  92445182.24645  22576043.688                    22576052.660
 127709183.825 6  99513726.86043  24302251.805                    24302262.445
 11  8 25  2 51 30.0000000  0 10G29G25G02G26G21G12G05G15G30G18
 110780568.550 7  86322582.862 7  21080840.734                    21080847.789
 116909231.895 8  91098157.626 7  22247086.813                    22247097.559
 118368656.501 7  92235483.29845  22524768.039                    22524774.074
 114827641.080 7  89476176.71445  21850956.773                    21850964.480
 128828691.283 6 100386052.18143  24515284.555                    24515292.816
 121638900.649 7  94783610.748 6  23147109.477                    23147117.938
 112888282.339 8  87965083.715 7  21481888.273                    21481895.340
 118274576.078 7  92162169.238 7  22506903.570                    22506911.559
 118699756.825 7  92493271.43145  22587787.789                    22587797.195
 127624311.905 6  99447593.08543  24286101.164                    24286111.281
 11  8 25  2 52  0.0000000  0 10G29G25G02G26G21G12G05G15G30G18
 110719423.212 7  86274937.184 7  21069204.867                    21069212.133
 116964868.211 8  91141510.600 7  22257674.125                    22257685.105
 118415490.612 7  92271977.40645  22533680.430                    22533686.262
 114764271.451 7  89426797.83245  21838897.938                    21838905.813
 128772271.810 6 100342089.06643  24504548.477                    24504555.898
 121730400.674 7  94854909.401 6  23164522.406                    23164528.906
 112959575.632 8  88020636.932 7  21495454.625                    21495461.742
 118185052.766 7  92092410.889 7  22489867.773                    22489875.805
 118761811.926 7  92541626.02245  22599596.047                    22599605.168
 127539634.660 7  99381611.00143  24269987.656                    24269997.363
 11  8 25  2 52 30.0000000  0 10G29G25G02G26G21G12G05G15G30G18
 110658597.774 7  86227540.774 7  21057630.063                    21057637.727
 117020883.273 8  91185158.682 7  22268333.586                    22268344.391
 118462429.346 8  92308553.03845  22542612.734                    22542618.617
 114701375.317 7  89377787.91745  21826928.844                    21826936.824
 128715820.369 6 100298101.02143  24493806.250                    24493813.660
 121822002.788 7  94926287.628 6  23181952.773                    23181961.813
 113031127.869 8  88076391.920 7  21509070.914                    21509077.613
 118095735.649 7  92022813.213 7  22472871.063                    22472879.145
 118824204.270 7  92590243.41345  22611468.984                    22611477.715
 127455153.429 6  99315781.63943  24253911.258                    24253921.309
 11  8 25  2 53  0.0000000  0 10G29G25G02G26G21G12G05G15G30G18
 110598094.504 7  86180395.409 7  21046117.117                    21046124.531
 117077274.078 7  91229099.562 7  22279064.156                    22279075.098
 118509472.887 7  92345210.33545  22551564.555                    22551570.105
 114638955.539 7  89329149.17445  21815051.156                    21815058.688
 128659337.012 6 100254088.09243  24483057.188                    24483065.129
 121913704.275 7  94997743.324 6  23199402.391                    23199410.867
 113102936.322 8  88132346.566 7  21522735.695                    21522742.578
 118006627.207 7  91953378.141 7  22455914.469                    22455922.137
 118886930.853 7  92639121.25545  22623405.742                    22623414.520
 127370868.533 6  99250105.37143  24237872.219                    24237882.539
 11  8 25  2 53 30.0000000  0 10G29G25G02G26G21G12G05G15G30G18
 110537915.890 7  86133503.021 7  21034665.344                    21034672.953
 117134038.226 7  91273331.350 7  22289866.148                    22289877.000
 118556622.189 7  92381950.04345  22560536.820                    22560542.480
 114577016.156 7  89280884.77745  21803264.328                    21803272.672
 128602820.957 6 100210049.68743  24472302.750                    24472310.258
 122005502.410 7  95069274.250 7  23216871.805                    23216880.816
 113174999.132 8  88188499.417 7  21536448.719                    21536455.586
 117917731.108 7  91884108.524 6  22438997.852                    22439005.883
 118949988.674 7  92688257.19645  22635405.367                    22635413.871
 127286781.663 6  99184583.38043  24221871.391                    24221881.254
 11  8 25  2 54  0.0000000  0 10G29G25G02G26G21G12G05G15G30G18
 110478064.174 7  86086865.349 7  21023275.531                    21023283.102
 117191172.790 7  91317851.781 7  22300738.484                    22300749.027
 118603877.331 7  92418772.21445  22569529.219                    22569535.070
 114515560.088 7  89232996.97245  21791569.750                    21791577.238
 128546271.962 7 100165985.60843  24461542.211                    24461549.387
 122097394.124 7  95140878.164 6  23234358.734                    23234366.430
 113247313.532 8  88244848.306 7  21550209.859                    21550216.594
 117829050.270 7  91815006.634 7  22422122.359                    22422130.395
 119013374.810 7  92737648.97445  22647467.031                    22647476.141
 127202893.883 7  99119216.46343  24205907.648                    24205917.258
 11  8 25  2 54 30.0000000  0 10G29G25G02G26G21G12G05G15G30G18
 110418542.412 7  86040484.786 7  21011949.469                    21011956.383
 117248675.198 7  91362658.845 7  22311680.609                    22311691.613
 118651239.057 7  92455677.45045  22578541.883                    22578547.352
 114454590.574 7  89185488.31845  21779967.180                    21779975.344
 128489689.502 6 100121895.46443  24450775.211                    24450782.242
 122189376.532 6  95212552.675 6  23251861.398                    23251870.582
 113319877.113 8  88301391.361 7  21564018.156                    21564024.805
 117740588.117 7  91746075.164 7  22405288.539                    22405296.117
 119077086.233 7  92787294.20845  22659591.570                    22659600.445
 127119206.574 7  99054005.71243  24189982.438                    24189991.492
 11  8 25  2 55  0.0000000  0 10G29G25G02G26G21G12G05G15G30G18
 110359351.952 7  85994362.378 7  21000685.375                    21000692.754
 117306542.333 7  91407750.104 7  22322692.508                    22322703.211
 118698707.453 7  92492665.81845  22587575.391                    22587580.691
 114394110.686 7  89138361.16545  21768458.344                    21768466.453
 128433073.080 7 100077778.85043  24440000.461                    24440007.969
 122281446.520 7  95284295.522 7  23269381.867                    23269390.816
 113392687.460 8  88358126.698 7  21577873.289                    21577880.375
 117652347.180 7  91677316.066 7  22388496.445                    22388504.789
 119141119.499 7  92837190.23545  22671776.273                    22671784.949
 127035720.261 6  98988951.66443  24174094.305                    24174104.734
 11  8 25  2 55 30.0000000  0 10G29G25G02G26G21G12G05G15G30G18
 110300495.450 8  85948500.185 7  20989485.508                    20989493.254
 117364771.427 7  91453123.423 7  22333773.141                    22333783.609
 118746283.229 7  92529737.85645  22596628.516                    22596633.301
 114334123.262 7  89091617.77545  21757042.859                    21757050.785
 128376422.422 6 100033635.53843  24429220.711                    24429227.879
 122373600.782 7  95356103.921 6  23286919.617                    23286927.313
 113465741.956 8  88415052.281 7  21591775.414                    21591782.277
 117564330.691 7  91608731.863 7  22371747.813                    22371755.723
 119205471.795 7  92887334.86445  22684022.492                    22684030.754
 126952435.962 6  98924055.05643  24158246.414                    24158256.313
 11  8 25  2 56  0.0000000  0 10G29G25G02G26G21G12G05G15G30G18
 110241975.701 8  85902900.399 7  20978349.781                    20978356.945
 117423360.025 7  91498776.867 7  22344921.945                    22344933.191
 118793966.886 7  92566893.96245  22605702.508                    22605707.551
 114274631.916 7  89045260.91845  21745722.422                    21745730.098
 128319737.262 6  99989465.36543  24418434.094                    24418441.262
 122465836.509 6  95427975.876 7  23304470.375                    23304479.742
 113539038.544 8  88472166.512 7  21605723.023                    21605730.332
 117476542.290 7  91540325.393 7  22355041.750                    22355050.641
 119270140.165 7  92937725.77045  22696328.148                    22696336.875
 126869355.318 6  98859317.11043  24142436.945                    24142446.184
 11  8 25  2 56 30.0000000  0 10G29G25G02G26G21G12G05G15G30G18
 110183795.024 8  85857564.819 7  20967278.469                    20967285.891
 117482305.146 7  91544708.123 7  22356139.242                    22356149.898
 118841758.903 7  92604134.49944  22614796.773                    22614801.715
 114215640.007 7  88999293.24845  21734496.391                    21734504.238
 128263017.223 6  99945268.02643  24407639.469                    24407647.449
 122558150.601 6  95499908.903 6  23322036.117                    23322045.098
 113612574.739 8  88529467.446 7  21619716.594                    21619723.551
 117388984.918 7  91472098.935 7  22338380.688                    22338388.457
 119335121.526 7  92988360.57844  22708694.086                    22708702.723
 126786479.035 6  98794738.36442  24126665.914                    24126674.973
 11  8 25  2 57  0.0000000  0 10G29G25G02G26G21G12G05G15G30G18
 110125955.170 8  85812494.819 7  20956271.906                    20956279.289
 117541603.749 7  91590914.795 7  22367423.273                    22367434.148
 118889659.587 7  92641459.71045  22623912.023                    22623917.289
 114157150.048 7  88953716.69145  21723365.969                    21723374.293
 128206261.575 6  99901042.92343  24396839.203                    24396846.969
 122650539.906 7  95571900.518 7  23339618.703                    23339628.105
 113686347.977 8  88586953.098 7  21633755.461                    21633762.027
 117301661.390 7  91404054.691 7  22321763.000                    22321771.418
 119400412.478 7  93039236.62945  22721117.719                    22721127.379
 126703808.066 6  98730319.61942  24110933.336                    24110942.188
 11  8 25  2 57 30.0000000  0 10G29G25G02G26G21G12G05G15G30G18
 110068459.148 7  85767692.728 7  20945330.742                    20945338.031
 117601253.455 7  91637395.080 7  22378774.086                    22378784.762
 118937669.746 7  92678870.22445  22633047.617                    22633053.367
 114099165.860 7  88908534.24845  21712332.250                    21712339.953
 128149470.224 6  99856790.00343  24386032.633                    24386040.348
 122743001.989 7  95643948.802 6  23357213.766                    23357221.352
 113760356.158 8  88644621.815 7  21647838.375                    21647844.969
 117214575.289 7  91336195.452 7  22305191.055                    22305199.293
 119466010.480 7  93090351.92845  22733600.922                    22733609.852
 126621343.795 6  98666061.94943  24095240.500                    24095250.117
 11  8 25  2 58  0.0000000  0 10G29G25G02G26G21G12G05G15G30G18
 110011309.490 8  85723160.534 7  20934455.336                    20934462.680
 117661251.117 7  91684146.497 7  22390191.703                    22390202.469
 118985789.794 7  92716366.37645  22642204.750                    22642210.984
 114041689.984 7  88863747.88645  21701394.477                    21701402.652
 128092642.933 6  99812509.09343  24375218.945                    24375226.828
 122835533.638 6  95716051.326 6  23374820.742                    23374831.063
 113834596.505 8  88702471.449 7  21661965.641                    21661972.891
 117127729.432 7  91268523.436 7  22288665.102                    22288672.563
 119531912.023 7  93141703.76244  22746141.469                    22746150.043
 126539087.012 6  98601965.93643  24079588.258                    24079597.445
 11  8 25  2 58 30.0000000  0 10G29G25G02G26G21G12G05G15G30G18
 109954507.803 8  85678899.479 7  20923646.500                    20923653.613
 117721593.567 7  91731166.571 7  22401673.914                    22401685.133
 119034019.835 7  92753948.20945  22651382.695                    22651388.656
 113984725.310 7  88819359.87945  21690554.281                    21690562.520
 128035778.964 6  99768199.56543  24364397.547                    24364405.297
 122928131.381 7  95788205.443 6  23392443.000                    23392450.148
 113909066.330 8  88760499.881 7  21676136.930                    21676143.758
 117041126.618 7  91201040.805 7  22272185.539                    22272193.125
 119598113.727 7  93193289.49244  22758739.930                    22758748.363
 126457038.241 6  98538032.05743  24063974.156                    24063984.293
 11  8 25  2 59  0.0000000  0 10G29G25G02G26G21G12G05G15G30G18
 109898056.696 8  85634911.611 7  20912903.898                    20912911.410
 117782278.084 7  91778453.196 7  22413221.719                    22413232.730
 119082360.730 7  92791616.44145  22660581.414                    22660587.508
 113928274.930 7  88775372.61445  21679812.078                    21679820.535
 127978877.838 6  99723861.11143  24353570.094                    24353577.242
 123020792.528 7  95860408.814 6  23410075.695                    23410084.246
 113983763.069 8  88818705.127 7  21690351.063                    21690358.121
 116954770.160 7  91133750.120 7  22255752.094                    22255759.793
 119664612.640 7  93245106.78644  22771393.672                    22771402.605
 126375198.777 6  98474261.24743  24048400.438                    24048409.766
 11  8 25  2 59 30.0000000  0 10G29G25G02G26G21G12G05G15G30G18
 109841958.568 8  85591198.810 7  20902228.813                    20902236.395
 117843302.021 7  91826004.296 7  22424834.773                    22424845.645
 119130812.772 7  92829371.27545  22669801.430                    22669807.352
 113872342.106 7  88731788.62745  21669169.055                    21669176.605
 127921939.495 6  99679493.66043  24342734.844                    24342743.152
 123113513.950 6  95932659.263 6  23427718.734                    23427727.973
 114058685.052 8  88877085.899 7  21704608.688                    21704615.496
 116868663.419 7  91066654.033 7  22239366.383                    22239374.031
 119731405.825 7  93297153.41144  22784104.352                    22784113.176
 126293569.872 6  98410654.40543  24032867.484                    24032876.570
 11  8 25  3  0  0.0000000  0 10G29G25G02G26G21G12G05G15G30G18
 109786215.969 8  85547763.021 7  20891621.109                    20891628.566
 117904662.597 7  91873817.711 7  22436511.094                    22436521.813
 119179376.749 7  92867213.32145  22679043.031                    22679049.156
 113816929.932 7  88688610.34645  21658624.086                    21658631.488
 127864963.035 6  99635096.52443  24331892.500                    24331900.234
 123206292.914 7  96004954.469 6  23445375.555                    23445384.102
 114133829.753 8  88935640.218 7  21718907.977                    21718914.961
 116782809.407 7  90999754.873 7  22223028.430                    22223036.930
 119798490.182 7  93349426.91744  22796869.953                    22796879.160
 126212152.768 7  98347212.66244  24017374.336                    24017383.191
 11  8 25  3  0 30.0000000  0 10G29G25G02G26G21G12G05G15G30G18
 109730831.381 8  85504606.212 7  20881082.039                    20881089.594
 117966356.686 7  91921891.004 7  22448251.531                    22448261.922
 119228053.049 7  92905142.91545  22688305.953                    22688311.180
 113762041.272 7  88645840.00545  21648178.992                    21648186.934
 127807948.634 6  99590669.81143  24321042.656                    24321050.836
 123299126.581 6  96077292.381 6  23463041.047                    23463048.629
 114209194.628 8  88994366.101 7  21733249.609                    21733256.461
 116697211.251 7  90933055.077 7  22206739.695                    22206747.598
 119865862.598 7  93401924.87944  22809690.578                    22809699.602
 126130947.891 6  98283936.33943  24001920.992                    24001930.586
 11  8 25  3  1  0.0000000  0 10G29G25G02G26G21G12G05G15G30G18
 109675806.905 8  85461730.015 7  20870611.367                    20870618.449
 118028381.393 7  91970221.940 7  22460054.023                    22460064.871
 119276842.096 7  92943160.33845  22697590.469                    22697596.164
 113707679.388 7  88603480.11845  21637834.828                    21637842.102
 127750895.933 6  99546213.25343  24310185.672                    24310193.691
 123392011.888 6  96149670.474 6  23480715.281                    23480725.598
 114284777.152 8  89053261.581 7  21747632.578                    21747639.625
 116611871.833 7  90866556.886 7  22190499.977                    22190507.969
 119933519.845 7  93454644.79444  22822565.344                    22822574.344
 126049956.440 6  98220826.33143  23986508.266                    23986517.719
 11  8 25  3  1 30.0000000  0 10G29G25G02G26G21G12G05G15G30G18
 109621144.994 8  85419136.340 7  20860209.547                    20860216.719
 118090734.104 7  92018808.445 7  22471919.430                    22471929.906
 119325744.454 7  92981266.06245  22706895.641                    22706901.895
 113653846.949 7  88561532.80445  21627590.273                    21627598.148
 127693804.606 6  99501726.59443  24299321.219                    24299329.809
 123484945.976 7  96222086.615 6  23498401.117                    23498409.379
 114360575.329 8  89112325.090 7  21762056.492                    21762063.625
 116526794.925 7  90800263.262 7  22174310.492                    22174318.137
 120001459.035 7  93507584.38244  22835493.836                    22835502.926
 125969179.426 7  98157883.31343  23971137.891                    23971146.414
 11  8 25  3  2  0.0000000  0 10G29G25G02G26G21G12G05G15G30G18
 109566847.447 8  85376826.587 7  20849876.688                    20849884.445
 118153411.299 7  92067647.805 7  22483846.391                    22483857.023
 119374760.318 7  93019460.24145  22716223.367                    22716229.188
 113600546.621 7  88520000.11045  21617447.727                    21617455.180
 127636673.851 6  99457209.20443  24288449.789                    24288458.055
 123577925.203 7  96294537.837 6  23516094.594                    23516104.313
 114436586.199 8  89171554.326 7  21776521.023                    21776527.695
 116441982.629 7  90734175.813 7  22158171.352                    22158179.152
 120069676.392 7  93560740.74044  22848475.305                    22848483.980
 125888617.665 6  98095108.04043  23955807.008                    23955815.836
 11  8 25  3  2 30.0000000  0 10G29G25G02G26G21G12G05G15G30G18
 109512917.191 8  85334803.045 7  20839614.289                    20839621.762
 118216410.532 7  92116738.099 7  22495835.000                    22495845.754
 119423890.526 7  93057743.52245  22725572.680                    22725578.785
 113547781.633 8  88478884.57845  21607406.906                    21607414.586
 127579503.604 6  99412661.03243  24277571.586                    24277578.500
 123670947.196 6  96367022.534 6  23533795.883                    23533803.965
 114512807.644 8  89230947.657 7  21791025.367                    21791031.863
 116357438.579 7  90668297.399 7  22142082.828                    22142090.637
 120138169.280 7  93614111.79545  22861508.969                    22861518.090
 125808272.468 6  98032501.60143  23940517.086                    23940526.277
 11  8 25  3  3  0.0000000  0 10G29G25G02G26G21G12G05G15G30G18
 109459356.807 8  85293067.703 7  20829422.203                    20829429.344
 118279728.957 7  92166077.100 7  22507883.781                    22507894.973
 119473135.536 7  93096116.26645  22734944.094                    22734949.711
 113495555.361 8  88438188.80845  21597468.539                    21597475.793
 127522293.736 6  99368081.98144  24266683.781                    24266691.895
 123764009.325 7  96439538.356 6  23551505.734                    23551514.152
 114589237.796 8  89290503.622 7  21805569.109                    21805576.109
 116273166.009 7  90602630.520 7  22126046.805                    22126054.371
 120206934.695 7  93667695.21244  22874594.398                    22874603.059
 125728144.544 6  97970064.44443  23925270.094                    23925278.770
 11  8 25  3  3 30.0000000  0 10G29G25G02G26G21G12G05G15G30G18
 109406167.288 8  85251621.356 7  20819300.523                    20819307.332
 118343363.017 7  92215662.062 7  22519993.227                    22520003.754
 119522495.536 7  93134578.59845  22744336.594                    22744341.961
 113443869.605 7  88397914.22945  21587632.922                    21587640.930
 127465043.368 6  99323471.37643  24255789.250                    24255797.117
 123857107.795 7  96512082.582 6  23569221.070                    23569229.152
 114665873.321 8  89350219.605 7  21820152.492                    21820159.469
 116189167.422 7  90537177.138 7  22110062.359                    22110069.598
 120275968.742 7  93721487.95944  22887731.242                    22887740.031
 125648234.153 6  97907796.72343  23910063.359                    23910071.520
 11  8 25  3  4  0.0000000  0 10G29G25G02G26G21G12G05G15G30G18
 109353352.027 8  85210466.646 7  20809250.023                    20809257.301
 118407310.287 7  92265491.079 7  22532161.586                    22532172.656
 119571971.427 7  93173131.24745  22753751.281                    22753757.168
 113392728.003 7  88358063.65445  21577900.859                    21577909.184
 127407752.469 6  99278829.17043  24244887.703                    24244894.855
 123950239.891 7  96584652.986 6  23586944.023                    23586953.332
 114742712.582 8  89410094.351 7  21834774.508                    21834781.707
 116105446.449 7  90471940.079 7  22094130.547                    22094138.160
 120345268.840 7  93775488.00644  22900918.602                    22900927.816
 125568543.011 6  97845699.86443  23894897.430                    23894906.328
 11  8 25  3  4 30.0000000  0 10G29G25G02G26G21G12G05G15G30G18
 109300913.335 8  85169605.359 7  20799271.242                    20799278.578
 118471567.711 7  92315561.770 7  22544389.914                    22544400.598
 119621563.680 7  93211774.55044  22763188.609                    22763194.504
 113342133.162 8  88318639.13745  21568272.914                    21568280.758
 127350420.913 6  99234155.27443  24233977.789                    24233985.148
 124043403.158 6  96657247.640 6  23604672.453                    23604680.691
 114819752.937 8  89470125.781 7  21849434.844                    21849442.125
 116022005.599 7  90406921.291 7  22078252.047                    22078259.695
 120414831.759 7  93829692.84244  22914156.258                    22914164.793
 125489071.672 6  97783774.31043  23879774.750                    23879784.145
 11  8 25  3  5  0.0000000  0 10G29G25G02G26G21G12G05G15G30G18
 109248853.016 8  85129038.919 7  20789364.117                    20789371.738
 118536132.331 7  92365871.828 7  22556676.352                    22556686.734
 119671272.722 7  93250508.85944  22772647.523                    22772653.285
 113292088.045 7  88279642.96745  21558749.938                    21558757.313
 127293048.360 6  99189449.41643  24223060.344                    24223067.582
 124136594.226 7  96729864.001 6  23622405.414                    23622415.184
 114896991.920 8  89530311.993 7  21864133.031                    21864140.309
 115938848.623 7  90342123.705 7  22062427.781                    22062435.719
 120484654.289 7  93884099.98244  22927442.883                    22927452.047
 125409821.006 6  97722020.71243  23864694.281                    23864703.137
 11  8 25  3  5 30.0000000  0 10G29G25G02G26G21G12G05G15G30G18
 109197173.153 7  85088768.917 7  20779529.813                    20779537.441
 118601000.758 7  92416418.620 7  22569020.320                    22569031.203
 119721098.705 7  93289334.28844  22782129.516                    22782135.023
 113242594.751 7  88241076.79245  21549331.547                    21549339.367
 127235634.099 6  99144711.07843  24212134.492                    24212141.902
 124229810.172 7  96802499.742 6  23640144.977                    23640152.492
 114974427.168 8  89590651.150 7  21878868.570                    21878875.184
 115855977.802 7  90277549.096 7  22046657.891                    22046665.457
 120554732.838 7  93938706.62144  22940778.297                    22940787.340
 125330791.925 6  97660439.73543  23849654.109                    23849664.273
 11  8 25  3  6  0.0000000  0 10G29G25G02G26G21G12G05G15G30G18
 109145876.892 7  85048797.835 7  20769768.617                    20769775.988
 118666170.617 7  92467200.309 7  22581421.359                    22581432.477
 119771042.663 7  93328251.65345  22791633.648                    22791639.711
 113193657.088 7  88202943.56845  21540019.234                    21540026.867
 127178178.472 7  99099940.48243  24201201.359                    24201208.652
 124323048.212 7  96875152.734 6  23657886.969                    23657896.871
 115052056.627 8  89651141.632 7  21893640.680                    21893647.836
 115773397.052 7  90213200.515 7  22030943.688                    22030951.113
 120625064.968 7  93993510.85245  22954162.438                    22954171.117
 125251985.667 6  97599032.34843  23834658.391                    23834667.215
 11  8 25  3  6 30.0000000  0 10G29G25G02G26G21G12G05G15G30G18
 109094966.133 8  85009127.150 7  20760080.797                    20760087.809
 118731638.819 7  92518214.460 7  22593879.727                    22593890.914
 119821104.993 7  93367261.24944  22801159.891                    22801165.844
 113145277.198 8  88165244.97645  21530812.352                    21530820.109
 127120680.689 7  99055137.07043  24190259.914                    24190267.078
 124416305.643 7  96947820.751 6  23675633.898                    23675642.590
 115129878.027 8  89711781.673 7  21908449.867                    21908456.938
 115691109.110 7  90149080.110 7  22015284.547                    22015291.969
 120695647.177 7  94048509.94344  22967592.984                    22967602.586
 125173402.916 6  97537799.17543  23819705.227                    23819713.922
 11  8 25  3  7  0.0000000  0 10G29G25G02G26G21G12G05G15G30G18
 109044442.557 8  84969758.153 7  20750466.484                    20750473.539
 118797401.833 7  92569458.336 7  22606394.148                    22606404.680
 119871285.871 7  93406363.23645  22810709.383                    22810715.098
 113097457.493 8  88127982.89845  21521712.984                    21521720.230
 127063140.215 7  99010300.34744  24179310.305                    24179316.973
 124509579.064 7  97020501.297 6  23693382.703                    23693391.648
 115207888.320 8  89772568.922 7  21923294.438                    21923301.453
 115609116.491 7  90085189.814 7  21999682.250                    21999689.816
 120766475.850 7  94103701.08944  22981071.938                    22981080.895
 125095044.046 6  97476740.43343  23804793.594                    23804802.668
 11  8 25  3  7 30.0000000  0 10G29G25G02G26G21G12G05G15G30G18
 108994309.549 8  84930693.497 7  20740926.414                    20740933.441
 118863457.407 7  92620930.188 7  22618963.852                    22618974.422
 119921586.315 7  93445558.36844  22820281.266                    22820287.457
 113050201.531 7  88091160.09245  21512720.438                    21512727.973
 127005557.450 7  98965430.71943  24168352.242                    24168359.762
 124602866.083 7  97093192.383 6  23711134.836                    23711143.727
 115286086.013 8  89833502.180 7  21938175.242                    21938182.258
 115527423.098 7  90021532.677 7  21984136.250                    21984143.664
 120837548.626 7  94159082.45444  22994596.508                    22994605.777
 125016910.491 6  97415857.29943  23789924.867                    23789933.836
 11  8 25  3  8  0.0000000  0 10G29G25G02G26G21G12G05G15G30G18
 108944568.516 8  84891934.275 7  20731461.125                    20731467.742
 118929802.122 7  92672627.321 7  22631588.867                    22631599.941
 119972006.507 7  93484846.82345  22829876.008                    22829881.137
 113003511.574 8  88054778.33545  21503835.414                    21503843.441
 126947931.739 7  98920527.59843  24157386.297                    24157394.230
 124696163.506 7  97165891.694 6  23728888.875                    23728896.645
 115364468.314 8  89894579.303 7  21953090.914                    21953097.430
 115446031.569 7  89958110.757 7  21968647.844                    21968655.137
 120908861.806 7  94214651.11544  23008167.320                    23008176.102
 124939002.870 7  97355150.12543  23775100.180                    23775107.781
 11  8 25  3  8 30.0000000  0 10G29G25G02G26G21G12G05G15G30G18
 108895222.160 8  84853482.592 7  20722070.617                    20722077.664
 118996433.167 7  92724547.584 7  22644268.695                    22644279.137
 120022546.819 7  93524228.86044  22839493.211                    22839499.094
 112957390.436 7  88018839.81445  21495058.836                    21495066.691
 126890263.108 7  98875591.06144  24146412.406                    24146419.660
 124789468.510 7  97238596.799 6  23746644.023                    23746653.617
 115443033.025 8  89955798.559 7  21968041.234                    21968048.176
 115364944.883 7  89894926.384 7  21953217.297                    21953224.438
 120980412.498 7  94270404.89344  23021783.008                    23021791.195
 124861322.276 7  97294619.87443  23760317.680                    23760326.141
 11  8 25  3  9  0.0000000  0 10G29G25G02G26G21G12G05G15G30G18
 108846271.792 8  84815339.471 8  20712755.719                    20712762.758
 119063346.886 7  92776688.120 7  22657001.977                    22657012.578
 120073207.751 7  93563704.90345  22849133.898                    22849139.543
 112911840.115 8  87983346.08245  21486390.703                    21486398.348
 126832550.734 6  98830620.42043  24135430.578                    24135437.602
 124882778.039 7  97311305.438 6  23764400.266                    23764408.922
 115521777.501 8  90017157.886 7  21983025.750                    21983032.762
 115284165.721 7  89831981.635 7  21937845.359                    21937852.867
 121052196.738 7  94326340.63144  23035442.156                    23035451.816
 124783869.020 6  97234266.86143  23745578.305                    23745587.699
 11  8 25  3  9 30.0000000  0 10G29G25G02G26G21G12G05G15G30G18
 108797720.661 8  84777507.444 7  20703516.617                    20703523.645
 119130540.960 7  92829047.116 7  22669788.430                    22669799.547
 120123990.173 7  93603275.58944  22858797.336                    22858802.828
 112866863.628 7  87948299.49945  21477831.852                    21477839.730
 126774794.934 7  98785615.97744  24124439.547                    24124447.047
 124976089.348 6  97384015.463 6  23782156.594                    23782166.609
 115600700.013 8  90078655.945 7  21998044.352                    21998051.496
 115203697.677 7  89769279.317 7  21922532.500                    21922540.215
 121124212.083 7  94382456.45644  23049146.633                    23049156.195
 124706643.981 7  97174091.59244  23730883.430                    23730891.742
 11  8 25  3 10  0.0000000  0 10G29G25G02G26G21G12G05G15G30G18
 108749571.639 8  84739988.746 8  20694354.430                    20694361.129
 119198012.603 7  92881622.397 7  22682627.898                    22682638.477
 120174895.026 7  93642941.70144  22868484.109                    22868489.465
 112822464.323 8  87913702.66645  21469383.281                    21469390.648
 126716995.332 7  98740577.39943  24113440.500                    24113447.941
 125069399.983 7  97456724.956 6  23799914.008                    23799922.238
 115679798.352 7  90140291.008 7  22013095.977                    22013103.133
 115123543.839 7  89706821.831 7  21907280.352                    21907287.625
 121196455.688 7  94438750.16244  23062894.250                    23062903.348
 124629648.364 7  97114095.03944  23716231.797                    23716240.008
 11  8 25  3 10 30.0000000  0 10G29G25G02G26G21G12G05G15G30G18
 108701825.136 8  84702783.692 7  20685267.938                    20685275.434
 119265757.920 8  92934410.930 7  22695519.289                    22695530.293
 120225921.954 7  93682702.93144  22878194.195                    22878199.809
 112778643.386 8  87879556.51445  21461044.320                    21461051.871
 126659150.786 7  98695503.78743  24102433.047                    24102440.121
 125162706.616 6  97529431.399 6  23817668.102                    23817678.262
 115759069.493 7  90202060.723 7  22028181.211                    22028188.051
 115043706.595 7  89644611.043 7  21892088.281                    21892095.070
 121268923.324 7  94495218.41044  23076684.570                    23076693.199
 124552882.442 6  97054277.54543  23701622.906                    23701632.215
 11  8 25  3 11  0.0000000  0 10G29G25G02G26G21G12G05G15G30G18
 108654484.172 8  84665894.645 7  20676259.359                    20676266.379
 119333774.426 7  92987410.771 7  22708462.789                    22708473.219
 120277071.803 7  93722559.94044  22887927.742                    22887933.207
 112735404.372 8  87845863.80345  21452816.156                    21452823.512
 126601262.053 7  98650395.75144  24091417.133                    24091423.945
 125256006.352 7  97602132.374 6  23835423.688                    23835432.844
 115838511.682 8  90263963.727 7  22043298.648                    22043305.867
 114964189.562 7  89582649.769 7  21876956.164                    21876963.473
 121341612.447 7  94551859.26044  23090517.008                    23090525.836
 124476347.347 7  96994639.91544  23687059.102                    23687068.156
 11  8 25  3 11 30.0000000  0 10G29G25G02G26G21G12G05G15G30G18
 108607550.783 8  84629323.189 8  20667328.500                    20667335.570
 119402058.869 7  93040619.389 7  22721456.445                    22721467.051
 120328344.956 7  93762513.04044  22897684.844                    22897690.535
 112692749.280 8  87812626.10145  21444699.000                    21444707.117
 126543328.730 7  98605252.96443  24080393.000                    24080399.820
 125349296.259 7  97674825.731 6  23853176.234                    23853185.016
 115918122.458 8  90325998.098 7  22058448.063                    22058454.652
 114884995.483 7  89520940.136 7  21861886.219                    21861893.191
 121414519.545 7  94608669.96044  23104390.281                    23104400.027
 124400043.554 7  96935182.49043  23672538.703                    23672546.840
 11  8 25  3 12  0.0000000  0 10G29G25G02G26G21G12G05G15G30G18
 108561027.362 8  84593071.184 8  20658475.234                    20658482.371
 119470608.325 7  93094034.529 7  22734501.164                    22734511.965
 120379741.995 7  93802562.67844  22907465.102                    22907470.758
 112650680.975 8  87779845.62545  21436693.914                    21436701.563
 126485350.626 7  98560075.29743  24069360.281                    24069366.898
 125442573.820 7  97747509.451 6  23870926.500                    23870935.918
 115997899.605 8  90388162.110 7  22073628.570                    22073635.633
 114806127.462 7  89459484.573 7  21846877.969                    21846885.309
 121487641.629 7  94665648.17744  23118305.469                    23118314.645
 124323972.122 7  96875906.15543  23658062.656                    23658071.066
 11  8 25  3 12 30.0000000  0 10G29G25G02G26G21G12G05G15G30G18
 108514916.551 8  84557140.694 7  20649700.883                    20649707.875
 119539419.943 7  93147653.949 7  22747595.781                    22747606.473
 120431263.729 7  93842709.44044  22917269.672                    22917275.523
 112609201.820 8  87747524.24045  21428800.938                    21428808.246
 126427327.544 7  98514862.58944  24058318.164                    24058325.844
 125535836.329 6  97820181.446 6  23888673.141                    23888683.141
 116077840.825 8  90450453.975 7  22088841.078                    22088848.461
 114727588.536 7  89398285.458 7  21831932.477                    21831939.539
 121560975.769 7  94722791.63744  23132260.539                    23132269.020
 124248133.732 7  96816811.41344  23643631.656                    23643639.371
 11  8 25  3 13  0.0000000  0 10G29G25G02G26G21G12G05G15G30G18
 108469220.155 8  84521533.126 8  20641005.000                    20641011.656
 119608490.551 7  93201475.187 7  22760739.156                    22760750.105
 120482910.551 7  93882953.69044  22927097.141                    22927103.273
 112568314.509 8  87715664.02345  21421020.148                    21421027.691
 126369259.043 7  98469614.50344  24047267.609                    24047275.176
 125629080.748 7  97892839.397 6  23906417.313                    23906426.484
 116157944.034 8  90512872.058 7  22104084.133                    22104091.305
 114649381.675 7  89337345.096 7  21817049.945                    21817057.066
 121634518.492 7  94780097.60944  23146255.125                    23146263.969
 124172529.506 6  96757899.13443  23629244.477                    23629252.598
 11  8 25  3 13 30.0000000  0 10G29G25G02G26G21G12G05G15G30G18
 108423939.895 8  84486249.813 8  20632388.570                    20632395.438
 119677816.609 7  93255495.461 7  22773931.258                    22773942.641
 120534682.627 7  93923295.52944  22936949.352                    22936955.559
 112528020.732 8  87684266.30645  21413352.461                    21413360.168
 126311144.571 7  98424330.60244  24036209.414                    24036216.770
 125722303.903 7  97965480.673 6  23924156.859                    23924166.680
 116238206.615 8  90575414.324 7  22119357.648                    22119364.813
 114571509.134 7  89276665.239 7  21802231.367                    21802238.621
 121708266.151 7  94837563.26644  23160288.992                    23160297.461
 124097159.656 6  96699169.49143  23614900.805                    23614909.828
 11  8 25  3 14  0.0000000  0 10G29G25G02G26G21G12G05G15G30G18
 108379078.815 8  84451293.131 8  20623851.281                    20623858.957
 119747395.933 7  93309713.087 7  22787172.109                    22787183.063
 120586581.114 7  93963735.88344  22946825.961                    22946831.383
 112488323.762 8  87653333.63645  21405798.422                    21405806.129
 126252984.579 7  98379011.19044  24025141.734                    24025149.094
 125815503.681 7  98038103.862 6  23941893.008                    23941900.906
 116318627.004 8  90638079.560 7  22134661.141                    22134668.219
 114493975.237 8  89216249.247 7  21787476.859                    21787484.148
 121782216.458 7  94895186.86044  23174361.430                    23174369.934
 124022025.034 7  96640623.11343  23600603.859                    23600612.160
 11  8 25  3 14 30.0000000  0 10G29G25G02G26G21G12G05G15G30G18
 108334638.223 8  84416664.106 7  20615394.625                    20615401.867
 119817224.741 7  93364125.120 7  22800460.297                    22800470.965
 120638605.874 7  94004274.65344  22956725.148                    22956731.133
 112449225.382 8  87622867.38345  21398357.797                    21398365.676
 126194778.630 7  98333655.97544  24014065.383                    24014072.723
 125908676.641 7  98110706.086 6  23959622.875                    23959632.637
 116399202.233 8  90700865.455 7  22149994.070                    22150001.145
 114416781.949 7  89156098.667 7  21772787.406                    21772794.906
 121856365.493 7  94952965.29544  23188471.273                    23188480.715
 123947126.024 7  96582260.32944  23586350.875                    23586359.500
